GFSGBSN_con_mlcape_003.txt.gz
CAPE
0 0 0 0 0 2 0 0 0 1 1 1 1 1 1 1 1 1 1 1 1 1 1 1 1 0 0 0 0 0 12 0 0 0 0 0 0 0 0 0 0 0 0 0 0 0 0
0 0 0 0 0 0 1 0 0 1 1 1 1 0 1 1 1 1 1 1 1 1 1 0 1 1 0 0 0 0 0 0 0 0 0 0 0 0 0 0 0 0 0 0 0 0 0
0 0 0 0 0 0 0 0 0 0 1 1 1 1 1 1 1 1 1 1 1 0 0 0 1 2 0 0 0 0 0 0 0 0 0 0 0 0 0 0 0 0 0 0 0 0 0
0 0 0 0 0 0 0 0 0 0 1 1 1 1 1 1 1 1 1 1 0 0 0 1 1 1 0 0 0 0 0 0 0 0 0 0 0 0 0 0 0 0 0 0 0 0 0
17 0 0 0 0 0 0 0 0 0 1 1 1 1 0 1 1 1 1 0 0 1 1 2 0 0 0 0 0 0 0 0 0 0 0 0 0 0 0 0 0 0 0 0 0 0 0
16 1 0 0 0 0 0 0 0 0 1 0 1 0 1 1 1 1 0 1 1 1 2 2 1 0 0 0 0 0 0 0 0 0 0 0 0 0 0 0 0 0 0 0 0 0 0
1 12 0 0 0 0 0 0 0 0 1 1 2 0 1 2 1 0 0 1 0 0 0 0 0 0 0 0 0 0 0 0 0 0 0 0 0 0 0 0 0 0 0 0 0 0 0
0 21 0 0 0 0 0 0 0 0 1 1 1 1 1 0 1 0 0 0 0 0 0 0 0 0 0 0 0 0 0 0 0 0 0 0 0 0 0 0 0 0 0 0 0 0 0
0 2 2 0 0 0 0 0 0 0 0 1 0 1 2 1 0 0 0 0 0 0 0 0 0 0 0 0 0 0 0 0 0 0 0 0 0 0 0 0 0 0 0 0 0 0 0
0 0 11 0 0 0 0 0 0 0 0 0 0 0 2 0 0 0 0 0 0 0 0 0 0 0 0 0 0 0 0 0 0 0 0 0 0 0 0 0 0 0 0 0 0 0 0
1 0 1 0 0 0 0 0 0 0 0 1 0 0 1 0 0 0 1 206 0 0 0 0 0 0 0 0 0 0 0 0 0 0 0 0 0 0 0 0 0 0 0 0 0 0 0
28 0 0 0 0 0 0 0 0 0 0 0 0 1 1 0 0 0 0 0 0 0 0 0 0 0 0 0 0 0 0 0 0 0 0 0 0 0 0 0 0 0 0 0 0 0 0
36 0 0 1 0 0 0 0 0 0 0 0 0 0 2 0 6 0 37 0 0 0 0 0 0 0 0 0 0 0 0 0 0 0 0 0 0 0 0 0 0 0 0 0 0 0 0
24 0 0 1 0 0 0 0 0 0 0 0 1 1 0 0 0 0 0 0 0 0 0 0 0 0 0 0 0 0 0 0 0 0 0 0 0 0 0 0 0 0 0 0 0 0 0
39 7 0 2 0 0 0 0 0 0 0 0 2 1 1 0 0 0 0 0 0 0 0 0 0 0 0 0 0 0 0 0 0 0 0 0 0 0 0 0 0 0 0 0 0 0 0
13 25 0 2 0 0 0 0 0 0 0 1 0 0 0 0 0 0 0 0 0 0 0 0 0 0 0 0 0 0 0 0 0 0 0 0 0 0 0 0 0 0 0 0 0 0 0
36 20 0 6 0 0 0 0 0 0 0 0 0 1 0 0 0 0 0 0 0 0 0 0 0 0 0 0 0 0 0 0 0 0 0 0 0 0 0 0 0 0 0 0 0 0 0
15 4 0 2 0 0 0 0 0 0 0 0 0 5 0 0 0 0 0 0 0 0 0 0 0 0 0 0 0 0 0 0 0 0 0 0 0 0 0 0 0 0 0 0 0 0 0
56 6 3 1 0 0 0 0 0 0 0 0 0 23 7 0 0 0 0 0 0 0 0 0 0 0 0 0 0 0 0 0 0 0 0 0 0 0 0 0 0 0 0 0 0 0 0
30 0 0 2 0 0 0 0 0 0 0 0 7 4 18 0 0 0 0 0 0 0 0 0 2 0 0 0 0 0 0 0 0 0 0 0 0 0 0 0 0 0 0 0 0 0 0
1 0 15 0 0 0 0 0 0 0 0 0 0 0 0 0 0 0 0 0 0 0 0 0 11 0 0 0 0 0 0 0 0 0 0 0 0 0 0 0 0 0 0 0 0 0 0
50 5 1 0 0 0 0 0 0 0 0 0 0 0 0 0 0 0 0 0 0 0 0 0 8 0 0 0 0 2 0 0 0 0 0 0 0 0 0 0 0 0 0 0 0 0 0
0 26 0 0 0 0 0 0 0 0 0 13 0 0 0 0 0 0 0 0 0 0 0 0 0 0 0 0 0 0 0 0 0 0 0 0 0 0 0 0 0 0 0 0 0 0 0
25 0 0 0 0 0 0 0 0 0 0 1 2 0 0 0 0 0 0 0 0 0 0 0 0 0 0 0 0 0 0 0 0 0 0 0 0 0 0 0 0 0 0 0 0 0 0
0 0 0 0 0 0 0 0 0 0 0 32 14 0 0 0 0 0 0 0 0 0 0 0 0 0 0 0 0 0 0 0 0 0 0 0 0 0 0 0 0 0 0 0 0 0 0
0 0 0 0 0 0 0 0 0 0 0 15 61 0 0 0 0 0 0 0 0 0 0 0 0 0 0 0 0 0 0 0 0 0 0 0 0 0 0 0 0 0 0 0 0 0 0
0 0 0 0 0 0 0 0 0 0 0 20 77 0 28 3 0 0 0 0 0 0 0 0 0 0 0 0 0 0 0 0 0 0 0 0 0 0 0 0 0 0 0 0 0 0 0
0 0 0 0 0 0 0 0 0 0 0 48 70 16 42 10 0 0 0 0 0 0 0 0 0 0 0 0 0 0 0 0 0 0 0 0 0 0 0 0 0 0 0 0 0 0 0
0 0 0 0 0 0 0 0 0 0 0 77 89 29 7 6 0 0 0 0 0 0 0 0 0 0 0 0 0 0 0 0 0 0 0 0 0 0 0 0 0 0 0 0 0 0 0

GFSGBSN_con_mlcape_006.txt.gz
CAPE
3 0 0 0 0 0 0 0 0 0 0 1 1 1 1 0 1 1 0 1 0 0 1 0 1 1 0 0 0 52 2 0 0 0 0 0 0 0 0 0 0 0 0 0 0 0 27
11 4 0 0 0 0 0 0 0 0 0 1 1 1 0 1 1 0 1 1 1 0 0 0 1 1 0 0 0 55 29 0 0 0 0 0 0 0 0 0 0 0 0 0 0 0 0
0 18 1 0 0 0 0 0 0 0 0 0 1 1 0 0 1 1 0 0 1 0 0 1 1 1 0 0 0 41 0 0 0 0 0 0 0 0 0 0 0 0 0 0 0 0 0
0 0 7 0 0 0 0 0 0 0 0 0 0 1 1 0 1 0 0 0 0 0 0 1 1 0 0 0 0 0 0 0 0 0 0 0 0 0 0 0 0 0 0 0 0 0 0
0 0 6 4 0 0 0 0 0 0 0 0 1 1 1 0 0 0 0 0 0 0 0 0 0 0 0 0 0 0 0 0 0 0 0 0 0 0 0 0 0 0 0 0 0 0 0
2 1 0 7 0 0 0 0 0 0 0 0 1 1 1 0 0 0 0 0 0 1 1 1 0 0 0 0 0 0 0 0 0 0 0 0 0 0 0 0 0 0 0 0 0 0 0
0 8 0 11 0 0 0 0 0 0 0 0 1 1 1 0 0 0 0 0 0 0 0 0 0 0 0 0 0 0 0 0 0 0 0 0 0 0 0 0 0 0 0 0 0 0 43
0 4 1 6 2 0 0 0 0 0 0 0 0 0 0 0 0 0 0 0 0 0 7 0 0 0 0 0 0 0 0 0 0 0 0 0 0 0 0 0 0 0 0 9 0 0 57
11 7 1 4 6 0 0 0 0 0 0 0 0 1 0 2 0 0 0 0 0 3 139 0 0 0 0 0 0 0 0 0 0 0 14 4 1 0 0 2 5 23 43 27 5 0 55
20 9 19 0 0 2 0 0 0 0 0 0 1 0 1 0 0 0 0 0 0 0 0 0 0 0 0 0 0 0 0 0 0 11 56 65 0 20 35 13 18 56 4 1 4 7 39
25 25 16 0 0 5 0 0 0 0 0 0 1 0 0 0 0 0 0 84 58 0 0 0 0 0 0 0 0 0 0 0 0 0 27 27 35 47 63 52 17 56 13 25 19 62 25
21 29 27 3 0 1 0 0 0 0 0 0 1 0 0 1 1 0 0 0 0 2 0 0 0 0 0 0 0 0 0 0 0 17 55 36 6 33 24 0 3 0 13 27 35 39 1
18 21 16 23 0 0 0 0 0 0 0 0 0 0 2 0 0 0 18 25 0 0 0 0 0 0 0 0 0 9 32 13 17 29 60 55 38 2 7 7 0 15 24 11 1 0 7
17 35 17 23 0 0 0 0 0 0 0 0 0 1 3 0 0 0 0 0 0 0 0 0 0 0 0 0 0 2 16 24 1 47 45 17 18 0 0 1 1 25 35 0 0 14 0
17 43 44 16 0 0 1 0 0 0 0 1 1 4 2 0 0 1 0 0 0 0 0 0 0 0 0 0 0 12 32 53 0 3 1 0 0 0 0 0 0 0 0 0 0 0 0
7 28 14 8 0 0 3 0 0 0 0 0 0 1 0 0 0 0 0 0 0 0 0 0 0 0 0 0 0 0 18 0 0 0 0 1 0 0 0 0 0 0 0 0 0 0 0
21 37 15 4 0 0 5 0 0 0 0 0 0 0 4 7 0 0 0 0 0 25 10 0 0 0 0 0 0 0 0 0 0 0 0 0 0 0 0 0 0 0 0 0 0 0 0
23 22 19 9 25 1 11 0 0 0 1 0 0 0 2 0 13 0 0 0 0 36 0 0 0 0 0 0 0 0 0 0 0 0 0 0 0 0 0 0 0 0 0 0 0 0 0
22 12 3 6 44 1 17 0 0 0 1 0 0 23 4 0 0 0 0 0 0 0 0 2 0 1 1 17 7 12 0 0 0 0 0 0 0 0 0 0 0 0 0 0 0 0 0
0 6 3 17 37 9 14 0 0 0 0 0 6 7 63 0 0 0 0 0 0 0 0 5 18 36 8 4 0 7 0 0 0 0 0 0 0 0 0 0 0 0 0 0 0 0 0
0 34 1 31 24 1 2 0 0 0 0 0 51 30 6 0 0 0 0 0 0 0 0 9 56 64 48 3 0 0 1 0 0 0 0 0 0 0 0 0 0 0 0 0 0 0 0
33 4 19 13 0 0 1 0 0 0 0 0 61 44 2 0 0 0 0 0 0 0 26 58 81 45 51 67 18 1 0 0 0 0 0 0 0 0 0 0 0 0 0 0 0 0 0
9 11 0 2 2 22 0 0 0 0 0 0 48 1 3 0 0 0 0 0 0 0 4 11 87 90 68 25 0 0 0 0 0 0 0 0 0 0 0 0 0 0 0 0 0 0 0
5 1 2 13 13 14 0 0 0 0 0 33 146 38 3 0 0 0 0 0 0 26 52 3 30 82 0 0 0 0 0 0 0 0 0 0 0 0 0 0 0 0 0 0 0 0 0
24 7 9 9 1 2 0 0 0 0 0 116 117 40 0 0 0 0 0 0 0 0 19 34 0 2 0 0 0 0 0 0 0 0 0 0 0 0 0 0 0 0 0 0 0 0 0
6 7 17 2 0 0 0 0 0 0 0 143 177 34 13 0 0 0 0 0 0 0 4 0 0 0 0 0 0 0 0 0 0 0 0 0 0 0 0 0 0 0 0 0 0 0 0
10 1 1 0 0 0 0 0 0 0 0 154 226 21 10 0 0 0 0 0 0 66 84 0 0 0 0 0 0 0 0 0 0 0 0 0 0 0 0 0 0 0 0 0 0 0 0
0 0 0 0 0 0 0 0 0 0 0 126 242 66 437 160 0 0 0 0 0 57 41 0 0 0 0 0 0 0 0 0 0 0 0 0 0 0 0 0 0 0 0 0 0 0 0
0 0 0 0 0 0 0 0 0 0 0 95 362 100 147 270 24 0 0 0 0 101 86 0 159 11 1 0 0 0 0 0 0 0 0 0 0 0 0 0 0 0 0 0 0 0 0

GFSGBSN_con_mlcape_009.txt.gz
CAPE
0 0 10 0 0 0 0 0 0 0 0 0 0 0 0 1 2 1 1 0 0 1 1 1 1 0 0 4 24 163 0 0 0 0 0 0 0 0 0 0 0 0 0 0 0 0 0
0 0 0 12 1 0 0 0 0 0 0 0 0 1 0 1 1 1 1 0 1 2 0 0 0 0 0 4 0 210 4 0 0 0 0 0 0 0 0 0 0 0 0 0 0 0 32
3 0 0 1 9 0 0 0 0 0 0 0 0 0 1 1 0 1 1 0 1 1 0 0 0 0 0 0 0 191 1 0 0 0 0 0 0 0 0 0 0 0 0 0 0 1 57
1 1 0 0 3 2 0 0 0 0 0 0 0 0 0 0 0 0 0 0 0 0 0 0 0 0 0 7 0 0 81 9 5 0 0 0 0 0 0 0 0 0 0 2 1 2 0
2 0 0 0 0 0 0 0 0 0 0 0 0 0 0 0 0 0 0 0 0 0 0 0 0 0 38 0 0 0 1 7 0 0 0 0 0 0 0 0 0 0 0 0 4 1 0
6 6 0 0 0 0 0 0 0 0 0 0 0 0 0 0 0 0 0 0 0 0 0 0 0 0 0 0 0 0 0 0 0 0 0 0 0 0 0 0 0 0 0 0 0 0 0
5 5 4 0 0 0 1 0 0 0 0 0 0 0 0 0 0 0 0 0 0 0 0 0 0 0 0 0 0 0 0 0 1 13 0 0 2 0 0 0 0 0 0 0 0 0 0
6 7 6 0 4 0 0 0 0 0 0 0 0 0 0 0 1 0 0 0 0 1 52 0 0 0 0 0 0 0 0 0 0 1 0 0 0 0 0 0 0 0 0 2 0 0 69
16 13 13 0 0 0 0 2 0 0 0 0 0 0 0 0 0 0 0 0 4 5 218 7 0 0 0 0 0 6 0 3 2 0 0 8 0 1 0 0 0 0 0 13 29 61 55
19 17 11 6 0 0 0 5 0 0 0 0 0 0 0 0 0 0 0 0 0 0 94 0 0 0 0 0 0 0 0 4 4 0 3 0 15 19 0 2 19 5 44 13 34 86 41
1 19 18 14 0 0 0 0 0 0 0 0 0 0 0 0 0 0 7 20 11 168 11 0 0 0 0 0 6 0 1 0 9 29 16 76 82 35 36 82 62 68 103 87 99 88 68
2 23 21 19 6 10 0 0 0 0 0 0 0 0 0 1 0 0 0 118 293 34 9 0 0 0 0 0 0 1 0 0 2 4 1 2 85 119 131 75 69 104 138 106 70 81 52
30 21 37 25 9 1 0 0 0 0 0 0 0 0 1 0 0 0 10 391 38 0 0 0 0 0 0 0 1 0 0 0 0 0 8 27 43 63 72 81 93 85 108 38 15 49 27
16 37 30 35 20 0 0 0 0 0 0 0 0 0 1 0 0 0 263 179 11 0 5 0 0 0 3 0 3 8 0 0 0 28 40 47 72 40 56 96 74 41 48 44 11 32 29
5 15 31 22 29 7 0 0 0 1 0 0 0 3 3 0 0 0 152 2 0 0 2 0 0 0 1 0 0 58 44 38 8 9 3 47 36 13 11 21 10 26 5 25 51 59 21
7 29 9 27 14 26 1 4 0 2 0 0 0 2 0 0 0 1 18 0 3 0 0 0 0 0 2 0 0 21 45 105 87 68 153 76 70 0 0 0 0 3 6 1 0 0 0
15 2 17 31 25 31 17 19 8 2 0 0 8 0 0 0 0 0 7 0 5 0 0 0 0 0 10 0 0 5 98 113 105 51 41 4 2 9 0 0 1 0 0 0 6 62 19
4 13 10 17 28 21 21 33 14 1 0 0 14 2 60 31 0 22 7 0 0 3 16 0 0 0 0 0 0 0 0 11 56 45 0 0 9 65 3 0 0 0 4 0 0 0 0
15 0 5 42 8 10 17 35 40 2 0 0 24 18 210 89 13 54 6 0 0 0 0 0 0 0 0 0 0 0 0 44 21 31 0 11 0 1 0 0 0 0 0 0 0 0 0
3 0 1 29 10 0 5 44 34 2 0 9 16 41 53 21 23 25 5 8 0 0 0 4 0 0 28 30 38 95 63 2 0 15 0 0 0 0 1 37 9 0 0 0 0 0 0
11 23 10 3 1 0 2 76 18 1 0 6 51 12 4 9 34 59 14 0 0 0 0 53 59 0 0 2 60 106 198 2 0 0 0 0 0 0 1 0 0 0 0 0 0 0 0
4 4 1 5 9 0 17 47 24 1 0 6 47 44 42 75 36 48 15 0 0 0 9 66 39 0 6 16 36 19 167 87 51 3 3 0 0 0 0 0 0 0 0 0 0 0 0
9 0 0 3 0 6 8 25 20 0 0 13 132 108 84 121 66 25 11 0 0 8 171 108 8 101 19 208 363 248 177 129 114 133 57 9 0 0 0 0 0 0 0 0 0 0 0
0 0 0 1 2 13 6 0 17 1 0 4 132 88 71 35 64 6 1 0 0 11 100 133 165 118 194 13 3 0 0 0 0 0 20 0 0 0 0 0 0 0 0 0 0 0 0
0 0 13 16 23 0 0 0 1 2 0 84 330 194 78 12 32 1 0 0 0 78 306 220 180 214 18 106 37 0 0 0 0 0 0 0 0 0 0 0 0 0 0 0 0 0 0
0 21 39 2 1 0 0 1 1 0 0 1 204 389 73 19 0 0 0 0 16 182 291 23 1 13 1 315 163 16 6 0 0 0 0 0 0 0 0 0 0 0 0 0 0 0 0
4 5 17 13 34 1 6 12 1 0 0 0 726 361 73 0 3 0 0 0 0 42 280 55 7 2 0 191 47 62 17 0 0 0 0 0 0 0 0 0 0 0 0 0 0 0 0
3 0 10 29 10 1 4 0 0 0 0 0 853 534 145 8 22 0 0 0 0 0 414 189 26 52 41 59 62 86 31 8 0 0 0 0 0 0 0 0 0 0 0 0 0 0 0
0 4 1 0 1 0 2 0 0 0 0 0 627 487 933 69 374 169 100 19 0 47 311 114 139 243 282 98 211 212 2 0 8 0 0 0 0 0 0 0 0 0 0 0 0 0 0

GFSGBSN_con_mlcape_015.txt.gz
CAPE
0 0 0 0 0 0 0 2 0 0 0 0 0 0 0 0 0 1 0 0 0 0 0 0 0 0 0 0 0 17 0 0 0 0 0 0 0 0 0 0 0 0 0 0 0 0 3
0 0 0 0 0 0 0 0 2 0 0 0 0 0 0 0 0 0 1 0 0 0 0 0 0 0 0 0 0 0 0 0 0 0 0 0 0 0 0 0 0 0 0 0 0 0 3
0 0 0 0 0 0 0 0 0 2 0 0 0 0 0 0 0 0 0 0 1 0 1 0 0 0 0 0 0 0 0 0 0 0 0 0 0 0 0 0 3 3 0 0 0 10 0
0 0 0 0 0 0 0 0 0 1 0 0 0 0 0 0 0 0 0 0 0 0 0 0 0 0 0 0 0 0 0 0 0 0 0 0 0 0 0 0 0 0 0 0 0 0 0
2 1 0 0 0 0 0 0 0 0 1 0 0 0 0 0 0 0 0 0 0 0 0 0 0 0 0 0 0 0 0 8 0 0 0 0 0 0 0 0 0 0 0 0 0 0 0
4 6 2 0 0 0 0 0 0 0 0 0 0 0 0 0 0 0 0 0 0 0 0 0 0 0 0 0 0 0 0 0 0 0 0 0 0 0 0 0 0 0 0 1 0 0 0
7 4 9 6 0 0 0 0 0 0 0 0 0 0 0 0 0 0 0 0 0 0 0 0 0 0 0 0 0 0 0 0 0 0 1 0 0 0 0 0 0 0 0 0 0 0 0
8 10 3 2 5 0 0 0 0 0 0 0 0 0 0 0 0 0 0 0 0 0 0 0 0 0 0 0 0 0 0 0 0 0 0 0 0 0 0 0 0 0 0 0 0 0 0
19 13 11 5 9 5 0 0 0 0 0 0 0 0 0 0 0 0 0 0 0 0 0 0 0 0 0 0 0 0 0 0 0 0 0 0 0 0 0 0 0 0 6 4 0 0 0
21 15 10 8 2 10 6 0 0 0 0 0 0 0 0 0 0 0 0 0 0 0 0 0 0 0 0 0 0 0 0 0 0 0 0 0 0 0 0 0 0 0 0 3 0 0 0
19 19 21 17 8 9 6 5 0 0 0 0 0 0 0 0 0 0 0 0 0 0 0 0 0 0 0 0 0 0 0 0 0 3 0 1 2 0 0 0 0 0 0 0 3 0 0
35 22 24 24 30 16 13 11 0 0 0 0 0 0 0 0 0 0 0 0 72 0 0 0 0 0 0 0 0 0 0 0 0 0 0 0 0 0 3 0 0 14 0 0 0 0 6
36 40 29 38 30 23 15 12 9 0 0 0 0 0 0 0 0 0 0 5 1 0 0 0 0 0 0 0 0 0 0 0 0 0 0 0 0 0 0 4 20 7 6 0 0 0 0
10 39 35 16 28 31 30 11 13 0 0 0 0 0 0 0 0 0 0 22 0 0 0 0 0 0 0 0 0 0 0 0 0 0 0 0 1 0 8 6 12 0 0 0 0 0 1
27 27 19 20 28 34 26 23 11 7 0 0 0 1 1 0 0 0 6 3 0 0 0 0 0 0 0 0 0 0 0 0 0 0 0 0 5 4 5 35 23 2 9 2 10 0 0
39 16 31 20 60 56 46 42 26 15 3 7 3 2 1 0 0 0 5 2 0 0 0 0 0 0 0 0 0 0 0 0 0 0 0 1 4 0 0 0 1 14 2 24 2 0 0
12 30 39 12 16 31 29 63 54 34 17 11 8 6 0 0 0 19 2 3 0 0 0 1 1 0 0 0 0 0 0 0 0 0 22 4 0 0 0 4 0 0 0 0 0 0 0
7 12 12 16 23 25 0 32 36 41 30 14 30 20 0 0 1 7 1 0 0 0 8 1 0 0 0 0 1 0 0 16 56 52 10 0 0 2 11 0 1 0 0 2 0 0 0
6 4 8 6 18 41 3 29 37 31 41 11 17 24 17 0 0 0 0 0 0 0 0 0 0 0 0 4 1 0 5 34 46 21 4 21 0 0 0 20 37 0 0 0 0 0 0
4 3 4 2 19 22 30 13 47 29 41 13 38 37 69 12 0 0 0 0 0 2 15 0 2 12 0 9 0 3 61 53 24 1 0 0 18 0 0 0 27 9 4 0 0 0 0
7 7 0 0 0 38 11 6 5 47 57 25 58 16 14 13 3 2 0 0 0 0 7 0 0 6 0 0 0 6 94 4 20 1 0 0 0 0 0 0 3 3 12 0 0 0 0
3 6 0 0 42 17 18 3 1 47 52 32 31 17 40 12 18 0 0 0 0 0 4 0 0 0 0 0 0 18 120 119 15 0 0 0 0 0 0 0 0 0 0 0 0 0 0
4 2 8 0 0 6 13 0 3 57 75 17 1 32 51 45 0 0 0 0 0 6 5 0 13 4 2 42 121 185 194 248 133 2 0 0 0 0 0 0 0 0 0 0 0 0 0
11 6 3 10 2 18 8 0 0 58 46 9 0 40 52 20 11 0 0 0 0 15 38 4 37 13 158 112 76 91 59 107 89 86 67 12 2 0 0 0 0 0 0 0 0 0 0
3 0 0 0 4 19 7 6 0 24 45 2 0 36 80 24 14 0 0 0 167 88 56 119 331 234 153 73 0 1 0 0 1 0 81 49 0 0 0 0 0 0 0 0 0 0 0
0 0 0 8 31 4 4 5 12 4 34 3 0 0 16 41 0 0 0 30 124 71 98 150 171 217 301 239 0 0 0 0 0 0 0 0 0 0 0 0 0 0 0 0 0 0 0
2 0 0 0 0 13 2 45 19 0 10 14 2 4 2 64 21 26 1 6 215 256 88 94 99 267 454 42 0 0 0 1 0 0 0 0 0 0 0 0 0 0 0 0 0 0 0
3 4 15 13 25 9 37 43 24 15 1 33 3 0 2 47 24 113 74 155 161 279 21 0 14 119 213 0 0 13 1 1 3 0 0 0 0 0 0 0 0 0 0 0 0 0 0
0 0 12 8 0 9 19 13 11 8 0 0 2 2 10 4 40 352 197 142 143 351 158 1 0 33 239 0 56 16 11 1 0 0 0 0 0 0 0 0 0 0 0 0 0 0 0

GFSGBSN_con_mlcape_018.txt.gz
CAPE
0 0 0 0 0 0 0 0 0 2 0 0 0 0 0 0 0 0 0 0 0 0 0 0 1 0 0 0 0 0 0 0 0 0 0 0 0 0 0 0 0 0 0 0 0 4 14
2 0 0 0 0 0 0 0 0 0 3 0 0 0 0 0 0 0 0 0 0 0 0 1 0 0 0 0 0 0 0 0 0 0 0 0 0 0 0 0 0 0 0 0 0 0 43
5 3 0 0 0 0 0 0 0 0 1 2 0 0 0 0 0 0 0 0 0 0 0 0 0 0 0 0 0 0 0 0 0 0 0 0 0 0 0 0 0 0 0 0 0 1 24
0 2 3 1 0 0 0 0 0 0 0 0 5 0 0 0 0 0 0 0 0 0 0 0 0 0 0 0 0 0 0 0 0 0 0 0 0 0 0 0 0 0 0 0 8 9 1
5 2 4 1 0 0 0 0 0 0 0 0 1 0 0 0 0 0 0 0 0 0 0 0 0 0 0 0 0 0 0 0 0 0 0 0 0 0 0 0 0 0 0 0 0 0 0
8 3 4 8 6 0 0 0 0 0 0 0 0 0 0 0 0 0 0 0 0 0 0 0 0 0 0 0 0 0 0 0 0 0 0 0 0 0 0 0 0 0 0 0 0 0 0
11 12 8 4 5 4 0 0 0 0 0 0 0 0 0 0 0 0 0 0 0 0 0 0 0 0 0 0 0 0 0 0 0 0 0 0 0 0 0 0 0 0 0 0 2 0 0
25 26 18 13 9 7 5 1 0 0 0 0 0 0 0 0 0 0 0 0 0 0 0 0 0 0 0 0 0 0 0 0 0 0 0 0 0 0 0 0 0 0 0 0 0 0 0
31 25 26 15 18 11 4 7 0 0 0 0 0 0 0 0 0 0 0 0 0 0 0 0 0 0 0 0 0 0 0 0 0 0 0 0 0 0 0 0 0 0 0 0 0 0 0
25 30 21 26 19 17 12 14 2 0 0 0 0 0 0 0 0 0 0 0 0 0 0 0 0 0 0 0 0 0 0 0 0 0 0 0 0 0 0 0 0 0 0 0 17 2 0
32 21 22 25 39 21 11 8 12 1 0 0 1 0 0 0 0 0 0 0 0 0 0 0 0 0 0 0 0 0 0 0 0 0 0 0 1 0 0 0 0 0 0 0 7 0 0
23 25 28 23 35 18 15 11 9 4 2 0 1 0 0 0 0 0 0 0 0 0 0 0 0 0 0 0 0 0 0 0 0 0 0 0 0 0 0 0 0 0 0 0 0 0 0
10 22 34 22 29 21 11 22 13 6 4 0 0 1 0 0 0 0 0 0 2 0 0 0 0 0 0 0 0 0 0 0 0 0 0 0 0 0 0 0 0 7 3 0 0 0 0
0 6 38 21 29 25 12 21 21 6 8 0 1 2 1 0 0 0 2 8 0 0 0 0 0 0 0 0 0 0 0 0 0 0 0 0 0 0 0 0 0 5 0 0 0 0 0
0 8 37 43 29 24 16 20 15 7 7 6 4 11 0 0 0 0 0 8 0 0 0 0 0 0 0 0 0 0 0 0 0 0 0 0 0 0 0 0 0 0 0 0 0 0 0
0 18 38 10 29 21 39 15 13 22 3 15 1 16 4 0 0 0 5 0 1 0 0 0 0 0 0 0 0 0 0 0 0 0 0 1 9 5 0 0 0 0 0 2 8 1 0
1 3 3 26 24 26 31 4 4 13 13 17 12 13 13 0 0 1 6 1 0 0 0 0 0 0 0 0 0 0 0 0 0 0 0 1 6 9 3 0 0 0 0 0 0 0 0
5 3 5 1 38 34 24 8 23 5 23 12 29 21 16 0 1 2 7 2 0 0 0 0 3 0 0 0 0 0 0 0 18 0 0 0 8 1 0 0 0 3 3 0 0 0 0
5 7 11 17 19 12 24 7 31 4 30 19 19 36 35 0 0 0 8 9 0 0 0 0 0 0 0 0 0 0 0 10 29 3 0 0 0 0 0 1 1 6 0 0 0 0 0
6 6 10 16 26 31 20 15 10 1 32 26 22 17 22 12 0 0 0 2 0 0 0 0 6 0 0 0 0 0 2 21 40 15 0 0 0 0 0 0 6 3 18 1 0 0 0
5 4 11 22 13 22 5 3 16 0 28 36 35 43 17 4 1 0 0 0 0 0 0 0 0 0 0 0 0 0 0 14 36 1 4 0 0 0 0 0 0 0 0 10 0 0 0
6 9 19 20 13 10 8 11 15 3 9 32 26 56 50 4 2 0 0 0 0 0 0 0 0 0 0 0 0 0 0 1 7 3 0 0 0 0 0 0 0 0 0 0 0 0 0
7 10 20 16 11 4 22 28 7 10 56 26 3 17 62 0 0 2 0 0 0 0 0 0 0 0 0 0 5 8 1 12 3 0 0 0 0 0 0 0 0 0 0 0 0 0 0
6 13 21 16 6 0 0 0 15 29 38 18 20 6 47 1 14 0 0 0 0 0 0 0 0 0 11 6 11 30 21 23 39 15 0 0 0 0 0 0 0 0 0 0 0 0 0
10 13 13 7 4 0 0 0 11 11 4 20 46 3 40 25 12 5 1 0 0 0 0 0 2 1 22 22 9 42 1 1 0 0 38 5 0 0 0 0 0 0 0 0 0 0 0
0 6 6 8 0 1 0 2 21 6 2 0 1 0 3 35 0 38 0 0 0 0 0 12 49 32 120 47 1 0 0 0 0 0 0 0 0 0 0 0 0 0 0 0 0 0 0
2 1 0 0 4 0 5 3 0 0 0 8 2 8 2 6 42 18 1 0 0 8 1 52 76 130 56 14 8 0 0 0 0 0 0 0 0 0 0 0 0 0 0 0 0 0 0
8 11 13 8 4 3 6 9 0 0 0 27 9 17 11 13 7 49 0 0 0 5 9 32 60 26 22 15 0 0 0 0 0 0 0 0 0 0 0 0 0 0 0 0 0 0 0
4 4 3 8 10 0 1 7 2 4 6 24 27 0 4 3 0 0 0 0 0 13 71 43 16 58 72 0 0 0 0 0 0 0 0 0 0 0 0 0 0 0 0 0 0 0 0

GFSGBSN_con_mlcape_021.txt.gz
CAPE
4 2 1 0 0 0 0 0 0 0 0 0 0 0 0 0 0 0 0 0 0 0 0 0 1 0 0 0 0 0 0 0 0 0 0 0 0 0 0 0 0 0 0 0 0 0 39
3 8 2 0 0 0 0 0 0 0 0 0 3 0 0 0 0 0 0 0 0 0 0 0 0 0 0 0 0 0 0 0 0 0 0 0 0 0 0 0 0 0 0 0 0 0 39
9 10 11 5 3 0 0 0 0 0 0 1 1 0 0 0 0 0 0 0 0 0 0 0 0 0 0 0 0 0 0 0 0 0 0 0 0 0 0 0 0 0 0 0 0 0 18
10 8 5 6 4 5 1 0 0 0 0 0 0 0 0 0 0 0 0 0 0 0 0 0 0 0 0 0 0 0 0 0 0 0 0 0 0 0 0 0 0 0 0 13 0 14 11
8 8 8 4 3 2 4 0 0 0 0 0 0 0 0 0 0 0 0 0 0 0 0 0 0 0 0 0 0 0 0 0 0 0 0 0 0 0 0 0 0 0 0 0 12 0 1
13 12 9 12 3 5 4 0 1 0 0 0 0 0 0 0 0 0 0 0 0 0 0 0 0 0 0 0 0 0 0 0 0 0 0 0 0 0 0 2 2 0 0 0 0 0 0
18 23 17 16 17 4 4 5 1 0 0 0 0 0 0 0 0 0 0 0 0 0 0 0 0 0 0 0 0 0 0 0 0 0 0 0 0 0 2 0 0 0 0 0 0 0 0
24 32 33 18 19 16 10 8 7 7 0 0 0 0 0 0 0 0 0 0 0 0 0 0 0 0 0 0 0 0 0 0 0 0 0 0 0 0 0 0 0 0 0 0 0 0 0
0 3 24 28 21 22 16 6 10 7 1 0 0 0 1 0 0 0 0 0 0 0 0 0 0 0 0 0 0 0 0 0 0 0 0 0 0 0 0 0 0 0 0 0 0 0 0
22 9 5 18 24 30 17 10 6 2 5 0 0 0 1 0 0 0 0 0 0 0 0 0 0 0 0 0 0 0 0 0 0 0 0 0 0 0 0 0 0 0 0 0 0 0 0
27 32 12 1 20 20 23 13 12 9 7 0 0 0 0 0 0 0 0 0 0 0 0 0 0 0 0 0 0 0 0 0 0 0 0 0 0 0 0 0 0 0 0 0 0 0 0
3 3 21 21 17 19 11 21 17 6 7 5 0 0 0 1 0 0 0 0 1 0 0 0 0 0 0 0 0 0 0 0 0 0 0 0 0 0 0 0 0 0 0 0 0 0 0
1 0 2 15 25 24 15 18 17 7 5 7 0 0 0 0 0 0 0 18 1 0 0 0 0 0 0 0 0 0 0 0 0 0 0 0 0 0 0 0 0 0 0 0 0 0 0
0 1 1 1 14 25 27 14 15 14 9 8 5 0 1 1 0 0 27 30 0 0 0 0 0 0 0 0 0 0 0 0 0 0 0 0 0 0 0 0 0 0 0 0 0 0 0
4 2 0 0 3 5 34 24 8 14 17 11 10 7 7 4 0 0 17 12 0 0 0 0 0 0 0 0 0 0 0 0 0 0 0 0 0 0 0 0 0 0 0 0 0 0 0
16 1 2 0 0 9 37 39 2 11 17 8 16 3 17 11 0 0 6 1 4 0 0 0 0 0 0 0 0 0 0 0 0 0 0 0 0 0 0 0 3 0 0 0 0 0 0
32 4 0 0 0 1 29 43 1 4 4 4 19 17 9 15 4 1 0 3 0 0 0 0 0 0 0 0 0 0 0 0 0 0 0 0 0 0 0 0 1 0 0 0 0 0 0
31 10 1 0 0 1 42 22 7 2 23 2 10 9 25 6 33 2 2 3 0 0 0 0 0 0 0 0 0 0 0 0 0 0 0 0 0 0 0 0 0 0 0 0 0 0 0
40 17 3 0 2 21 44 17 19 15 15 11 3 43 55 3 6 2 2 0 1 0 0 0 0 0 0 0 0 0 0 0 0 0 0 0 0 0 0 0 0 0 0 0 0 0 0
49 17 4 0 11 12 18 28 16 0 2 22 19 24 32 23 2 3 3 0 0 0 0 0 0 0 0 0 0 0 0 2 0 0 0 0 0 0 0 0 6 5 27 5 0 0 0
62 14 3 5 9 13 5 12 6 4 13 18 36 22 9 4 3 2 4 0 0 0 0 0 0 0 0 0 0 0 1 1 12 0 0 0 0 0 0 0 0 3 4 0 0 0 0
59 4 4 5 9 26 18 15 25 1 57 17 14 43 36 0 4 6 7 3 0 0 0 0 0 0 0 0 0 0 0 0 5 0 0 0 0 0 0 0 0 0 0 0 0 0 0
68 4 4 4 9 28 21 17 12 1 57 2 8 1 35 0 0 6 0 0 0 0 0 0 0 0 0 0 0 0 4 0 11 6 0 0 0 0 0 0 0 0 0 0 0 0 0
40 5 2 9 13 31 18 11 1 25 3 0 14 1 45 2 0 0 0 2 0 0 0 0 0 0 0 0 0 1 0 4 0 3 0 0 0 0 0 0 0 0 0 0 0 0 0
4 5 10 8 20 25 16 2 4 9 19 0 4 7 26 36 0 1 0 0 1 0 0 0 0 0 0 4 17 46 25 21 0 0 0 0 0 0 0 0 0 0 0 0 0 0 0
3 7 9 10 29 14 5 0 6 28 7 0 9 8 7 14 0 9 0 0 0 0 0 0 0 0 0 0 2 39 35 10 4 0 0 0 0 0 0 0 0 0 0 0 0 0 0
12 12 11 19 24 12 2 3 1 12 0 0 12 37 21 3 33 33 13 0 0 0 0 0 6 3 0 0 5 21 6 0 0 0 0 0 0 0 0 0 0 0 0 0 0 0 0
7 6 12 26 28 14 0 0 1 16 13 9 2 4 2 0 0 5 33 17 0 0 0 0 15 13 0 10 6 4 0 0 0 0 0 0 0 0 0 0 0 0 0 0 0 0 0
12 18 18 9 1 3 12 10 12 49 20 14 5 13 8 3 0 0 0 0 0 0 0 1 0 1 10 3 0 0 0 0 0 0 0 0 0 0 0 0 0 0 0 0 0 0 0

GFSGBSN_con_mlcape_024.txt.gz
CAPE
5 4 7 7 3 5 3 1 0 0 0 0 1 0 0 0 0 0 0 0 0 0 0 0 0 0 0 0 0 0 0 0 0 0 0 0 0 0 0 0 0 0 0 0 0 0 57
6 3 3 7 6 4 3 0 0 0 0 0 1 2 0 0 0 0 0 0 0 0 0 0 0 0 0 0 0 0 0 0 0 0 0 0 0 0 0 0 0 0 0 0 0 1 71
3 5 3 4 5 4 4 2 0 0 0 0 0 0 3 0 0 0 0 0 0 0 0 0 0 0 0 0 0 0 0 0 0 0 0 0 0 0 0 0 0 0 0 0 0 45 61
10 7 10 6 4 6 4 3 1 1 0 0 0 1 1 2 0 0 0 0 0 0 0 0 0 0 0 0 0 0 0 0 0 0 0 0 0 0 0 0 0 0 0 0 0 10 34
25 10 9 9 10 8 6 5 3 0 0 0 0 0 1 5 2 0 0 0 0 0 0 0 0 0 0 0 0 0 0 0 0 0 0 0 0 0 0 0 0 0 0 7 10 21 36
2 28 12 13 8 6 9 5 5 2 0 0 0 0 0 3 0 0 0 0 0 0 0 0 0 0 0 0 0 0 0 0 0 0 0 0 0 0 0 0 4 0 0 0 11 0 2
21 9 14 18 13 14 18 12 10 9 2 0 0 0 0 1 0 0 0 0 0 0 0 0 0 0 0 0 0 0 0 0 0 0 0 0 0 0 0 0 0 1 0 0 0 0 1
36 21 7 7 23 16 15 21 10 6 8 2 0 0 0 0 0 0 0 0 0 0 0 0 0 0 0 0 0 0 0 0 0 0 0 0 0 0 0 0 0 0 0 0 0 0 0
19 12 31 11 6 25 18 16 18 6 6 6 0 0 0 0 0 0 0 0 0 0 0 0 0 0 0 0 0 0 0 0 0 0 0 0 0 0 0 0 2 0 0 0 0 0 0
8 12 6 32 30 16 21 12 10 10 3 11 3 0 0 0 0 0 0 0 0 0 0 0 0 0 0 0 0 0 0 0 0 0 0 0 0 0 0 0 0 0 0 0 0 0 0
8 6 2 0 22 38 15 24 12 5 4 4 1 0 0 2 0 0 0 0 0 0 0 0 0 0 0 0 0 0 0 0 0 0 0 0 0 0 0 0 0 0 0 0 0 0 0
5 6 5 3 0 12 26 18 16 10 7 4 6 1 0 1 1 0 0 0 1 0 0 0 0 0 0 0 0 0 0 0 0 0 0 0 0 0 0 0 0 0 0 0 0 0 0
24 10 13 1 1 8 7 4 26 9 13 9 3 4 0 6 6 0 0 0 2 0 0 0 0 0 0 0 0 0 0 0 0 0 0 0 0 0 0 0 0 0 0 0 0 0 0
29 31 27 11 1 2 2 6 9 15 15 13 4 7 0 1 2 0 3 0 0 0 0 0 0 0 0 0 0 0 0 0 0 0 0 0 0 0 0 0 0 0 0 0 0 0 0
20 27 30 14 1 4 0 2 7 14 16 14 4 5 2 0 0 0 22 0 0 0 0 0 0 0 0 0 0 0 0 0 0 0 0 0 0 0 0 0 0 0 0 0 0 0 0
22 16 27 24 5 1 0 0 17 24 7 11 8 11 1 1 1 4 12 1 0 0 0 1 0 0 0 0 0 0 0 0 0 0 0 0 0 0 0 0 0 0 0 0 0 0 0
24 25 16 29 3 0 1 0 8 25 5 10 30 9 0 37 24 20 4 6 0 0 0 0 0 0 0 0 0 0 0 0 0 0 0 0 0 0 0 0 0 0 0 0 0 0 0
18 47 33 36 13 0 1 0 4 8 6 17 39 0 13 37 22 10 6 1 0 0 5 0 0 0 0 0 0 0 0 0 0 0 0 0 0 0 0 0 0 0 0 0 0 0 0
18 25 28 48 21 2 0 0 1 11 3 4 3 16 41 17 3 3 9 6 2 0 0 0 0 0 0 0 0 0 0 0 0 0 0 0 0 0 0 0 0 0 0 0 0 0 0
28 32 32 61 25 5 0 0 8 29 4 1 8 0 45 29 0 0 2 4 3 0 0 0 0 0 0 0 0 0 0 0 0 0 0 0 0 0 0 0 0 0 0 0 0 0 0
28 19 25 18 17 3 1 4 23 57 5 15 6 0 12 4 3 0 0 0 1 0 0 0 0 0 0 0 0 0 0 0 0 0 0 0 0 0 0 0 0 0 0 0 0 0 0
22 17 13 24 34 2 2 26 30 14 18 10 4 8 50 4 3 6 13 6 0 0 0 0 0 0 0 0 0 0 0 0 0 0 0 0 0 0 0 0 0 0 0 0 0 0 0
34 17 16 1 4 3 7 36 19 8 33 10 0 3 50 5 1 3 0 1 0 0 0 0 0 0 0 0 0 0 0 0 0 0 0 0 0 0 1 0 0 0 0 0 0 0 0
35 17 28 7 3 8 17 27 5 3 7 0 0 4 42 15 4 0 0 7 5 0 0 0 0 0 0 0 0 0 0 0 0 0 0 0 0 0 1 0 0 0 0 0 0 0 0
21 29 33 42 9 11 28 17 2 8 2 0 0 0 22 19 2 10 2 0 2 0 0 0 0 0 0 0 0 0 8 11 0 0 0 0 0 0 0 0 0 0 0 0 0 0 0
44 32 2 49 10 18 28 28 3 9 0 0 0 0 4 8 0 17 11 5 0 0 0 0 0 0 0 0 0 0 21 8 6 0 0 0 0 0 0 0 0 0 0 0 0 0 0
0 0 30 9 7 16 15 16 14 10 13 0 0 0 1 1 5 22 10 0 0 0 0 0 0 0 0 0 0 0 0 0 21 2 3 0 0 0 0 0 0 0 0 0 0 0 0
0 22 7 9 9 13 10 15 12 11 21 6 0 0 7 3 0 4 29 0 0 0 0 0 0 0 0 0 0 0 0 0 0 0 0 9 13 0 0 0 0 0 0 0 0 0 0
2 7 10 14 10 12 14 15 16 19 28 1 0 0 0 7 3 0 0 0 0 0 0 0 0 0 0 0 0 0 0 0 0 0 0 0 0 0 0 0 0 0 0 0 0 0 0

GFSGBSN_con_mlcape_027.txt.gz
CAPE
5 7 3 4 6 4 0 3 5 0 0 0 0 0 0 7 1 0 0 0 0 0 0 0 0 0 0 0 0 0 0 0 0 0 0 0 0 0 0 0 0 0 0 0 0 0 0
7 7 6 4 2 2 4 2 4 0 0 0 0 0 0 3 3 0 0 0 0 0 0 0 0 0 0 0 0 0 0 0 0 0 0 0 0 0 0 0 0 0 0 0 0 20 79
32 6 5 6 3 3 2 1 2 2 1 0 0 0 0 1 4 2 0 0 0 0 0 0 0 0 0 0 0 0 0 0 0 0 0 0 0 0 0 0 0 0 0 0 0 62 134
13 14 24 7 7 6 3 2 2 2 2 1 0 0 0 0 0 5 0 0 0 0 0 0 0 0 0 0 0 0 0 0 0 0 0 0 0 0 0 0 0 0 0 16 0 49 62
15 15 14 22 9 6 4 3 2 2 2 3 0 0 0 0 0 8 0 0 0 0 0 0 0 0 0 0 0 0 0 0 0 0 0 0 0 0 0 0 0 0 0 9 1 19 71
22 24 15 25 11 15 8 6 5 1 3 3 3 0 0 0 0 1 0 0 0 0 0 0 0 0 0 0 0 0 0 0 0 0 0 0 0 0 0 0 2 0 0 0 51 14 16
11 8 21 22 20 21 20 8 7 4 1 3 1 2 0 0 0 0 0 0 0 0 0 0 0 0 0 0 0 0 0 0 0 0 0 0 0 0 0 0 0 0 0 0 0 0 10
15 11 3 9 24 19 20 22 7 8 7 3 2 2 0 0 1 0 0 0 0 0 0 0 0 0 0 0 0 0 0 0 0 0 0 0 0 0 0 0 0 0 0 0 0 0 0
16 16 14 11 4 13 19 12 18 6 6 6 4 3 0 0 1 0 0 0 0 0 0 0 0 0 0 0 0 0 0 0 0 0 0 0 0 0 0 0 0 0 0 0 0 0 0
10 19 8 7 3 3 9 21 7 13 8 6 2 8 1 0 0 0 0 0 0 0 0 0 0 0 0 0 0 0 0 0 0 0 0 0 0 0 0 0 0 0 0 0 0 0 0
9 2 8 10 5 1 0 14 24 5 15 10 2 4 2 0 0 0 0 0 0 0 0 0 0 0 0 0 0 0 0 0 0 0 0 0 0 0 0 0 0 0 0 0 0 0 0
27 26 13 14 18 5 1 0 12 7 12 13 5 2 0 0 2 0 0 0 0 0 0 0 0 0 0 0 0 0 0 0 0 0 0 0 0 0 0 0 0 0 0 0 0 0 0
23 19 16 18 19 17 4 0 0 30 0 23 12 5 5 3 3 0 0 0 0 0 0 0 0 0 0 0 0 0 0 0 0 0 0 0 0 0 0 0 0 0 0 0 0 0 0
26 19 17 13 20 18 15 1 0 4 18 3 7 17 20 0 24 0 5 12 0 0 0 0 0 0 0 0 0 0 0 0 0 0 0 0 0 0 0 0 0 0 0 0 0 0 0
7 16 16 14 16 23 21 5 1 0 16 1 5 14 9 14 0 0 20 10 0 0 0 0 0 0 0 0 0 0 0 0 0 0 0 0 0 0 0 0 0 0 0 0 0 0 0
12 14 12 19 14 15 18 10 1 0 6 8 5 8 12 19 1 6 11 2 0 0 0 0 0 0 0 0 0 0 0 0 0 0 0 0 0 0 0 0 0 0 0 0 0 0 0
29 24 30 16 16 14 18 15 4 0 15 26 4 6 0 25 26 27 1 1 0 0 0 0 0 0 0 0 0 0 0 0 0 0 0 0 0 0 0 0 0 0 0 0 0 0 0
5 36 63 33 25 16 25 12 0 0 20 44 5 0 0 7 15 5 3 0 0 0 0 0 0 3 2 0 0 0 0 0 0 0 0 0 0 0 0 0 0 0 0 0 0 0 0
0 14 11 37 21 28 31 8 2 2 17 16 1 5 7 0 7 3 3 4 0 0 0 0 0 5 12 6 0 0 0 0 0 0 0 0 0 0 0 0 0 0 0 0 0 0 0
13 12 6 0 15 31 42 5 2 2 25 4 3 2 61 7 0 0 5 7 9 0 0 0 0 1 5 9 1 0 0 0 0 0 0 0 0 0 0 0 0 0 0 0 0 0 0
14 21 20 8 5 7 42 6 4 14 40 4 3 5 20 2 9 5 1 0 0 0 0 0 0 0 1 0 1 0 0 0 0 0 0 0 0 0 0 0 0 0 0 0 0 0 0
45 38 31 15 10 1 30 3 5 19 33 14 0 0 21 0 0 6 11 11 1 0 0 0 0 0 0 0 3 9 0 0 0 0 0 0 0 0 0 0 0 0 0 0 0 0 0
52 45 31 22 11 6 14 9 8 29 42 16 1 0 10 1 0 3 3 13 22 0 0 0 0 0 0 0 0 0 0 0 0 0 0 0 0 0 0 0 0 0 0 0 0 0 0
8 45 58 32 29 17 1 13 8 29 12 8 0 6 9 22 3 0 0 21 10 0 0 0 0 0 0 0 0 0 0 0 0 0 0 0 0 0 0 0 0 0 0 0 0 0 0
17 39 39 31 39 16 4 24 11 19 18 11 0 2 25 20 0 0 3 2 37 13 0 0 0 0 0 0 7 0 0 0 0 0 0 0 0 0 0 0 0 0 0 0 0 0 0
22 6 28 42 39 25 19 16 10 12 42 10 0 3 21 18 26 0 5 1 1 11 2 0 0 0 0 0 0 0 0 0 0 0 0 0 0 10 0 0 0 0 0 0 0 0 0
11 16 36 26 28 1 31 2 13 23 31 1 0 0 14 31 18 29 17 1 10 14 0 0 0 0 0 0 0 0 0 0 2 2 0 0 0 0 0 0 0 0 0 0 0 0 0
19 23 22 19 3 23 2 13 17 14 16 0 0 0 0 12 4 0 13 18 9 0 0 0 0 0 0 0 0 0 0 0 0 0 0 0 0 0 0 0 0 0 0 0 0 0 0
9 14 0 1 29 3 9 15 8 16 12 0 0 0 0 0 2 5 1 0 0 2 0 0 0 0 0 0 0 0 2 0 0 0 0 0 0 0 0 0 0 0 0 0 0 0 0

GFSGBSN_con_mlcape_030.txt.gz
CAPE
20 9 8 5 5 4 4 4 2 3 0 0 0 0 0 0 0 7 1 0 0 0 0 0 0 0 0 0 0 0 0 0 0 0 0 0 0 0 0 0 0 0 0 0 0 0 197
9 12 18 3 3 5 7 5 2 3 2 2 0 0 0 0 0 1 2 0 0 0 0 0 0 0 0 0 0 0 0 0 0 0 0 0 0 0 0 0 0 0 0 0 0 22 369
12 9 4 21 4 2 3 4 1 2 2 2 2 0 0 0 0 0 0 0 0 0 0 0 0 0 0 0 0 0 0 0 0 0 0 0 0 0 0 0 0 0 0 4 0 257 276
22 20 14 4 10 16 3 2 5 1 2 3 2 1 0 0 0 0 0 0 0 0 0 0 0 0 0 0 0 0 0 0 0 0 0 0 0 0 0 0 0 0 0 30 32 144 260
11 16 21 19 9 7 6 6 2 3 2 1 2 1 0 0 0 0 0 0 0 0 0 0 0 0 0 0 0 0 0 0 0 0 0 0 0 0 0 0 0 0 6 17 3 76 272
18 10 9 13 14 11 11 9 10 3 2 1 1 3 3 0 0 0 0 0 0 0 0 0 0 0 0 0 0 0 0 0 0 0 0 0 0 0 0 0 8 14 4 9 14 104 142
11 23 18 8 6 12 15 12 15 7 3 2 2 5 3 0 0 1 0 0 0 0 0 0 0 0 0 0 0 0 0 0 0 0 0 0 0 0 0 0 0 0 0 5 4 11 90
23 25 16 23 16 9 4 15 6 1 5 3 3 2 2 0 0 0 1 0 0 0 0 0 0 0 0 0 0 0 0 0 0 0 0 0 0 0 0 0 0 3 3 8 0 0 2
11 18 9 15 26 26 11 3 3 5 0 4 5 3 3 1 0 1 1 0 0 0 0 0 0 0 0 0 0 0 0 0 0 0 0 0 0 0 0 0 0 10 13 1 1 0 0
8 11 12 8 6 14 25 11 2 1 1 1 3 7 8 4 0 2 0 0 0 0 0 0 0 0 0 0 0 0 0 0 0 0 0 0 0 0 0 0 0 0 0 4 0 0 8
13 14 18 17 17 15 18 18 4 0 0 0 11 7 9 5 2 6 0 0 0 0 0 0 0 0 0 0 0 0 0 0 0 0 0 0 0 0 0 0 0 11 0 3 17 0 1
17 20 26 23 25 25 15 18 10 2 0 8 0 6 17 9 4 1 0 1 0 0 0 0 0 0 0 0 0 0 0 0 0 0 0 0 0 0 0 0 0 0 0 3 9 11 0
20 18 16 24 27 23 37 23 15 4 0 0 3 10 4 15 2 0 2 40 2 0 0 0 0 0 0 0 0 0 0 0 0 0 0 0 0 0 0 0 0 0 0 10 17 10 8
19 12 19 26 27 28 32 30 23 13 1 0 8 15 7 0 3 0 19 64 0 0 0 0 0 0 0 0 0 0 0 0 0 0 0 0 0 0 0 0 0 0 0 3 5 15 16
42 38 27 38 34 32 36 40 23 13 3 2 15 0 27 15 0 3 46 10 0 0 0 0 0 0 0 0 0 0 0 0 0 0 0 0 0 0 0 0 0 0 0 5 7 0 0
39 35 33 28 27 35 26 37 37 24 7 8 1 5 13 30 2 2 11 7 0 0 0 0 0 0 0 0 0 0 0 0 0 0 0 0 0 0 0 4 0 6 2 0 3 5 0
48 30 20 16 15 22 28 25 39 25 8 26 9 5 4 16 45 3 14 0 0 0 0 23 0 0 0 0 0 0 0 0 0 0 0 0 0 0 0 6 27 2 1 0 20 1 1
27 6 1 4 19 19 15 17 37 24 12 28 17 3 9 23 20 4 1 0 0 0 14 14 28 7 0 0 0 0 0 0 0 0 0 0 0 0 0 2 2 19 20 26 20 12 0
30 3 0 1 0 35 31 25 29 22 11 14 7 17 24 6 4 27 0 0 7 19 9 40 17 29 59 17 0 0 0 0 0 0 0 0 0 0 0 0 0 2 5 11 16 0 0
5 0 0 0 0 11 29 36 28 20 13 8 14 12 12 19 0 19 0 0 4 23 15 103 24 59 59 54 2 0 0 0 0 0 0 0 0 0 0 0 1 0 0 3 7 0 0
13 5 8 2 0 0 3 14 41 18 11 11 9 3 5 4 9 0 0 0 0 16 22 86 3 1 55 64 21 0 0 0 0 0 0 0 0 0 0 0 0 0 0 0 0 0 0
7 27 20 18 3 3 11 13 49 17 16 11 2 17 18 3 0 0 5 0 0 2 1 3 3 9 71 68 9 19 0 0 19 0 0 0 0 0 0 0 0 0 0 0 0 0 0
11 15 24 32 22 9 18 10 46 19 19 4 1 4 29 14 7 1 1 1 0 3 1 0 0 0 8 6 0 6 0 0 0 20 0 0 0 0 0 0 0 0 0 0 0 0 0
41 78 74 32 39 11 34 9 26 23 11 1 5 12 28 16 23 0 0 14 11 1 0 2 9 5 4 2 16 2 0 0 6 2 8 6 0 13 5 0 0 0 0 0 0 0 0
15 11 85 35 40 24 33 11 19 17 14 8 21 17 25 7 3 0 0 22 44 35 1 0 27 11 2 49 2 0 0 0 0 9 8 6 17 4 6 0 0 0 0 0 0 0 0
4 22 45 24 38 42 41 4 26 9 12 9 15 1 26 10 22 26 5 12 26 50 26 5 17 25 20 74 67 3 0 0 8 5 0 0 0 45 0 3 0 0 0 0 0 0 47
5 13 8 15 35 32 11 1 27 12 16 10 18 0 2 13 35 52 28 31 11 35 20 15 33 23 26 34 45 2 4 3 0 22 12 0 0 5 14 12 0 0 0 0 0 0 23
25 9 4 30 10 14 2 0 22 14 21 2 2 11 24 16 42 36 62 47 27 64 18 18 27 6 1 4 10 9 3 18 4 0 11 23 5 0 8 2 0 0 0 0 21 1 0
0 8 12 5 14 7 1 14 4 21 29 3 3 31 52 42 9 0 0 0 30 27 18 21 0 0 0 0 0 2 0 1 13 5 1 2 23 45 0 0 33 0 0 0 0 0 0

GFSGBSN_con_mlcape_033.txt.gz
CAPE
4 2 5 16 6 3 6 6 2 2 2 2 0 0 0 0 0 0 0 1 0 0 0 0 0 0 0 0 0 0 0 0 0 0 0 0 0 0 0 0 0 0 0 0 0 0 229
11 10 6 3 2 15 6 6 3 2 1 2 1 1 1 0 0 0 0 0 0 0 0 0 0 0 0 0 0 0 0 0 0 0 0 0 0 0 0 0 0 1 0 0 0 0 139
9 15 15 11 0 0 8 4 2 2 2 1 1 2 0 0 0 0 0 0 0 0 0 0 0 0 0 0 0 0 0 0 0 0 0 0 0 0 0 0 1 0 0 0 0 5 38
9 14 8 11 14 4 0 0 6 2 2 3 2 1 2 0 0 0 0 0 0 0 0 0 0 0 0 0 0 0 0 0 0 0 0 0 0 0 0 0 0 0 0 0 1 42 94
9 12 7 8 9 13 5 2 1 1 5 3 3 1 2 2 0 0 0 0 0 0 0 0 0 0 0 0 0 0 0 0 0 0 0 0 0 0 0 0 2 1 5 3 22 0 108
11 11 14 17 7 5 8 11 5 2 0 5 2 3 2 3 0 0 0 0 0 0 0 0 0 0 0 0 0 0 0 0 0 0 0 0 0 0 0 2 0 6 7 11 10 12 21
15 13 14 9 6 11 6 8 5 3 2 0 3 3 3 2 3 0 0 0 0 0 0 0 0 0 0 0 0 0 0 0 0 0 0 0 0 0 0 2 0 2 5 21 12 0 5
22 18 19 19 17 11 9 13 8 5 3 3 1 2 4 3 4 0 2 0 0 0 0 0 0 0 0 0 0 0 0 0 0 0 0 0 0 0 0 0 0 1 13 19 20 0 0
10 9 13 18 23 15 7 13 16 7 1 0 2 4 3 2 5 0 0 0 0 0 0 0 0 0 0 0 0 0 0 0 0 0 0 0 0 0 0 0 0 3 22 26 21 2 0
1 4 7 13 18 10 18 9 8 11 6 0 1 0 7 4 1 0 0 0 0 0 0 0 0 0 0 0 0 0 0 0 0 0 0 0 0 0 0 0 0 6 1 1 0 0 8
3 2 0 2 4 12 15 21 15 11 0 2 0 0 14 3 3 2 29 5 0 9 0 0 0 0 0 0 0 0 0 0 0 0 0 0 0 0 0 0 0 17 1 22 36 32 24
16 12 12 11 8 6 19 19 22 26 14 0 0 1 2 24 9 0 0 49 120 0 0 0 0 0 0 0 0 0 0 0 0 0 0 0 0 0 0 0 0 5 0 11 34 9 34
9 17 24 21 22 9 11 28 22 22 29 9 1 0 0 39 20 0 0 19 4 0 0 0 0 0 0 0 0 0 0 0 0 0 0 0 0 0 0 5 0 0 4 31 36 39 19
25 21 18 19 23 32 23 23 32 12 27 17 7 0 1 15 45 9 0 39 0 0 0 0 0 0 0 0 0 0 0 0 0 0 0 0 0 0 0 0 5 0 2 13 12 26 111
26 25 28 27 17 18 25 30 33 30 22 27 12 5 13 0 37 20 2 62 0 0 0 0 0 0 0 0 0 0 0 0 0 0 0 0 0 0 0 0 0 7 13 0 15 14 51
22 21 34 28 30 22 17 14 36 42 22 19 24 16 11 2 42 15 6 20 0 0 0 0 0 0 0 0 0 0 0 0 0 0 0 0 14 2 0 0 4 0 26 13 12 37 17
28 30 37 29 51 38 30 27 31 33 27 13 11 11 2 31 56 60 3 10 0 0 0 0 0 7 0 15 0 0 0 0 0 0 0 1 1 11 7 0 2 0 1 8 19 28 64
15 13 12 19 20 29 42 37 26 34 30 14 7 2 10 15 45 8 3 0 0 0 0 0 4 32 0 1 7 0 0 0 0 0 0 0 3 0 10 0 0 16 8 24 28 58 79
12 2 0 8 22 30 6 28 32 26 27 9 1 11 29 22 8 3 0 0 0 0 0 0 0 2 49 10 2 8 1 0 0 0 0 0 0 4 16 7 7 0 14 24 24 48 19
17 4 6 0 1 8 11 18 30 23 23 7 1 0 24 50 13 11 1 0 0 0 0 0 0 34 3 22 32 12 4 2 0 0 0 0 0 0 0 0 2 0 0 26 34 48 42
7 10 9 4 0 7 7 5 23 45 16 4 2 0 5 18 11 5 0 0 0 0 0 6 4 41 29 18 16 32 18 0 0 1 1 0 0 0 0 0 9 3 0 6 37 35 38
3 3 7 11 6 3 15 9 15 67 14 3 0 4 32 2 10 12 9 0 0 0 0 24 32 22 1 59 87 45 39 19 0 1 2 2 0 0 0 0 0 3 1 5 19 26 29
0 4 10 12 12 10 13 12 12 5 28 1 4 1 11 8 6 26 6 0 0 0 0 19 13 54 19 0 99 17 0 0 0 8 16 8 8 7 0 2 1 0 0 4 1 0 1
7 8 13 23 18 13 17 14 25 13 37 0 1 0 27 6 11 0 0 1 0 0 0 1 43 79 64 33 7 1 0 0 0 0 17 67 41 67 9 6 12 0 0 0 0 0 0
0 4 19 41 38 16 34 36 16 5 44 0 2 13 29 38 0 4 6 11 9 2 27 64 35 25 41 98 36 0 0 0 0 0 0 64 113 52 16 5 0 0 0 1 0 0 0
22 68 30 53 68 25 29 36 37 18 5 3 8 10 44 20 21 9 7 22 9 12 74 94 86 277 223 105 31 0 0 0 0 3 0 7 127 75 42 14 1 0 0 7 0 0 0
0 29 65 77 96 109 26 45 17 0 27 5 9 12 32 18 29 15 2 3 0 30 52 60 190 205 154 68 97 4 19 0 2 0 0 3 25 57 50 30 0 0 16 53 6 7 61
1 0 9 11 50 75 35 26 0 0 12 12 5 80 44 37 20 16 27 24 16 36 66 48 70 91 116 63 12 0 32 28 13 0 1 7 17 41 71 25 2 0 2 15 0 14 71
11 2 8 12 28 22 23 13 4 7 18 12 13 34 40 35 11 55 71 93 88 69 100 171 3 24 28 2 0 0 25 52 36 22 4 0 54 79 86 39 66 59 28 33 5 40 91

GFSGBSN_con_mlcape_036.txt.gz
CAPE
9 9 4 0 0 0 14 10 4 2 2 3 2 1 0 0 0 0 0 0 0 1 0 0 0 0 0 0 0 0 0 0 0 0 0 0 0 0 0 0 0 0 0 0 0 0 3
8 9 8 5 2 0 0 1 10 4 2 2 3 1 2 1 0 0 0 0 0 0 0 0 0 0 0 0 0 0 0 0 0 0 0 0 0 0 0 0 0 0 0 0 0 0 19
12 8 5 4 5 3 0 0 0 1 6 2 3 2 2 3 1 0 0 0 0 0 0 0 0 0 0 0 0 0 0 0 0 0 0 0 0 0 0 0 0 0 0 0 0 0 20
6 10 18 7 5 1 1 1 0 0 0 4 4 3 3 2 2 0 0 0 0 0 0 0 0 0 0 0 0 0 0 0 0 0 0 0 0 0 0 0 0 0 0 0 2 5 0
7 6 5 6 12 5 3 0 1 0 1 1 4 5 3 3 3 2 0 0 0 0 0 0 0 0 0 0 0 0 0 0 0 0 0 0 0 0 0 0 0 0 0 0 7 14 44
11 10 10 8 6 6 10 6 5 1 0 0 4 4 4 3 3 2 0 0 0 0 0 0 0 0 0 0 0 0 0 0 0 0 0 0 0 0 0 0 0 0 0 3 26 14 28
21 23 24 24 17 18 9 8 9 7 4 0 3 4 6 3 5 2 0 0 0 0 0 0 0 0 0 0 0 0 0 0 0 0 0 0 0 0 0 0 0 0 0 5 6 6 11
21 23 25 26 25 22 24 18 15 10 0 0 5 1 0 11 5 3 0 0 0 0 0 0 0 0 0 0 0 0 0 0 0 0 0 0 0 0 0 0 0 0 0 0 9 0 0
8 11 15 22 19 10 16 20 21 19 12 0 0 0 2 6 8 0 0 0 0 6 0 0 0 0 0 0 0 0 0 0 0 0 0 0 0 0 0 0 0 0 0 0 18 0 0
8 9 10 16 14 10 11 18 14 25 19 9 0 0 1 4 0 0 0 0 0 1 0 0 0 0 0 0 0 0 0 0 0 0 0 0 0 0 0 0 0 0 0 0 22 2 0
6 5 7 12 21 24 28 27 30 27 23 21 5 0 0 0 1 0 28 0 70 23 0 0 0 0 0 0 0 0 0 0 0 0 0 0 0 0 0 0 0 0 0 0 14 0 3
4 15 16 14 21 19 23 28 26 21 35 32 16 9 0 0 8 0 0 1 70 0 0 0 0 0 0 0 0 0 0 0 0 0 0 0 0 0 0 0 0 0 0 5 10 1 1
17 13 8 12 21 25 23 24 27 26 23 40 31 15 6 1 10 2 4 66 14 0 0 0 0 0 0 0 0 0 0 0 0 0 0 0 0 0 0 0 0 1 7 6 14 10 2
20 15 13 14 21 19 26 27 26 26 25 29 37 20 14 8 3 14 12 59 0 0 0 0 0 0 0 0 0 0 0 0 0 0 0 0 0 0 0 0 0 0 0 0 0 21 40
17 11 9 14 23 30 30 33 36 29 17 25 21 46 26 22 0 23 8 3 0 0 0 0 0 6 17 0 0 0 0 0 0 0 0 0 0 0 0 0 0 10 0 0 3 66 10
19 17 12 15 16 23 32 33 42 43 28 27 16 30 29 29 1 36 2 0 0 0 0 0 0 0 0 5 0 0 0 0 0 0 0 0 1 0 0 0 0 0 0 20 17 8 3
17 12 9 15 20 23 25 35 43 52 41 25 19 11 18 13 24 35 5 0 0 0 0 0 0 0 0 0 4 0 0 0 0 0 0 0 0 0 0 0 0 0 0 0 7 46 44
10 9 16 12 23 27 32 40 33 56 40 29 12 1 8 13 17 3 2 0 0 0 0 0 0 0 0 0 0 9 0 0 0 0 0 0 0 0 0 0 0 0 5 0 7 11 51
17 21 15 24 15 22 27 28 14 50 43 17 6 2 11 2 1 5 1 1 0 0 0 0 0 0 0 1 7 7 0 9 0 0 0 0 0 0 0 0 0 0 0 1 29 58 69
19 25 20 22 21 43 37 25 30 33 51 18 0 0 15 16 0 2 6 0 0 0 0 0 0 0 0 0 1 1 3 1 17 0 0 9 0 0 0 0 1 0 0 6 49 50 23
26 34 45 25 27 26 14 1 13 22 43 14 1 0 1 6 5 0 4 0 0 0 0 0 0 0 1 0 0 0 0 0 2 9 0 0 0 0 0 3 5 11 0 0 5 14 37
40 40 44 43 35 25 16 4 1 10 47 18 0 0 14 0 16 8 4 0 0 0 0 0 0 0 0 0 34 1 19 3 7 3 0 0 0 0 0 9 0 2 0 6 0 0 2
0 2 2 2 1 1 8 10 4 2 6 21 1 0 3 1 4 16 4 0 0 0 1 0 0 0 0 0 79 63 63 0 0 1 39 15 19 11 18 24 1 0 0 4 8 2 7
14 17 22 22 14 10 7 13 16 14 17 3 1 0 4 3 3 1 0 0 0 0 0 2 1 0 0 187 211 61 13 2 0 0 0 4 20 51 25 43 1 0 0 0 0 0 0
6 6 7 7 20 11 10 5 16 26 20 6 4 11 3 6 2 7 0 0 1 2 1 5 0 0 36 158 33 44 2 1 0 0 0 0 1 46 38 21 0 0 0 0 2 0 0
1 0 0 4 22 25 13 11 17 28 36 16 2 1 9 2 13 0 1 0 2 6 1 0 0 7 75 39 56 0 0 0 0 0 0 0 0 38 15 5 0 0 0 0 1 8 0
0 0 0 2 7 47 22 16 25 35 39 41 2 0 26 22 6 37 5 0 8 1 1 0 0 5 37 19 0 31 1 0 1 0 0 0 0 4 6 13 0 0 0 12 8 8 21
0 0 0 0 0 57 25 32 27 35 60 29 3 17 26 16 61 11 4 2 17 28 9 0 49 53 107 36 5 9 0 0 0 0 13 0 0 21 40 4 0 1 17 36 34 100 71
0 0 1 0 14 14 11 27 27 38 33 4 21 20 64 13 17 27 126 59 93 39 77 81 6 12 25 26 46 45 16 6 2 1 5 0 0 7 4 14 26 0 1 111 143 129 87

GFSGBSN_con_mlcape_039.txt.gz
CAPE
0 0 0 0 5 6 0 2 0 2 4 2 3 2 1 2 3 2 0 0 0 0 0 0 0 0 0 0 0 0 0 0 0 0 0 0 0 0 0 0 0 0 0 0 0 0 0
7 5 8 2 1 2 3 0 0 0 0 1 2 2 2 3 3 2 1 0 0 0 0 0 0 0 0 0 0 0 0 0 0 0 0 0 0 0 0 0 0 0 0 0 0 0 0
8 9 6 7 6 1 0 0 1 0 0 0 0 2 2 2 3 2 0 0 0 0 0 0 0 3 0 0 0 0 0 0 0 0 0 0 0 0 0 0 0 0 0 0 0 0 6
11 11 9 8 7 7 3 0 0 0 0 0 0 0 2 3 2 2 0 0 0 0 0 0 0 0 0 0 0 0 0 0 0 0 0 0 0 0 0 0 0 0 0 0 0 4 0
12 12 9 11 12 8 5 3 1 1 0 0 1 0 0 3 4 2 0 0 0 0 0 0 0 0 0 0 0 0 0 0 0 0 0 0 0 0 0 0 0 0 0 0 0 4 0
12 13 15 13 14 13 9 11 14 6 2 0 0 0 0 0 4 1 0 0 0 0 0 0 1 0 0 0 0 0 0 0 0 0 0 0 0 0 0 0 0 0 0 0 1 5 8
29 25 24 22 25 23 26 23 16 11 9 7 4 0 0 0 4 5 0 0 0 0 0 0 0 0 0 0 0 0 0 0 0 0 0 0 0 0 0 0 0 0 0 0 1 0 17
22 18 28 28 27 22 23 24 24 20 13 9 4 0 0 0 1 4 0 0 0 0 0 0 0 0 0 0 0 0 0 0 0 0 0 0 0 0 0 0 0 0 0 0 0 5 8
13 4 22 27 27 21 26 23 18 18 17 20 14 10 2 0 0 0 0 0 0 0 0 0 0 0 0 0 0 0 0 0 0 0 0 0 0 0 0 0 0 0 0 0 0 2 5
19 10 19 29 23 14 11 10 14 13 14 14 18 24 14 0 0 0 0 0 0 0 0 0 0 0 0 0 0 0 0 0 0 0 0 0 0 0 0 0 0 0 0 0 0 2 0
21 9 16 13 4 3 6 8 16 20 21 12 19 27 25 5 0 0 1 0 0 0 0 0 0 0 0 0 0 0 0 0 0 0 0 0 0 0 0 0 0 0 0 0 0 0 0
7 4 5 10 2 4 8 9 19 23 19 22 26 31 22 4 0 0 0 0 7 0 0 0 0 0 0 0 0 0 0 0 0 0 0 0 0 0 0 0 0 0 0 0 0 0 0
10 5 9 10 6 20 13 13 26 26 20 24 19 34 27 2 0 4 0 4 0 0 0 0 0 0 0 0 0 0 0 0 0 0 0 0 0 0 0 0 0 0 0 0 0 0 0
13 5 15 17 33 31 26 25 29 27 26 20 14 14 36 11 0 0 0 3 0 0 0 0 0 0 0 0 0 0 0 0 0 0 0 0 0 0 0 0 0 0 0 0 0 0 0
6 6 6 10 26 32 24 25 33 34 30 16 11 12 27 1 0 0 7 11 0 0 0 0 0 0 0 1 0 0 0 0 0 0 0 0 0 0 0 0 0 0 0 0 0 31 15
3 8 6 17 17 26 26 23 30 38 28 24 17 18 11 3 5 1 7 2 0 0 0 0 0 0 0 0 0 1 0 0 0 0 0 0 0 0 0 0 0 0 0 0 0 0 0
14 20 24 22 19 24 26 26 27 33 20 23 21 8 3 0 29 3 9 0 0 0 0 0 0 0 0 0 0 0 0 0 0 0 0 0 0 0 0 0 0 0 0 0 1 0 10
7 19 20 28 17 24 22 32 27 34 16 23 15 1 0 1 7 4 0 1 0 0 0 0 0 0 0 0 0 0 0 0 0 0 0 0 0 0 0 0 0 0 0 0 0 0 0
15 16 21 28 21 22 24 27 25 40 37 31 6 1 5 0 1 1 2 0 0 0 0 0 0 0 0 0 0 2 12 0 0 0 0 0 0 0 0 0 0 0 0 0 0 0 0
14 27 22 16 15 16 9 9 32 40 23 27 0 0 5 9 0 0 0 0 1 0 0 0 0 0 0 0 0 0 12 1 0 0 0 6 0 0 0 0 0 0 0 0 0 0 0
18 13 6 4 12 7 16 23 8 22 28 27 0 0 0 1 2 0 0 0 1 2 0 0 0 0 0 0 0 0 4 0 0 0 0 11 0 0 0 0 0 0 0 0 0 0 0
13 14 17 12 18 20 17 3 6 12 30 27 0 0 3 0 3 6 9 0 0 0 0 0 0 0 0 0 0 0 0 2 3 1 0 1 0 0 2 0 0 0 0 0 0 0 7
13 21 27 25 8 2 9 14 5 4 29 15 0 0 0 4 4 1 0 0 0 0 0 0 0 0 0 0 0 24 81 23 0 0 0 4 0 0 0 2 0 0 0 0 0 0 0
28 3 0 0 1 0 1 3 3 4 29 12 0 2 1 0 4 0 0 0 0 3 0 0 0 0 0 0 8 76 35 49 45 2 9 0 0 0 0 0 0 0 0 0 0 0 0
1 6 9 10 22 28 24 9 0 0 16 33 0 2 1 0 0 0 0 0 0 0 1 0 0 0 0 0 0 0 4 14 1 0 27 0 0 0 8 0 0 0 0 0 0 0 0
3 12 21 19 17 22 31 32 24 4 0 39 0 0 3 0 0 0 0 0 0 0 0 0 0 0 0 0 0 0 0 0 9 0 0 0 2 1 0 15 0 0 0 0 0 0 0
15 15 8 11 9 11 9 7 27 8 8 21 20 0 4 0 0 0 0 0 0 0 0 0 0 0 0 0 2 0 4 17 0 0 0 0 0 0 0 4 0 0 0 2 3 0 2
10 6 7 2 11 18 22 26 25 21 7 31 20 0 17 0 1 12 6 21 0 1 0 0 2 12 2 0 0 18 14 12 1 3 4 0 0 0 0 11 0 1 5 10 0 0 2
15 4 6 3 17 16 9 16 30 36 18 34 5 5 6 25 21 20 1 40 17 0 0 6 0 7 0 0 0 0 13 9 0 0 105 3 0 0 0 0 0 0 0 0 4 45 37

GFSGBSN_con_mlcape_042.txt.gz
CAPE
8 6 1 6 1 0 0 0 0 0 0 0 0 1 1 1 3 2 1 0 0 0 0 0 0 0 0 0 0 0 0 0 0 0 0 0 0 0 0 0 0 0 0 0 0 0 25
9 4 2 0 0 0 0 0 0 0 0 1 0 0 0 1 0 1 0 0 0 0 0 0 0 3 0 0 0 0 0 0 0 0 0 0 0 0 0 0 0 0 0 0 0 0 16
9 11 9 4 1 0 0 0 0 3 4 2 2 1 0 0 0 0 0 0 0 0 0 0 0 7 0 0 0 0 0 0 0 0 0 0 0 0 0 0 0 0 0 0 0 0 0
11 13 13 8 9 3 2 0 0 0 0 5 4 0 0 0 0 0 0 0 0 0 0 0 0 3 0 0 0 0 0 0 0 0 0 0 0 0 0 0 0 0 0 0 0 0 0
11 13 13 10 12 10 5 5 8 7 11 8 8 0 0 0 0 0 0 0 0 0 0 0 0 0 0 0 0 0 0 0 0 0 0 0 0 0 0 0 0 0 0 0 0 0 0
18 17 20 19 15 14 19 15 12 13 15 15 11 4 0 0 0 0 0 0 0 0 0 0 1 0 0 0 0 0 0 0 0 0 0 0 0 0 0 0 0 0 0 0 0 0 2
22 23 17 15 13 17 18 25 26 23 19 16 14 6 1 0 0 0 0 0 0 0 0 0 0 0 0 0 0 0 0 0 0 0 0 0 0 0 0 0 0 0 0 0 0 0 15
11 16 17 17 16 28 28 29 17 16 14 15 14 13 9 0 0 0 0 0 0 0 0 0 0 0 0 0 0 0 0 0 0 0 0 0 0 0 0 0 0 0 0 0 0 3 16
14 19 17 17 18 23 28 24 14 11 15 12 17 13 16 0 0 0 0 0 0 0 0 0 0 0 0 0 0 0 0 0 0 0 0 0 0 0 0 0 0 0 0 0 0 0 1
20 26 19 9 16 25 13 6 4 2 8 17 14 5 6 0 0 0 0 0 0 0 0 0 0 0 0 0 0 0 0 0 0 0 0 0 0 0 0 0 0 0 0 0 0 0 0
29 31 20 13 16 9 11 9 2 4 5 7 13 14 7 3 0 0 0 0 0 0 0 0 0 0 0 0 0 0 0 0 0 0 0 0 0 0 0 0 0 0 0 0 0 0 0
15 21 11 6 0 8 9 7 1 2 3 4 4 10 24 0 0 0 0 0 3 0 0 0 0 0 0 0 0 0 0 0 0 0 0 0 0 0 0 0 0 0 0 0 0 0 0
14 14 10 12 2 7 21 22 1 0 3 5 6 7 6 0 0 0 0 0 17 0 0 0 0 0 0 0 0 0 0 0 0 0 0 0 0 0 0 0 0 0 0 0 0 0 0
15 11 8 12 13 23 19 21 12 19 3 5 11 14 6 0 0 0 0 7 0 0 0 0 0 0 0 0 0 0 0 0 0 0 0 0 0 0 0 0 0 0 0 0 0 0 0
12 10 11 14 4 20 23 29 35 26 5 4 8 16 6 0 0 2 1 0 0 0 0 0 0 0 0 0 0 0 0 0 0 0 0 0 0 0 0 0 0 0 0 0 0 0 0
10 7 9 10 13 32 35 25 25 20 6 5 13 16 5 0 2 4 1 0 0 0 0 0 0 0 0 0 0 0 0 0 0 0 0 0 0 0 0 0 0 0 0 0 0 0 0
7 5 9 7 12 22 23 36 25 20 8 10 24 6 1 0 14 9 0 1 0 0 0 0 0 0 0 0 0 0 0 0 0 0 0 0 0 0 0 0 0 0 0 0 0 0 0
12 10 2 14 24 18 30 28 25 21 20 17 23 1 0 1 2 5 0 0 0 0 0 0 0 0 0 0 0 0 0 0 3 0 1 1 0 0 0 0 0 0 0 0 0 0 0
17 11 9 12 14 28 25 26 33 34 42 26 5 2 1 0 2 0 1 0 0 0 0 0 0 0 0 0 0 0 2 41 8 0 0 0 1 0 0 0 0 0 0 0 0 0 0
15 9 13 15 30 29 28 29 30 33 39 25 2 0 3 2 0 0 0 0 1 3 0 0 0 0 0 0 0 0 0 0 9 15 15 4 0 3 0 0 0 0 0 0 0 0 0
10 13 16 27 29 32 30 30 32 36 41 24 2 0 0 1 1 0 0 0 0 1 6 0 0 0 0 0 0 0 0 0 10 1 0 0 0 0 0 0 0 0 0 0 0 0 0
6 18 24 28 33 29 26 24 31 36 42 28 0 0 2 0 0 4 2 0 0 0 1 0 0 0 0 0 0 0 0 0 0 0 23 0 0 0 0 0 0 0 0 0 0 0 0
11 18 22 16 21 22 22 28 34 40 36 11 8 0 1 1 1 1 0 0 1 0 0 0 0 0 0 0 0 0 0 0 2 14 0 0 0 0 0 0 0 0 0 0 0 0 0
20 10 20 29 33 21 8 8 6 7 28 27 4 1 0 0 0 0 0 1 0 2 0 0 0 0 0 0 0 0 0 0 5 0 0 0 0 0 0 0 0 0 0 0 0 0 0
8 23 31 14 14 13 5 1 0 1 9 13 4 4 2 0 0 0 0 0 0 0 0 0 0 0 0 0 0 0 0 0 0 0 0 2 0 0 0 0 0 0 0 0 0 0 0
10 0 0 2 21 21 15 6 1 0 0 19 7 0 4 0 0 0 0 1 0 0 0 0 0 0 0 0 1 0 0 0 0 6 55 0 0 1 0 0 4 0 0 0 0 0 0
0 4 7 12 16 32 31 30 20 11 2 20 17 0 0 0 0 0 0 0 0 0 0 0 0 0 0 0 0 0 0 2 0 0 4 0 0 0 0 0 0 2 0 0 0 0 0
1 3 10 20 22 29 21 27 36 34 31 36 14 1 0 0 0 3 0 0 0 0 0 0 0 0 4 4 0 0 0 1 3 1 0 0 0 0 0 0 0 0 0 0 0 0 1
9 14 14 18 24 19 22 23 31 31 33 43 23 2 27 4 1 0 0 0 0 0 0 0 0 0 1 0 0 0 1 9 0 0 0 0 0 0 0 0 0 0 0 0 0 0 0

GFSGBSN_con_mlcape_045.txt.gz
CAPE
13 13 12 13 13 12 12 12 11 0 0 0 0 0 0 0 0 0 0 0 0 0 0 0 0 0 0 0 0 0 0 0 0 0 0 0 0 0 0 0 0 0 0 0 0 0 0
14 15 14 8 5 2 1 1 4 0 0 0 0 0 0 0 0 0 0 0 0 0 0 0 0 0 0 0 0 0 0 0 0 0 0 0 0 0 0 0 0 0 0 0 0 0 14
12 15 12 7 9 3 0 0 0 0 0 0 0 0 0 0 0 0 0 0 0 0 0 0 0 1 0 0 0 0 0 0 0 0 0 0 0 0 0 0 0 0 0 0 0 0 0
12 13 11 5 2 3 1 3 1 0 0 0 0 0 0 0 0 0 0 0 0 0 0 0 0 1 0 0 0 0 0 0 0 0 0 0 0 0 0 0 0 0 0 0 0 0 0
2 9 11 10 9 8 8 11 16 5 4 1 0 0 0 0 0 0 0 0 0 0 0 0 0 1 0 0 0 0 0 0 0 0 0 0 0 0 0 0 0 0 0 0 0 0 0
5 14 22 21 11 9 8 14 19 13 13 8 5 2 4 0 0 0 0 0 0 0 0 0 7 0 0 0 0 0 0 0 0 0 0 0 0 0 0 0 0 0 0 0 0 0 0
2 11 6 14 16 17 7 21 19 15 10 6 4 6 3 0 0 0 0 0 0 0 0 0 0 0 0 0 0 0 0 0 0 0 0 0 0 0 0 0 0 0 0 0 0 0 0
3 6 12 22 22 19 17 26 18 11 6 4 7 8 8 0 0 0 0 0 0 0 0 0 0 0 0 0 0 0 0 0 0 0 0 0 0 0 0 0 0 0 0 0 0 0 0
18 13 17 25 24 13 11 23 11 4 4 4 9 15 6 0 0 0 0 0 0 0 0 0 0 0 0 0 0 0 0 0 0 0 0 0 0 0 0 0 0 0 0 0 0 0 0
27 16 26 22 17 16 11 7 5 4 2 6 9 15 11 0 0 0 0 0 0 0 0 0 0 0 0 0 0 0 0 0 0 0 0 0 0 0 0 0 0 0 0 0 0 0 0
26 21 19 32 20 9 2 0 4 0 2 8 11 10 5 5 0 0 0 0 0 0 0 0 0 0 0 0 0 0 0 0 0 0 0 0 0 0 0 0 0 0 0 0 0 0 0
31 15 14 23 16 11 8 0 3 0 0 5 6 10 4 3 1 0 0 0 1 0 0 0 0 0 0 0 0 0 0 0 0 0 0 0 0 0 0 0 0 0 0 0 0 0 0
28 22 25 12 19 13 10 4 5 0 0 0 4 10 6 0 0 0 0 0 5 0 0 0 0 0 0 0 0 0 0 0 0 0 0 0 0 0 0 0 0 0 0 0 0 0 0
36 28 21 6 10 15 14 3 16 10 4 0 2 12 10 4 0 0 0 0 0 0 0 0 0 0 0 0 0 0 0 0 0 0 0 0 0 0 0 0 0 0 0 0 0 0 0
27 27 21 14 16 15 16 7 18 18 9 0 4 5 11 0 0 0 0 1 1 1 0 0 0 0 0 0 0 0 0 0 0 0 0 0 0 0 0 0 0 0 0 0 0 0 0
37 26 13 13 12 18 15 8 27 27 17 5 5 15 11 0 0 8 0 1 4 1 0 0 0 0 0 0 0 0 0 0 0 0 0 0 0 0 0 0 0 0 0 0 0 0 0
35 25 16 12 13 15 11 15 32 15 10 1 12 9 4 0 1 6 2 0 0 0 0 0 0 0 0 0 0 0 0 0 0 0 0 0 0 0 0 0 0 0 0 0 0 0 0
29 18 10 8 8 5 10 25 32 12 12 14 12 1 1 0 1 3 0 1 0 0 0 0 0 0 0 0 0 0 0 0 0 0 0 0 0 0 0 0 0 0 0 0 0 0 0
27 15 6 13 13 7 12 29 32 11 24 16 0 1 3 0 1 3 0 0 0 0 0 0 0 0 0 0 0 0 0 6 2 0 0 0 3 0 0 0 0 0 0 0 0 0 0
25 13 10 13 6 11 16 23 23 39 36 7 1 0 2 2 0 0 2 1 1 0 0 0 0 0 0 0 0 0 0 0 0 0 13 6 0 0 2 0 0 0 0 0 0 0 0
15 13 16 13 5 11 13 15 36 40 29 11 1 0 0 0 0 0 0 1 2 1 2 0 0 0 0 0 0 0 0 0 29 51 2 0 0 0 0 0 0 0 0 0 0 0 0
15 13 12 4 9 10 10 34 31 42 25 8 0 1 2 4 1 1 0 0 3 0 3 0 0 0 0 0 0 0 0 0 0 0 15 7 0 0 0 0 0 0 0 0 0 0 0
6 6 8 9 8 19 33 34 30 21 19 5 1 0 15 2 3 1 1 1 0 1 0 0 0 0 0 0 0 0 0 0 0 3 2 14 0 0 0 0 0 0 0 0 0 0 0
17 16 13 8 26 36 39 30 21 29 21 8 5 14 5 2 0 1 1 0 0 0 0 0 0 0 0 0 0 0 4 9 2 0 31 12 9 1 0 0 0 0 0 0 0 0 0
20 7 14 28 25 17 22 27 26 21 20 17 15 16 13 2 11 5 11 2 0 0 2 0 0 0 0 0 0 0 0 0 0 0 2 17 0 0 0 0 0 0 0 0 0 0 0
18 32 25 19 22 20 7 7 9 8 10 24 20 10 2 5 0 12 1 4 0 0 0 0 0 0 0 0 2 2 0 0 0 3 20 1 0 7 0 0 0 0 0 0 0 0 0
12 10 13 12 9 4 5 8 13 17 10 13 6 11 1 0 0 1 2 4 1 0 0 0 0 0 0 2 0 0 0 0 0 0 6 0 0 0 0 0 0 0 0 0 0 0 0
0 0 1 1 2 6 14 12 10 22 12 25 6 12 2 0 0 12 11 1 2 3 0 0 0 0 2 0 4 0 0 0 0 0 0 0 0 0 0 0 0 0 0 0 0 0 0
2 1 2 9 13 21 15 17 20 28 32 43 21 23 11 1 1 0 0 4 3 0 0 0 0 0 0 0 0 0 0 0 0 0 0 0 0 0 0 0 0 75 4 0 0 0 0

GFSGBSN_con_mlcape_048.txt.gz
CAPE
14 13 7 7 10 12 12 9 3 0 0 0 0 0 0 0 0 0 0 0 0 0 0 0 0 0 0 0 0 0 0 0 0 0 0 0 0 0 0 0 0 0 0 0 0 0 0
3 7 12 10 13 14 14 10 4 1 0 0 0 0 0 0 0 0 0 0 0 0 0 0 0 1 0 0 0 0 0 0 0 0 0 0 0 0 0 0 0 0 0 0 0 0 0
6 5 7 8 8 6 6 3 3 4 3 0 4 0 0 0 0 0 0 0 0 0 0 0 0 2 0 0 0 0 0 0 0 0 0 0 0 0 0 0 0 0 0 0 0 0 0
15 12 13 16 9 12 14 12 8 7 6 3 2 9 3 0 0 0 0 0 0 0 0 0 0 4 0 0 0 0 0 0 0 0 0 0 0 0 0 0 0 0 0 0 0 0 0
14 8 6 22 28 12 7 8 15 16 14 7 4 4 1 2 0 0 0 0 0 0 0 2 0 0 0 0 0 0 0 0 0 0 0 0 0 0 0 0 0 0 0 0 0 0 0
11 17 16 10 9 12 10 13 10 21 12 6 2 3 0 0 0 0 0 0 0 0 0 0 5 0 0 0 0 0 0 0 0 0 0 0 0 0 0 0 0 0 0 0 0 0 0
12 15 14 9 13 23 25 16 14 14 6 0 0 1 0 0 1 1 0 0 0 0 0 0 0 0 0 0 0 0 0 0 0 0 0 0 0 0 0 0 0 0 0 0 0 0 0
22 22 10 8 8 24 15 13 8 6 0 0 0 3 4 5 3 1 0 0 1 1 0 0 0 0 0 0 0 0 0 0 0 0 0 0 0 0 0 0 0 0 0 0 0 0 0
14 21 26 9 17 20 17 12 8 0 0 0 0 8 6 4 0 0 0 0 0 0 1 0 0 0 0 0 0 0 0 0 0 0 0 0 0 0 0 0 0 0 0 0 0 0 0
25 22 27 26 12 37 18 10 1 0 0 0 0 8 11 4 0 0 0 0 0 0 0 0 0 0 0 0 0 0 0 0 0 0 0 0 0 0 0 0 0 0 0 0 0 0 0
30 25 29 27 18 18 18 9 5 1 1 0 0 5 11 20 0 0 0 0 0 0 0 0 0 0 0 0 0 0 0 0 0 0 0 0 0 0 0 0 0 0 0 0 0 0 0
20 23 31 15 14 22 17 11 11 2 2 1 0 0 12 0 3 0 0 0 0 2 0 0 0 0 0 0 0 0 0 0 0 0 0 0 0 0 0 0 0 0 0 0 0 0 0
27 30 29 25 15 10 9 12 13 5 1 6 0 0 2 6 0 0 0 0 4 0 0 0 0 0 0 0 0 0 0 0 0 0 0 0 0 0 0 0 0 0 0 0 0 0 0
30 34 33 26 22 11 10 4 14 6 1 7 0 0 0 12 0 0 0 0 1 0 0 0 0 0 0 0 0 0 0 0 0 0 0 0 0 0 0 0 0 0 0 0 0 0 0
6 23 28 33 32 25 11 12 12 0 1 13 11 0 2 1 0 0 0 0 1 1 0 0 0 0 0 0 0 0 0 0 0 0 0 0 0 0 0 0 0 0 0 0 0 0 0
17 25 28 39 37 30 18 12 13 9 7 23 0 12 0 7 0 0 0 0 1 3 0 0 0 0 0 0 0 0 0 0 0 0 0 0 0 0 0 0 0 0 0 0 0 0 0
19 28 32 43 37 25 17 13 12 15 13 15 4 15 19 4 6 1 0 0 0 0 0 0 0 0 0 0 0 0 0 0 0 0 0 0 0 0 0 0 0 0 0 0 0 0 0
30 33 29 36 30 21 18 19 17 19 30 18 15 14 12 13 5 0 0 0 0 0 0 0 0 0 0 0 0 0 0 0 4 1 0 0 0 0 0 0 0 0 0 0 0 0 0
32 43 32 31 33 23 20 25 19 33 29 17 3 1 28 42 3 1 0 0 0 0 0 0 0 0 0 0 0 0 0 6 0 2 1 0 0 0 0 0 0 0 0 0 0 0 0
38 35 28 23 40 21 20 26 24 30 17 12 0 1 6 16 3 0 0 0 0 0 0 0 0 0 0 0 0 0 0 0 0 19 2 1 0 0 0 0 0 0 0 0 0 0 0
35 42 39 23 34 18 17 19 20 30 15 9 0 0 13 4 0 1 2 1 0 0 0 0 0 0 0 0 0 0 0 0 0 14 15 0 0 0 0 0 0 0 0 0 0 0 0
23 27 20 22 20 10 15 20 18 27 14 10 0 0 9 29 6 0 0 0 1 0 1 0 0 0 0 0 0 0 0 0 0 0 0 0 0 0 0 0 0 0 0 0 0 0 0
18 31 13 7 11 11 23 17 22 24 14 8 0 1 21 2 15 1 0 0 0 0 0 0 0 0 0 0 0 0 0 0 0 0 0 0 0 0 0 0 0 0 0 0 0 0 0
7 10 11 15 21 23 25 25 23 19 21 12 3 3 0 5 0 6 1 0 0 0 0 0 0 0 0 0 0 0 0 0 0 0 0 0 10 4 0 0 0 0 0 0 0 0 0
27 20 23 16 26 36 31 19 11 24 29 20 2 5 3 0 7 7 4 0 0 0 0 0 0 0 0 0 0 0 0 0 0 0 0 0 6 12 0 1 0 0 0 0 0 0 0
10 9 11 11 16 11 4 2 42 38 33 26 7 14 10 6 0 0 4 9 0 0 0 0 0 0 0 0 4 0 0 0 0 0 0 0 10 17 0 3 0 0 0 0 0 0 0
7 6 11 21 19 17 28 26 14 16 17 22 13 10 14 0 0 1 4 7 1 0 0 0 0 0 0 0 3 0 0 0 0 0 1 0 12 4 0 3 0 0 0 0 0 0 0
6 6 7 15 28 17 9 10 14 11 14 21 12 16 9 0 0 6 13 18 12 1 0 0 0 0 0 2 2 0 0 0 0 2 7 4 1 0 3 0 0 0 0 0 1 0 0
10 8 6 4 7 7 7 6 7 6 3 7 4 8 4 1 1 0 14 6 16 4 0 0 0 0 0 0 0 0 0 0 0 0 0 0 0 0 0 0 0 0 12 26 20 0 0

GFSGBSN_con_mlcape_051.txt.gz
CAPE
7 6 13 3 7 15 13 13 9 1 0 0 0 0 0 0 0 0 0 0 0 0 0 0 0 0 0 0 0 0 0 0 0 0 0 0 0 0 0 0 0 0 0 0 0 0 0
13 4 3 2 2 9 10 12 9 5 4 4 5 2 1 0 0 0 0 0 0 0 0 0 0 2 0 0 0 0 0 0 0 0 0 0 0 0 0 0 0 0 0 0 0 0 0
5 7 12 10 9 7 11 14 11 10 8 9 14 7 2 6 1 0 0 0 0 0 0 0 0 3 0 0 0 0 0 0 0 0 0 0 0 0 0 0 0 0 0 0 0 0 0
5 4 10 7 20 26 13 10 7 4 13 18 13 3 0 0 0 0 0 0 0 0 0 0 1 6 0 0 0 0 0 0 0 0 0 0 0 0 0 0 0 0 0 0 0 0 0
18 12 4 12 16 4 13 15 12 15 14 8 0 0 0 0 0 0 0 0 0 0 0 0 1 0 0 0 0 0 0 0 0 0 0 0 0 0 0 0 0 0 0 0 0 0 0
16 16 16 15 10 13 25 23 15 13 9 0 0 0 0 1 2 1 0 0 0 0 0 0 0 0 0 0 0 0 0 0 0 0 0 0 0 0 0 0 0 0 0 0 0 0 0
19 17 19 21 12 12 25 19 15 10 6 0 0 0 0 7 9 0 0 0 0 0 0 0 0 0 0 0 0 0 0 0 0 0 0 0 0 0 0 0 0 0 0 0 0 0 0
13 23 13 10 20 5 15 19 17 12 4 1 0 0 0 5 3 0 0 2 5 0 0 0 0 0 0 0 0 0 0 0 0 0 0 0 0 0 0 0 0 0 0 0 0 0 0
22 25 9 8 24 3 14 28 12 3 1 1 0 0 0 2 1 0 0 0 0 0 1 0 0 0 0 0 0 0 0 0 0 0 0 0 0 0 0 0 0 0 0 0 0 0 0
27 34 25 8 28 18 12 29 17 8 1 1 0 0 0 0 0 0 0 0 0 0 0 0 0 0 0 0 0 0 0 0 0 0 0 0 0 0 0 0 0 0 0 0 0 0 0
25 39 29 28 19 22 7 15 13 9 5 1 0 0 0 2 7 1 0 0 0 0 0 0 0 0 0 0 0 0 0 0 0 0 0 0 0 0 0 0 0 0 0 0 0 0 0
18 32 33 27 30 20 12 15 11 17 6 0 0 0 0 0 3 0 0 0 0 2 0 0 0 0 0 0 0 0 0 0 0 0 0 0 0 0 0 0 0 0 0 0 0 0 0
27 29 36 28 35 25 13 13 20 18 7 0 0 0 0 5 5 0 0 0 1 0 0 0 0 0 0 0 0 0 0 0 0 0 0 0 0 0 0 0 0 0 0 0 0 0 0
34 27 37 34 37 30 12 13 9 12 11 0 0 2 0 0 5 3 0 0 0 0 0 0 0 0 0 0 0 0 0 0 0 0 0 0 0 0 0 0 0 0 0 0 0 0 0
42 36 34 25 32 35 26 20 13 12 7 0 9 0 0 0 9 15 0 0 0 1 0 0 0 0 0 0 0 0 0 0 0 0 0 0 0 0 0 0 0 0 0 0 0 0 0
31 37 35 36 39 36 45 25 22 16 6 5 7 2 0 0 9 6 0 1 0 3 1 0 0 0 0 0 0 0 0 0 0 0 0 0 0 0 0 0 0 0 0 0 0 0 0
39 30 38 35 44 32 20 30 29 16 0 19 9 4 1 0 23 16 0 0 0 0 0 0 0 0 0 0 0 0 0 0 0 0 0 0 0 0 0 0 0 0 0 0 0 0 0
37 31 38 40 41 41 34 37 37 23 13 16 8 3 8 20 4 6 0 0 0 0 0 0 0 0 0 0 0 0 0 0 0 1 0 0 0 0 0 0 0 0 0 0 0 0 0
34 27 32 40 25 26 42 24 42 32 32 13 6 1 6 43 4 5 0 0 0 0 0 0 0 0 0 0 0 0 0 0 0 0 0 0 0 0 0 0 0 0 0 0 0 0 0
32 31 37 30 33 26 35 25 39 32 21 21 9 8 6 11 3 6 5 0 0 0 0 0 0 0 0 0 0 0 0 0 0 0 3 4 0 0 0 0 0 0 0 0 0 0 0
33 30 25 35 49 34 32 34 29 22 26 18 15 5 11 7 2 2 4 0 0 0 0 0 0 0 0 0 0 0 0 0 0 0 12 0 0 0 0 0 0 0 0 0 0 0 0
16 36 33 27 24 26 44 35 32 31 24 34 18 6 10 3 5 0 0 1 0 0 0 0 0 0 0 0 0 0 0 0 0 0 0 0 0 0 0 0 0 0 0 0 0 0 0
36 36 13 29 30 33 48 40 25 29 27 15 17 17 10 9 1 0 1 1 0 0 0 0 0 0 0 0 0 0 0 0 0 0 0 0 0 0 0 0 0 0 0 0 0 0 0
27 22 26 29 21 19 13 9 18 19 26 13 27 29 19 2 4 0 0 1 1 0 0 0 0 0 0 0 0 0 0 0 0 0 0 0 4 3 1 0 0 0 0 0 0 0 0
30 33 34 30 19 20 24 24 35 25 39 25 11 18 11 0 1 0 0 0 25 0 0 0 0 0 1 1 0 0 0 0 0 0 0 0 0 1 0 0 0 0 0 0 0 0 0
18 19 15 14 9 15 19 6 24 2 42 38 16 36 13 20 0 0 15 25 1 0 0 0 1 0 0 0 0 0 0 0 0 0 0 0 0 8 0 0 0 0 0 0 0 0 0
9 4 0 2 7 14 19 21 12 10 36 32 10 36 11 2 0 2 0 1 6 3 0 0 1 1 1 0 0 0 0 0 0 0 0 0 0 0 3 0 0 0 0 0 0 0 0
2 0 3 6 7 8 13 22 12 32 28 29 13 30 2 0 7 0 0 8 6 1 0 0 0 0 0 0 0 0 0 0 0 2 1 0 0 0 0 0 0 0 0 0 0 0 0
21 10 7 12 8 7 4 13 30 11 15 21 8 25 5 1 4 3 14 6 17 2 5 0 0 0 0 1 0 0 0 0 0 0 0 5 0 0 0 0 0 0 0 0 0 0 0

GFSGBSN_con_mlcape_054.txt.gz
CAPE
8 5 7 10 8 11 10 11 13 3 3 5 5 0 1 1 1 0 0 0 0 0 0 0 0 0 0 0 0 0 0 0 0 0 0 0 0 0 0 0 0 0 0 0 0 0 0
15 14 14 13 9 2 11 17 10 7 7 7 6 6 1 0 1 0 0 0 0 0 0 0 1 1 0 0 0 0 0 0 0 0 0 0 0 0 0 0 0 0 0 0 0 0 0
8 12 16 10 6 21 28 13 7 3 9 15 13 0 0 0 0 0 0 0 0 0 0 0 6 2 0 0 0 0 0 0 0 0 0 0 0 0 0 0 0 0 0 0 0 0 0
15 11 7 12 14 17 6 8 9 13 20 11 0 0 0 0 0 0 0 0 0 0 0 0 3 3 0 0 0 0 0 0 0 0 0 0 0 0 0 0 0 0 0 0 0 0 0
7 15 11 11 18 14 6 14 17 19 10 6 0 0 0 0 0 0 0 0 0 0 0 0 2 1 0 0 0 0 0 0 0 0 0 0 0 0 0 0 0 0 0 0 0 0 0
20 16 26 16 21 10 17 16 13 8 7 7 0 1 0 0 0 0 0 0 0 0 0 0 0 0 0 0 0 0 0 0 0 0 0 0 0 0 0 0 0 0 0 0 0 0 0
25 30 24 12 19 24 15 9 22 13 9 4 0 2 1 0 0 0 0 0 0 0 0 0 0 0 0 0 0 0 0 0 0 0 0 0 0 0 0 0 0 0 0 0 0 0 0
31 21 19 25 15 22 14 10 29 14 10 0 1 4 1 0 0 0 0 1 0 0 0 0 0 0 0 0 0 0 0 0 0 0 0 0 0 0 0 0 0 0 0 0 0 0 0
15 14 38 30 17 21 22 12 10 20 10 5 1 4 0 0 0 0 0 4 0 0 1 0 0 0 0 0 0 0 0 0 0 0 0 0 0 0 0 0 0 0 0 0 0 0 0
23 26 21 35 24 17 13 11 8 16 12 7 1 2 0 0 1 0 8 0 0 0 0 0 0 0 0 0 0 0 0 0 0 0 0 0 0 0 0 0 0 0 0 0 0 0 0
37 33 19 26 24 20 20 8 6 15 8 9 3 0 0 0 16 12 3 0 0 1 0 0 0 0 0 0 0 0 0 0 0 0 0 0 0 0 0 0 0 0 0 0 0 0 0
35 32 26 17 32 18 18 14 16 7 9 11 5 0 2 13 15 1 0 0 1 2 0 0 0 0 0 0 0 0 0 0 0 0 0 0 0 0 0 0 0 0 0 0 0 0 0
33 23 36 23 31 24 24 17 9 12 12 12 7 4 4 12 18 2 0 0 6 0 0 0 0 0 0 0 0 0 0 0 0 0 0 0 0 0 0 0 0 0 0 0 0 0 0
27 29 32 17 33 40 37 23 13 11 16 14 12 3 4 6 18 29 2 6 0 0 0 0 0 0 0 0 0 0 0 0 0 0 0 0 0 0 0 0 0 0 0 0 0 0 0
28 39 31 27 23 26 27 25 23 18 14 10 14 12 6 2 6 34 2 2 0 0 0 0 0 0 0 0 0 0 0 0 0 0 0 0 0 0 0 0 0 0 0 0 0 0 0
15 21 26 30 25 35 28 25 9 14 16 15 17 3 0 3 32 42 8 0 0 0 0 0 0 0 0 0 0 0 0 0 0 0 0 0 0 0 0 0 0 0 0 0 0 0 0
32 28 24 23 31 13 15 15 14 15 0 23 21 21 0 2 36 29 3 2 0 0 0 0 0 0 0 0 0 0 0 0 0 26 0 0 8 1 0 0 0 0 0 0 0 0 0
15 19 24 28 31 6 8 26 7 9 0 15 23 8 24 41 10 8 2 7 9 0 0 0 0 0 0 0 0 0 0 0 0 0 0 0 0 0 0 0 0 0 0 0 0 0 0
23 25 34 29 28 15 24 13 32 9 29 16 18 9 24 55 5 1 14 9 18 1 0 1 1 0 0 2 0 0 0 0 0 0 0 5 0 0 0 0 0 1 0 0 0 0 0
26 34 36 26 29 34 17 14 9 10 18 17 14 7 8 18 1 5 11 11 14 0 4 10 1 0 4 9 6 0 0 0 0 0 0 0 12 1 0 0 0 0 0 0 0 0 0
25 19 21 23 22 31 24 10 18 20 8 21 14 8 19 8 6 5 10 10 11 9 3 1 1 0 4 2 11 3 0 0 0 0 11 8 0 0 0 0 0 0 0 0 0 0 0
30 37 34 30 31 26 26 20 17 6 32 21 11 11 10 17 32 7 9 4 10 3 3 5 0 4 0 1 8 3 0 0 0 0 0 4 0 0 0 0 0 0 0 0 0 0 0
29 32 26 27 34 42 44 40 14 32 39 25 20 10 12 4 5 15 12 7 1 11 7 5 3 2 3 0 10 13 8 7 0 0 0 0 22 0 0 0 0 0 0 0 0 0 0
22 27 28 31 30 25 17 24 18 26 25 14 20 13 11 0 3 13 7 7 6 5 10 7 0 1 5 4 8 5 9 1 0 0 0 0 16 23 0 0 0 0 0 0 0 0 0
8 14 20 26 30 30 24 29 17 50 29 44 11 28 18 2 0 2 13 11 9 19 7 1 2 3 2 2 3 12 15 23 1 0 0 0 10 10 2 3 0 0 0 0 0 0 0
8 15 18 21 20 24 32 24 16 10 28 35 19 14 25 1 2 13 12 14 11 5 7 0 3 8 1 0 2 2 11 7 11 10 0 0 1 17 5 0 0 0 0 0 0 0 0
5 0 1 6 9 15 22 9 8 15 23 32 12 28 28 6 0 2 16 9 13 23 0 9 2 4 3 0 4 7 5 6 5 10 2 7 14 5 3 22 11 0 0 0 4 0 0
6 4 0 1 5 10 20 23 26 32 21 31 4 28 13 2 5 24 3 15 13 16 2 12 1 0 0 2 16 9 6 6 2 13 2 1 6 9 6 9 2 0 0 0 53 4 0
7 4 7 2 4 3 4 6 12 20 27 41 17 20 45 22 15 1 1 39 17 3 21 10 15 2 4 9 5 9 14 10 2 4 4 13 1 3 0 3 8 18 39 0 0 0 0

GFSGBSN_con_mlcape_057.txt.gz
CAPE
6 8 9 12 12 7 0 8 6 4 6 4 6 2 8 1 1 0 0 0 0 0 0 0 0 1 0 0 0 0 0 0 0 0 0 0 0 0 0 0 0 0 0 0 0 0 0
11 13 7 12 10 7 22 19 15 6 1 1 6 13 0 0 0 0 0 0 0 0 0 0 0 3 0 0 0 0 0 0 0 0 0 0 0 0 0 0 0 0 0 0 0 0 0
13 14 12 11 9 11 15 3 10 14 10 7 9 0 0 0 0 0 0 0 0 0 0 0 3 1 0 0 0 0 0 0 0 0 0 0 0 0 0 0 0 0 0 0 0 0 0
16 15 17 10 14 15 13 6 4 13 20 10 0 0 0 0 0 0 0 0 0 0 0 0 0 0 0 0 0 0 0 0 0 0 0 0 0 0 0 0 0 0 0 0 0 0 0
8 12 14 19 10 17 10 6 3 12 7 5 8 0 0 1 0 0 0 0 0 0 0 0 0 0 0 0 0 0 0 0 0 0 0 0 0 0 0 0 0 0 0 0 0 0 0
6 10 15 22 21 16 18 13 1 11 5 4 5 1 1 0 0 0 0 0 0 0 0 0 0 0 0 0 0 0 0 0 0 0 0 0 0 0 0 0 0 0 0 0 0 0 0
22 24 20 11 21 10 9 26 18 12 7 1 3 1 3 0 0 0 0 0 0 0 0 0 0 0 0 0 0 0 0 3 0 0 0 0 0 0 0 0 0 0 0 0 0 0 0
20 14 20 22 7 18 9 20 14 6 13 7 1 0 1 0 0 0 0 1 2 1 0 0 0 0 0 0 0 0 0 0 5 0 0 0 0 0 0 0 0 0 0 0 0 0 0
22 20 7 8 20 28 13 11 20 9 7 12 3 1 0 0 0 0 13 9 8 7 1 0 0 0 0 0 0 0 0 0 11 1 0 0 0 0 0 0 0 0 0 0 0 0 0
27 27 31 22 12 24 23 23 11 6 2 9 4 5 0 0 0 9 5 13 10 8 0 0 0 0 0 0 0 0 0 0 1 1 0 0 0 0 0 0 0 0 0 0 0 0 0
28 31 29 30 17 12 27 17 14 8 14 5 7 5 0 0 1 5 10 9 7 5 0 0 0 0 0 0 0 0 0 0 0 0 0 0 0 0 0 0 0 0 0 0 0 0 0
29 30 35 25 22 15 21 21 20 12 8 6 14 4 1 0 15 21 13 5 10 0 0 0 0 0 0 0 0 0 0 0 0 0 0 0 0 0 0 0 0 0 0 0 0 0 0
22 27 30 20 18 16 7 22 22 7 6 9 15 5 0 10 3 8 9 18 7 0 0 0 0 0 0 0 0 0 0 0 0 0 0 0 0 0 0 0 0 0 0 0 0 0 0
20 15 21 25 23 24 12 9 4 6 7 8 13 1 0 2 13 14 25 17 0 0 0 0 0 0 0 0 0 0 0 0 0 0 0 0 0 0 0 0 0 0 0 0 0 0 1
19 24 18 29 24 18 16 18 3 4 19 8 6 0 0 6 23 9 34 5 0 0 0 0 0 0 0 0 0 0 0 8 0 0 0 0 0 0 2 0 0 0 0 0 0 0 0
21 15 14 18 14 10 21 12 19 25 8 10 8 11 2 10 28 23 21 0 0 0 0 0 0 0 0 0 0 0 10 1 3 0 0 0 0 0 0 8 0 0 0 0 0 1 0
7 3 8 23 7 19 26 24 6 3 11 6 12 17 9 8 23 24 9 0 0 0 0 0 0 0 0 0 0 0 1 4 0 3 3 0 5 0 4 7 0 0 0 3 0 0 0
13 6 5 9 15 16 15 4 1 25 16 5 16 14 23 22 7 15 10 1 0 0 0 0 0 0 0 0 0 0 0 0 0 0 21 0 12 11 1 0 15 9 0 0 0 2 4
14 1 7 15 16 18 13 34 16 12 10 7 10 15 13 47 11 17 12 2 1 2 0 3 0 0 0 1 0 0 0 0 0 0 0 16 1 16 17 12 10 25 5 4 13 2 0
18 10 16 24 38 28 15 19 19 18 17 9 23 10 9 43 19 5 8 16 9 15 12 15 8 13 14 3 2 5 1 0 0 0 0 0 1 6 0 3 1 32 56 37 40 21 1
21 23 28 33 35 22 21 32 38 26 12 3 14 1 6 6 12 16 5 9 7 14 18 15 19 19 25 12 11 17 24 5 0 0 0 6 12 35 27 24 4 22 42 6 20 35 10
34 27 31 28 29 23 24 25 22 25 16 11 6 11 14 5 15 9 21 3 17 28 19 20 20 29 36 21 33 41 33 16 10 1 3 17 1 0 1 2 0 11 7 13 6 0 0
31 28 25 38 45 51 37 23 11 18 46 29 13 15 21 9 10 12 16 7 13 16 4 18 25 9 7 27 27 14 0 1 5 5 12 13 0 0 0 0 0 0 0 0 0 0 0
30 35 33 23 30 32 36 34 29 29 47 3 27 22 25 1 7 14 23 18 12 17 12 24 32 14 34 25 11 2 2 0 1 0 2 7 17 12 0 0 0 0 0 0 0 0 0
21 21 25 29 16 25 31 44 27 20 46 87 18 48 29 10 13 6 3 11 30 16 5 15 10 1 13 5 0 5 7 19 1 3 4 3 3 11 0 1 0 2 0 0 0 0 0
5 6 8 4 4 3 13 15 12 16 40 93 5 41 40 15 0 24 18 21 6 7 8 14 6 4 4 0 3 4 11 2 6 10 3 8 5 11 15 2 1 0 2 0 0 0 9
13 10 8 6 0 0 1 10 14 22 35 42 40 44 40 9 0 0 2 15 28 14 10 12 14 1 2 0 3 20 27 34 25 11 3 4 9 0 6 9 1 3 16 0 0 22 4
10 10 11 13 6 6 6 26 34 31 25 39 8 33 37 6 0 8 5 3 2 29 11 16 0 1 1 4 13 17 11 12 12 34 10 6 8 8 10 8 12 20 18 2 36 13 5
11 12 10 9 4 9 1 12 10 1 3 9 20 20 33 31 3 13 11 0 7 11 6 12 2 4 9 17 15 15 18 9 6 6 25 7 11 19 9 11 79 54 108 30 1 0 0

GFSGBSN_con_mlcape_063.txt.gz
CAPE
0 0 0 0 3 4 0 0 0 0 1 13 14 5 2 3 3 1 0 0 0 0 0 0 0 4 2 0 0 0 0 0 0 0 0 0 0 0 0 0 0 0 0 0 0 0 0
0 9 5 7 4 3 3 4 0 0 1 15 9 2 0 0 0 0 0 0 0 0 0 0 1 10 1 0 0 0 0 0 0 0 0 0 0 0 0 0 0 0 0 0 0 0 0
17 5 9 10 13 14 6 4 0 0 1 8 11 0 0 0 0 0 0 0 0 0 0 0 2 0 0 0 0 0 0 0 0 0 0 0 0 0 0 0 0 0 0 0 0 0 0
9 18 10 2 6 8 7 4 2 3 0 7 14 2 0 0 0 0 0 0 0 0 0 0 0 3 0 0 0 0 0 0 0 0 0 0 0 0 0 0 0 0 0 0 0 0 0
12 15 7 2 8 10 9 9 2 9 11 9 8 0 0 0 0 0 0 0 0 0 0 0 0 1 0 0 0 0 0 0 0 0 0 0 0 0 0 0 0 0 0 0 0 0 0
2 2 10 19 17 9 3 6 9 3 13 2 6 0 0 0 0 0 0 0 0 0 0 0 0 0 0 0 0 0 0 0 0 0 0 0 0 0 0 0 0 0 0 0 0 0 0
2 9 8 6 1 2 11 16 21 5 7 5 0 0 0 0 0 0 0 0 0 0 0 0 0 0 0 0 0 0 0 0 0 0 0 0 0 0 0 0 0 0 0 0 0 0 0
7 0 5 4 3 0 2 6 9 16 2 4 0 0 0 0 0 0 0 0 4 1 0 0 0 0 0 0 0 0 0 0 0 0 0 0 0 0 0 0 0 0 0 0 0 0 0
16 16 16 9 9 10 9 9 5 23 16 7 1 0 0 0 0 0 0 0 6 3 0 0 0 0 0 0 0 0 0 0 0 0 0 1 0 0 0 0 0 0 0 0 0 0 0
13 16 14 21 28 25 23 19 9 9 19 7 8 6 0 0 0 0 0 0 3 16 0 0 0 0 0 0 0 0 0 0 0 0 0 1 0 0 4 0 0 0 0 0 0 0 0
24 20 21 14 23 22 26 14 15 13 14 12 15 5 0 0 0 0 0 0 0 8 0 0 0 0 0 0 0 0 0 0 0 1 0 1 0 2 7 0 0 0 0 0 0 0 0
5 4 17 18 17 18 12 20 16 15 22 23 17 10 2 0 0 0 0 0 2 1 0 0 0 0 0 0 0 0 0 0 0 0 1 0 0 0 0 0 6 0 0 0 0 0 0
6 1 2 10 18 8 16 22 18 22 13 14 13 12 2 0 0 0 0 0 0 0 0 0 0 0 0 0 0 0 0 0 0 0 0 0 0 0 0 0 0 0 0 0 0 0 0
7 8 6 12 20 21 11 18 26 7 16 2 5 7 0 0 0 0 0 1 0 0 0 0 0 0 0 0 0 0 0 0 0 0 0 0 0 0 0 0 0 0 0 0 0 0 0
18 17 15 20 19 25 10 9 23 16 10 8 3 0 0 0 0 0 1 0 0 0 0 0 0 0 0 0 0 0 0 0 0 0 0 0 0 0 0 0 0 0 0 0 0 0 0
11 25 14 25 15 0 1 12 13 4 3 2 0 0 0 0 1 1 12 0 0 0 0 0 0 0 0 0 0 0 42 17 18 0 0 0 0 0 0 0 0 0 0 0 0 0 0
23 27 8 13 20 17 3 17 18 19 6 8 0 3 0 0 1 23 3 0 0 0 0 0 0 0 0 0 0 0 18 18 0 0 0 1 0 0 0 0 0 0 0 0 1 0 0
21 26 22 24 27 30 24 24 23 22 4 1 4 4 5 2 0 16 0 0 0 0 0 0 0 0 0 0 0 1 0 3 0 0 0 0 0 0 0 0 0 4 9 0 0 0 0
24 14 25 27 27 16 23 29 22 15 7 2 3 0 0 3 8 0 0 0 0 0 0 0 0 0 0 0 0 0 0 2 0 0 0 0 4 0 0 0 0 0 0 0 0 0 0
18 23 27 31 33 39 35 25 22 4 7 5 4 0 0 0 0 0 2 0 0 0 0 0 0 0 0 0 0 0 0 6 0 1 0 0 0 4 0 2 0 0 1 0 0 0 0
15 20 25 28 28 33 38 25 8 9 8 6 4 0 0 1 0 0 0 0 1 4 2 0 0 0 0 1 6 3 10 0 0 2 2 0 0 0 0 0 1 0 0 0 0 0 3
19 21 24 26 23 36 17 11 10 1 17 6 0 2 0 0 1 10 0 0 0 0 0 1 12 13 0 1 13 3 21 8 0 15 22 12 0 0 0 0 9 3 0 0 0 1 9
28 30 37 35 36 34 40 28 14 14 34 15 4 0 0 0 0 0 0 1 0 4 0 1 0 15 19 33 14 34 14 16 0 1 10 19 5 0 0 0 0 0 0 10 0 0 0
23 28 35 35 36 35 45 38 31 27 24 4 1 6 4 0 0 0 0 0 0 0 0 8 1 0 19 9 3 28 22 1 0 5 2 0 0 2 0 0 0 0 0 2 0 0 0
19 22 24 27 27 25 25 24 34 25 21 8 1 4 10 0 0 0 0 0 0 0 0 1 7 10 0 0 0 0 0 0 0 0 0 0 0 0 0 0 0 0 0 0 25 14 0
27 23 17 10 8 7 13 17 21 19 30 19 2 10 1 2 0 0 0 5 0 0 0 0 61 19 2 0 1 0 0 0 0 0 0 0 0 0 9 0 0 0 0 0 0 0 0
2 5 12 13 4 2 2 1 6 11 21 20 0 1 2 0 0 0 0 0 4 0 0 0 22 13 0 0 0 0 0 0 0 0 0 0 0 0 0 4 0 0 0 0 0 0 0
6 5 2 1 0 5 10 6 6 5 5 22 3 11 3 0 0 1 0 0 0 1 2 0 0 2 0 0 0 0 0 0 0 0 0 0 0 4 1 0 0 0 0 0 0 0 0
20 7 5 11 7 3 12 9 13 13 3 15 14 4 5 2 2 0 0 0 0 0 0 1 0 0 4 2 0 0 0 0 3 0 0 0 0 11 0 0 31 78 75 16 0 0 0

GFSGBSN_con_mlcape_066.txt.gz
CAPE
1 0 0 0 0 2 3 1 5 0 0 11 14 4 1 1 0 0 0 0 0 0 0 0 4 7 0 0 0 0 0 0 0 0 0 0 0 0 0 0 0 0 0 0 0 0 0
3 2 6 4 8 7 6 5 2 0 0 0 15 5 1 0 0 0 0 0 0 0 0 0 3 6 0 0 0 0 0 0 0 0 0 0 0 0 0 0 0 0 0 0 0 0 0
10 14 9 12 8 6 5 7 3 4 4 0 6 2 0 0 0 0 0 0 0 0 0 0 1 1 0 0 0 0 0 0 0 0 0 0 0 0 0 0 0 0 0 0 0 0 0
7 19 12 3 2 9 10 10 7 0 4 1 0 0 0 0 0 0 0 0 0 0 0 0 0 0 0 0 0 0 0 0 0 0 0 0 0 0 0 0 0 0 0 0 0 0 0
9 9 16 28 26 18 7 15 12 3 3 2 0 0 0 0 0 0 0 0 0 0 0 0 0 0 0 0 0 0 0 0 0 0 0 0 0 0 0 0 0 0 0 0 0 0 0
8 6 8 15 11 9 8 11 8 12 1 0 0 0 0 0 0 0 0 0 0 0 0 0 0 0 0 0 0 0 0 0 0 0 0 0 0 0 0 0 0 0 0 0 0 0 0
15 2 7 14 8 0 0 1 1 1 7 0 0 0 0 0 0 0 0 0 0 0 0 0 0 0 0 0 0 0 0 0 0 0 0 0 0 0 0 0 0 0 0 0 0 0 0
13 20 17 13 4 1 5 3 2 4 15 7 0 0 0 0 0 0 0 0 1 4 0 0 0 0 0 0 0 0 0 0 0 0 0 0 0 0 0 0 0 0 0 0 0 0 0
7 19 17 14 16 18 19 19 13 7 3 8 0 0 0 0 0 0 0 0 0 0 0 0 0 0 0 0 0 0 0 0 0 0 0 0 0 0 0 0 0 0 0 0 0 0 0
16 15 19 13 4 10 18 19 16 13 5 6 8 1 0 0 0 0 0 0 0 0 0 0 0 0 0 0 0 0 0 0 0 0 0 0 0 0 0 0 0 0 0 0 0 0 0
7 0 1 13 10 10 2 11 12 10 8 8 14 9 3 0 0 0 0 0 0 0 0 0 0 0 0 0 0 0 0 0 0 0 0 0 0 0 0 0 5 2 9 0 0 0 0
2 0 0 0 5 6 8 1 11 13 6 10 8 17 10 0 0 0 0 0 0 0 0 0 0 0 0 0 0 0 0 0 0 0 0 0 0 0 0 1 31 19 3 0 0 0 0
5 0 0 0 3 16 14 3 5 20 12 15 6 15 16 0 0 0 0 0 0 0 0 0 0 0 0 0 0 0 0 0 0 0 0 0 0 0 3 0 11 16 4 0 0 0 0
4 5 15 13 13 9 11 10 2 8 16 14 13 2 0 0 0 0 0 0 0 0 0 0 0 0 0 0 0 0 0 0 0 0 0 0 0 0 0 0 0 1 0 0 0 0 0
8 3 11 11 20 7 6 4 1 0 2 10 5 0 0 0 0 0 0 0 0 0 0 0 0 0 0 0 0 0 0 0 0 0 0 0 0 0 0 0 0 0 0 0 0 0 0
9 9 9 11 6 12 6 0 3 5 17 6 0 0 0 0 0 2 0 0 0 0 0 0 0 0 0 0 0 1 5 14 16 0 0 0 0 0 0 0 3 3 1 0 0 0 0
0 8 12 11 2 6 15 7 0 5 6 9 0 0 0 0 0 17 2 0 0 0 0 0 0 0 0 0 0 0 32 33 0 0 0 0 0 0 0 0 0 0 0 0 0 0 0
1 3 19 25 14 24 23 19 11 8 16 1 0 0 0 0 0 12 2 0 0 0 0 0 0 0 0 0 0 0 0 1 0 0 0 0 2 0 0 0 0 0 0 2 0 0 0
10 13 25 14 19 24 23 10 13 20 27 1 6 0 0 0 0 0 1 2 0 0 0 0 0 0 0 0 0 0 0 0 0 0 0 0 0 0 0 0 0 1 0 0 2 1 0
21 4 11 19 24 21 23 23 26 22 7 6 6 0 0 0 0 1 0 2 0 0 0 0 0 0 0 0 0 0 0 0 0 0 0 0 0 0 0 7 0 8 2 0 2 0 0
1 1 14 19 18 17 19 17 28 11 8 15 0 0 0 0 4 0 9 0 0 0 1 0 0 0 0 0 0 0 5 0 1 1 7 0 0 0 0 0 0 0 1 0 1 0 0
6 19 24 18 20 13 14 25 17 3 15 2 0 0 0 0 0 0 1 0 0 11 7 0 0 0 2 12 0 0 1 0 0 20 24 33 0 0 0 0 0 0 10 4 1 5 2
24 26 29 38 31 21 18 28 27 10 13 1 1 1 1 0 0 0 0 1 0 0 0 15 0 0 0 8 23 5 1 24 1 0 15 34 5 0 0 0 0 0 0 12 2 7 6
22 24 27 32 33 42 42 37 34 31 27 0 0 7 0 0 0 0 0 0 0 3 1 0 1 3 0 5 1 0 3 11 1 0 0 1 4 0 0 0 0 0 0 0 29 20 8
21 22 23 23 25 28 34 27 24 20 14 6 0 8 6 0 6 0 0 0 0 0 0 1 0 0 5 9 0 0 0 0 0 0 0 0 0 0 0 0 0 0 0 0 6 0 0
23 31 32 27 32 24 24 18 10 10 22 13 0 2 4 0 0 0 0 0 0 0 0 1 9 16 1 0 0 0 0 0 0 0 0 0 0 0 0 0 0 0 2 0 0 0 0
6 3 4 9 8 6 5 5 1 6 29 9 1 0 5 5 0 0 0 0 0 0 0 1 0 6 0 0 0 0 0 0 0 0 0 0 0 0 0 0 0 0 2 0 0 0 1
6 9 10 11 9 2 3 0 0 3 17 11 1 1 2 4 0 0 0 0 0 0 0 0 0 1 0 0 0 0 0 0 0 0 0 0 0 0 0 1 0 0 0 0 1 0 0
0 9 10 5 10 12 8 4 4 9 19 28 7 1 2 7 0 0 0 0 0 0 8 4 0 1 0 0 0 0 0 0 0 0 1 0 0 4 0 0 0 0 0 0 0 0 0

GFSGBSN_con_mlcape_069.txt.gz
CAPE
0 0 0 0 0 2 4 4 4 0 0 0 0 15 6 5 1 0 0 0 0 0 0 0 0 4 0 0 0 0 0 0 0 0 0 0 0 0 0 0 0 0 0 0 0 0 0
1 1 4 1 7 6 9 6 5 0 0 3 2 10 1 0 0 0 0 0 0 0 0 0 2 2 0 0 0 0 0 0 0 0 0 0 0 0 0 0 0 0 0 0 0 0 0
4 8 15 12 5 0 0 7 5 0 0 7 6 7 0 0 0 0 0 0 0 0 0 0 2 2 0 0 0 0 0 0 0 0 0 0 0 0 0 0 0 0 0 0 0 0 0
1 17 18 16 12 12 10 12 18 11 4 3 4 0 0 0 0 0 0 0 0 0 0 0 2 3 0 0 0 0 0 0 0 0 0 0 0 0 0 0 0 0 0 0 0 0 0
7 8 4 12 15 15 22 21 21 17 19 5 0 0 0 0 0 0 0 0 0 0 0 0 0 0 0 0 0 0 0 0 0 0 0 0 0 0 0 0 0 0 0 0 0 0 0
11 4 2 9 17 14 9 9 9 6 7 6 0 0 0 0 0 0 0 0 0 0 0 0 0 0 0 0 0 0 0 0 0 0 0 0 0 0 0 0 0 0 0 0 0 0 0
14 23 8 8 13 9 10 8 3 2 7 8 0 0 0 0 0 0 0 0 0 0 0 0 0 0 0 0 0 0 0 0 0 0 0 0 0 0 0 0 0 0 0 0 0 0 0
15 15 21 21 24 20 18 21 17 10 2 0 0 0 0 0 0 0 0 0 0 0 0 0 0 0 0 0 0 0 0 0 0 0 0 0 0 0 0 0 0 0 0 0 0 0 0
5 7 20 20 14 16 31 25 21 7 1 0 0 0 0 0 0 0 0 0 0 0 0 0 0 0 0 0 0 0 0 0 0 0 0 0 0 0 0 0 0 0 0 0 0 0 0
13 11 12 18 22 13 15 18 13 4 1 0 0 1 4 0 0 0 0 0 0 0 0 0 0 0 0 0 0 0 0 0 0 0 0 0 0 0 0 0 0 0 0 0 0 0 0
7 4 0 0 14 11 7 7 9 10 9 3 0 0 7 0 0 0 0 0 0 0 0 0 0 0 0 0 0 0 0 0 0 0 0 0 0 0 0 0 0 0 1 10 0 0 0
2 1 0 0 0 1 13 8 5 10 12 7 5 0 4 0 0 0 0 0 0 0 0 0 0 0 0 0 0 0 0 0 0 0 0 0 0 0 0 0 0 0 6 0 2 0 0
3 0 0 3 2 0 13 15 1 0 0 0 7 4 0 0 0 0 0 0 0 0 0 0 0 0 0 0 0 0 0 0 0 0 0 0 0 0 0 0 0 1 7 0 0 0 0
6 3 5 15 13 19 11 14 0 0 0 2 9 0 0 0 0 0 0 0 0 0 0 0 0 0 0 0 0 0 0 0 0 0 0 0 0 0 0 0 0 0 8 1 0 0 0
2 1 2 8 6 13 8 2 0 0 2 14 0 0 0 0 0 0 0 0 0 0 0 0 0 0 0 0 0 0 0 0 0 0 0 0 0 0 0 0 0 2 1 2 1 0 0
0 5 6 12 13 4 12 6 0 0 14 10 0 0 0 0 0 1 1 0 0 0 0 0 0 0 0 0 0 0 0 2 0 0 0 0 0 0 0 0 0 0 5 2 0 1 0
2 2 0 12 13 9 3 8 3 6 22 7 0 0 0 0 0 5 1 0 0 0 0 0 0 0 0 0 0 0 1 14 9 0 0 0 0 0 0 0 0 2 1 0 1 6 1
4 2 3 7 15 12 11 10 10 16 19 0 0 0 0 0 1 3 0 0 0 0 0 0 0 0 0 0 0 0 0 0 0 4 0 0 4 0 0 0 0 0 0 2 0 0 0
5 4 12 14 11 8 11 11 7 21 18 0 0 0 0 0 0 0 1 0 11 0 0 0 0 1 0 0 0 0 0 0 0 0 0 0 3 0 0 0 1 7 6 3 3 0 0
5 11 5 0 4 8 8 14 17 20 19 2 2 0 0 0 0 0 0 0 0 1 4 2 1 0 0 0 0 0 0 0 0 0 0 0 0 0 0 0 4 3 1 7 4 0 0
23 7 0 0 7 6 10 12 12 21 8 3 0 0 0 0 1 0 0 1 0 0 0 0 0 2 1 3 0 0 0 0 12 10 0 0 0 0 0 0 0 0 0 3 1 1 0
7 0 2 18 11 9 5 9 16 21 2 9 0 0 0 0 0 0 3 1 1 0 0 0 1 1 2 2 2 0 0 6 2 3 4 12 0 0 0 0 0 0 0 1 19 8 16
8 13 18 19 17 18 15 10 19 29 7 2 1 0 0 0 0 0 0 0 0 0 0 0 0 0 0 0 10 18 13 6 14 0 0 0 21 0 0 0 0 0 0 0 3 1 5
30 24 22 21 17 19 20 30 37 36 15 0 0 0 0 0 0 0 0 0 0 0 0 0 0 0 0 0 0 0 2 7 0 0 0 0 5 1 0 0 0 0 0 0 0 1 0
13 11 14 15 15 19 22 21 31 31 19 1 0 6 0 0 0 0 0 0 0 0 0 0 0 0 0 2 6 8 0 0 0 0 0 0 0 0 0 0 0 0 5 0 0 0 0
14 19 16 26 23 19 19 15 4 28 11 2 1 1 0 0 0 0 0 0 0 0 0 0 0 0 2 0 0 0 0 0 0 0 0 0 0 0 0 0 0 0 0 5 0 0 0
20 4 0 0 0 2 7 9 15 19 10 2 0 0 5 9 0 0 0 0 0 0 0 1 0 0 1 0 0 0 0 1 0 0 0 0 0 0 0 0 0 0 0 0 0 0 0
6 17 15 13 17 14 17 15 16 17 24 7 1 0 1 0 0 2 0 0 0 0 0 0 0 0 0 0 0 0 0 0 0 0 0 0 0 0 0 1 0 0 0 0 0 0 0
27 11 0 8 14 12 13 13 10 8 17 29 3 1 0 6 0 0 0 0 0 0 0 0 0 7 0 0 0 0 0 0 0 0 7 0 0 0 0 0 0 0 0 0 0 0 0

GFSGBSN_con_mlcape_072.txt.gz
CAPE
0 0 0 0 0 4 7 5 3 0 0 0 1 1 4 3 0 0 0 0 0 0 0 0 0 3 0 0 0 0 0 0 0 0 0 0 0 0 0 0 0 0 0 0 0 0 0
0 0 0 0 6 9 6 7 6 0 0 0 4 2 3 1 0 0 0 0 0 0 0 0 1 2 0 0 0 0 0 0 0 0 0 0 0 0 0 0 0 0 0 0 0 0 0
5 8 6 16 2 0 2 3 9 8 3 1 2 0 0 0 0 0 0 0 0 0 0 0 3 3 1 0 0 0 0 0 0 0 0 0 0 0 0 0 0 0 0 0 0 0 0
0 6 16 13 11 12 12 13 14 13 11 14 0 0 0 0 0 0 0 0 0 0 0 0 1 1 0 0 0 0 0 0 0 0 0 0 0 0 0 0 0 0 0 0 0 0 0
11 4 0 1 4 0 5 11 13 6 3 7 16 11 2 0 0 0 0 0 0 0 0 0 0 0 0 0 0 0 0 0 0 0 0 0 0 0 0 0 0 0 0 0 0 0 0
14 5 0 0 9 10 5 3 0 0 5 5 15 4 0 0 0 0 0 0 0 0 0 0 0 0 0 0 0 0 0 0 0 0 0 0 0 0 0 0 0 0 0 0 0 0 0
9 12 14 9 4 6 6 8 13 11 5 4 0 0 0 0 0 0 0 0 0 0 0 0 0 0 0 0 0 0 0 0 0 0 0 0 0 0 0 0 0 0 0 0 0 0 0
11 11 12 15 13 23 30 32 26 14 5 1 0 0 0 0 0 0 0 0 0 0 0 0 0 0 0 0 0 0 0 0 0 0 0 0 0 0 0 0 0 0 0 0 0 0 0
5 5 9 14 16 12 12 20 12 10 4 0 0 0 0 0 0 0 0 0 0 0 0 0 0 0 0 0 0 0 0 0 0 0 0 0 0 0 0 0 0 0 0 0 0 0 0
12 9 6 8 17 11 5 8 20 14 6 0 0 0 0 0 0 0 0 0 0 0 0 0 0 0 0 0 0 0 0 0 0 0 0 0 0 0 0 0 0 0 0 0 0 0 0
9 3 1 0 0 2 2 4 3 3 0 0 0 0 0 0 0 0 0 0 0 0 0 0 0 0 0 0 0 0 0 0 0 0 0 0 0 0 0 0 0 0 0 1 2 0 0
5 2 0 0 0 0 7 13 3 0 0 0 2 0 0 0 0 0 0 0 0 0 0 0 0 0 0 0 0 0 0 0 0 0 0 0 0 0 0 0 0 0 0 1 0 0 0
5 0 0 1 7 8 4 12 10 0 0 0 0 0 0 0 0 0 0 0 0 0 0 0 0 0 0 0 0 0 0 0 0 0 0 0 0 0 0 0 0 0 5 0 0 0 0
6 4 3 11 12 14 9 10 3 0 0 0 0 0 0 0 0 0 0 0 0 0 0 0 0 0 0 0 0 0 0 0 0 0 0 0 0 0 0 0 0 0 0 0 0 0 0
6 2 2 1 10 10 13 7 0 0 2 0 0 0 0 0 0 0 0 0 0 0 0 0 0 0 0 0 0 0 0 0 0 0 0 0 0 0 0 0 0 0 0 3 5 0 0
0 0 11 8 17 8 0 5 7 4 10 0 0 0 0 0 0 0 0 0 0 0 0 0 0 0 0 0 0 0 0 0 0 0 0 0 0 0 0 0 0 0 3 2 0 1 0
4 1 0 3 14 13 10 11 11 14 3 0 0 0 0 0 0 0 0 0 0 0 0 0 0 0 0 0 0 0 0 6 0 1 0 0 0 0 0 0 0 0 1 0 0 0 0
10 0 0 2 15 10 8 6 8 17 2 0 0 0 0 0 0 0 0 0 0 0 0 0 0 0 0 0 0 0 0 0 0 0 0 0 1 0 0 0 1 6 2 0 0 0 1
17 0 10 11 20 9 8 9 13 17 1 0 0 0 0 0 0 0 1 0 0 0 0 0 0 0 0 0 0 0 0 0 0 0 0 0 0 0 0 7 11 15 17 0 0 0 0
17 3 11 7 1 11 7 6 10 13 6 0 0 0 0 0 0 0 0 0 0 0 0 1 0 0 0 0 0 0 0 0 0 0 0 0 0 0 0 0 0 0 0 0 0 0 0
2 23 19 3 1 9 11 3 3 14 8 0 0 0 0 0 0 0 0 0 0 1 0 0 0 1 5 5 1 0 0 0 0 0 3 0 0 0 0 0 0 0 0 0 0 0 0
10 23 3 0 17 10 3 0 14 8 4 0 1 0 0 0 0 0 0 0 0 0 0 0 0 0 0 2 0 9 0 0 0 0 0 4 0 0 0 0 0 0 0 0 0 0 1
16 9 3 17 21 18 13 13 13 17 2 1 5 0 0 0 0 0 0 0 0 0 0 0 0 0 0 0 2 0 0 1 0 0 12 16 2 0 0 0 0 0 0 0 0 0 0
8 8 31 27 22 20 17 12 4 29 2 0 0 0 0 0 0 0 0 0 0 0 0 0 0 0 3 1 0 0 0 0 1 4 4 7 0 0 0 0 0 0 0 0 5 6 1
24 39 34 24 19 19 22 24 32 44 17 0 0 1 0 0 0 0 0 0 0 0 0 0 0 1 0 0 1 7 5 9 1 0 2 4 0 0 0 0 0 0 7 2 10 0 0
30 20 13 11 12 16 18 21 22 25 21 0 0 3 1 0 0 0 0 0 0 0 0 0 0 0 2 7 15 0 0 0 0 2 0 0 0 0 0 0 0 0 0 0 0 0 0
29 20 15 12 6 5 8 9 8 3 4 0 0 0 3 2 0 0 0 0 0 0 0 0 0 0 0 0 0 0 0 11 3 0 4 0 0 0 0 0 0 0 0 0 0 0 0
27 20 9 7 8 5 9 10 8 17 24 1 0 0 0 1 1 0 0 0 0 0 0 0 0 0 0 0 0 0 0 0 0 0 0 0 0 0 0 0 0 0 0 0 0 1 0
38 16 9 19 14 14 21 21 25 26 27 19 6 0 0 1 0 0 0 0 0 0 0 0 0 0 0 0 0 0 0 0 0 0 0 0 0 1 0 0 0 0 0 0 0 3 2

GFSGBSN_con_mlcape_075.txt.gz
CAPE
0 0 0 0 0 0 3 4 0 0 0 0 1 2 1 2 1 0 0 0 0 0 0 0 0 1 0 0 0 0 0 0 0 0 0 0 0 0 0 0 0 0 0 0 0 0 0
0 0 0 0 0 10 0 0 0 0 1 0 2 2 2 1 0 0 0 0 0 0 0 0 2 2 0 0 0 0 0 0 0 0 0 0 0 0 0 0 0 0 0 0 0 0 0
0 5 15 13 7 0 0 0 1 6 6 4 6 5 2 0 0 0 0 0 0 0 0 0 1 1 0 0 0 0 0 0 0 0 0 0 0 0 0 0 0 0 0 0 0 0 0
7 11 12 12 12 12 4 4 3 3 0 0 0 5 1 0 0 0 0 0 0 0 0 0 0 0 0 0 0 0 0 0 0 0 0 0 0 0 0 0 0 0 0 0 0 0 0
13 16 5 4 1 0 0 0 0 0 0 0 0 0 0 0 0 0 0 0 0 0 0 0 0 0 0 0 0 0 0 0 0 0 0 0 0 0 0 0 0 0 0 0 0 0 0
30 9 1 0 0 2 0 0 0 0 0 0 0 0 0 0 0 0 0 0 0 0 0 0 0 0 0 0 0 0 0 0 0 0 0 0 0 0 0 0 0 0 0 0 0 0 0
15 7 7 0 1 3 3 4 11 7 0 0 0 0 0 0 0 0 0 0 0 0 0 0 0 0 0 0 0 0 0 0 0 0 0 0 0 0 0 0 0 0 0 0 0 0 0
15 8 6 16 14 16 19 20 14 5 0 0 0 0 0 0 0 0 0 0 0 0 0 0 0 0 0 0 0 0 0 0 0 0 0 0 0 0 0 0 0 0 0 0 0 0 0
11 6 6 9 11 9 5 7 6 0 0 0 0 0 0 0 0 0 0 0 0 0 0 0 0 0 0 0 0 0 0 0 0 0 0 0 0 0 0 0 0 0 0 0 0 0 0
20 3 5 10 13 5 1 2 1 0 0 0 0 0 0 0 0 0 0 0 0 0 0 0 0 0 0 0 0 0 0 0 0 0 0 0 0 0 0 0 0 0 0 0 0 0 0
2 2 0 0 1 1 0 0 0 0 0 0 0 0 0 0 0 0 0 0 0 0 0 0 0 0 0 0 0 0 0 0 0 0 0 0 0 0 0 0 0 0 0 0 0 0 0
10 4 1 0 0 0 4 10 7 0 0 0 0 0 0 0 0 0 0 0 0 0 0 0 0 0 0 0 0 0 0 0 0 0 0 0 0 0 0 0 0 0 0 0 0 3 2
11 3 0 0 1 5 5 12 14 0 0 0 0 0 0 0 0 0 0 0 0 0 0 0 0 0 0 0 0 0 0 0 0 0 0 0 0 0 0 0 0 0 0 0 0 1 0
10 4 6 11 9 12 10 4 0 0 0 0 0 0 0 0 0 0 0 0 0 0 0 0 0 0 0 0 0 0 0 0 0 0 0 0 0 0 0 0 0 0 0 0 0 0 0
13 7 2 4 9 15 12 8 3 0 0 0 0 0 0 0 0 0 0 0 0 0 0 0 0 0 0 0 0 0 0 0 0 0 0 0 0 0 0 0 0 0 0 2 0 0 2
1 5 7 1 19 5 2 6 5 0 0 0 0 0 0 0 0 0 0 0 0 0 0 0 0 0 0 0 0 0 0 5 2 0 0 0 0 0 0 0 0 0 1 3 0 0 0
0 0 0 2 11 9 9 11 15 9 0 0 0 0 0 0 0 0 0 0 0 0 0 0 0 0 0 0 0 0 0 0 0 0 0 0 0 0 0 0 0 2 0 0 0 0 0
2 0 0 0 13 12 11 14 17 12 0 0 0 0 0 0 0 0 0 0 0 0 0 0 0 0 0 0 0 0 0 0 0 0 32 0 0 0 0 0 0 3 4 0 0 0 0
12 0 0 8 17 10 8 17 19 7 0 0 0 0 0 0 0 0 0 0 0 0 0 0 0 0 0 0 0 0 0 0 0 0 2 1 5 26 1 2 1 1 1 4 3 0 0
21 0 1 5 7 18 11 11 16 7 0 0 0 0 0 0 0 0 0 0 0 0 0 0 0 0 0 0 2 0 0 0 0 0 2 2 0 0 0 0 0 0 0 0 1 0 0
0 7 0 16 2 12 11 10 12 12 0 0 0 0 0 0 0 0 0 0 0 0 0 0 0 0 0 1 0 0 0 0 0 0 1 1 0 0 1 0 0 0 0 0 0 0 0
0 5 18 9 7 19 15 17 17 12 2 0 0 0 0 0 0 0 0 0 0 0 0 0 0 0 0 0 1 0 1 1 3 0 0 1 0 1 0 0 0 0 0 0 0 0 0
20 13 20 10 19 20 15 12 18 12 0 0 0 1 0 0 0 0 0 0 0 0 0 0 0 0 0 0 0 1 1 1 1 0 0 1 0 4 0 0 0 0 0 0 0 0 4
26 20 12 6 25 22 23 19 15 16 0 0 0 0 0 0 0 0 0 0 0 0 0 0 0 0 0 3 0 0 0 0 0 0 1 0 0 9 0 0 0 0 0 0 8 7 0
23 9 7 33 34 26 22 20 19 11 2 0 0 0 0 0 0 0 0 0 0 0 0 0 0 0 0 0 1 1 0 0 0 0 0 0 5 0 0 0 0 0 0 0 1 0 0
14 28 29 21 22 24 21 21 24 25 15 0 0 1 2 0 0 0 0 0 0 0 0 0 0 0 0 0 2 0 0 0 0 5 0 0 0 0 0 0 0 0 0 0 0 0 0
19 14 23 14 14 19 12 17 16 22 18 0 0 0 1 1 0 0 0 0 0 0 0 0 0 0 0 0 0 0 0 0 0 0 1 3 1 0 0 0 0 0 0 0 0 0 0
33 32 28 26 9 11 3 2 7 6 11 0 0 0 0 0 0 0 0 0 0 0 0 0 0 0 0 0 0 0 0 0 1 0 4 0 0 0 0 1 0 0 0 0 0 1 0
32 30 20 8 14 19 12 16 24 26 21 1 0 0 0 0 0 0 0 0 0 0 0 0 0 0 0 0 0 0 0 0 0 0 4 0 0 16 0 0 0 2 0 1 1 2 3

GFSGBSN_con_mlcape_078.txt.gz
CAPE
1 1 1 0 0 0 0 0 0 0 0 0 0 0 0 0 1 0 0 0 0 0 0 0 1 1 0 0 0 0 0 0 0 0 0 0 0 0 0 0 0 0 0 0 0 0 0
6 3 1 0 0 0 0 0 0 0 0 1 0 1 1 0 0 0 0 0 0 0 0 0 2 1 0 0 0 0 0 0 0 0 0 0 0 0 0 0 0 0 0 0 0 0 0
15 2 0 2 2 6 0 0 0 2 2 0 0 0 1 0 0 0 0 0 0 0 0 0 1 2 0 0 0 0 0 0 0 0 0 0 0 0 0 0 0 0 0 0 0 0 0
14 5 10 3 4 2 4 2 0 0 0 0 0 0 0 0 0 0 0 0 0 0 0 0 1 1 0 0 0 0 0 0 0 0 0 0 0 0 0 0 0 0 0 0 0 0 0
31 15 9 6 2 0 0 0 0 0 0 0 0 0 0 0 0 0 0 0 0 0 0 0 1 0 0 0 0 0 0 0 0 0 0 0 0 0 0 0 0 0 0 0 0 0 0
47 43 32 4 0 2 0 0 0 0 0 0 0 0 0 0 0 0 0 0 0 0 1 6 0 0 0 0 0 0 0 0 0 0 0 0 0 0 0 0 0 0 0 0 0 0 0
42 56 33 5 4 0 0 0 0 2 0 0 0 0 0 0 0 0 0 0 0 0 0 0 0 0 0 0 0 0 0 0 0 0 0 0 0 0 0 0 0 0 0 0 0 0 0
46 37 34 12 10 12 13 15 3 0 0 0 0 0 0 0 0 0 0 0 0 0 0 0 0 0 0 0 0 0 0 0 0 0 0 0 0 0 0 0 0 0 0 0 0 0 0
37 29 23 30 7 2 0 0 0 0 0 0 0 0 0 0 0 0 0 0 0 0 0 0 0 0 0 0 0 0 0 0 0 0 0 0 0 0 0 0 0 0 0 0 0 0 0
22 22 20 26 16 2 0 0 0 0 0 0 0 0 0 0 0 0 0 0 0 0 0 0 0 0 0 0 0 0 0 0 0 0 0 0 0 0 0 0 0 0 0 0 0 0 0
18 16 26 17 1 0 0 0 0 0 0 0 0 0 0 0 0 0 0 0 0 0 0 0 0 0 0 0 0 0 0 0 0 0 0 0 0 0 0 0 0 0 0 0 0 0 0
14 20 6 0 0 3 10 4 0 0 0 0 0 0 0 0 0 0 0 0 0 0 0 0 0 0 0 0 0 0 0 0 0 0 0 0 0 0 0 0 0 0 0 0 0 3 0
24 9 0 0 2 0 0 4 3 0 0 0 0 0 0 0 0 0 0 0 0 0 0 0 0 0 0 0 0 0 0 0 0 0 0 0 0 0 0 0 0 0 0 0 2 2 0
5 1 5 18 14 16 14 4 0 0 0 0 0 0 0 0 0 0 0 0 0 0 0 0 0 0 0 0 0 0 0 0 0 0 0 0 0 0 0 0 0 0 0 0 1 1 2
5 7 8 11 8 14 9 2 0 0 0 0 0 0 0 0 0 0 0 0 0 0 0 0 0 0 0 0 0 0 0 0 0 0 0 0 0 0 0 0 0 19 3 13 12 1 7
9 6 2 3 10 1 1 1 0 0 0 0 0 0 0 0 0 0 0 0 0 0 0 0 0 0 0 0 0 0 0 28 23 6 0 0 0 0 6 0 0 23 20 0 3 1 6
0 0 1 11 9 1 0 5 0 0 0 0 0 0 0 0 0 0 0 0 0 0 0 0 0 0 0 0 0 0 0 25 3 35 41 0 0 28 41 33 15 4 6 0 0 1 14
0 0 0 0 4 6 8 11 4 0 0 0 0 0 0 0 0 0 0 0 0 0 0 0 0 0 0 0 0 0 0 5 11 18 82 20 17 6 14 16 3 15 7 8 3 8 1
4 0 0 0 12 8 12 10 0 0 0 0 0 0 0 0 0 0 0 0 0 0 4 1 3 3 2 1 3 0 0 0 30 20 1 1 38 16 11 34 20 13 16 0 0 0 3
15 0 0 1 2 18 9 6 1 0 0 0 0 0 0 0 0 0 0 0 0 2 0 0 2 8 3 4 7 3 7 20 28 2 0 1 14 55 12 1 9 33 9 1 0 0 1
17 4 1 0 0 12 8 6 3 0 0 0 0 0 0 2 3 0 0 0 0 0 0 0 0 0 1 2 1 17 7 1 0 19 8 0 2 13 2 0 0 2 0 0 0 0 0
0 0 0 4 0 5 11 16 4 0 0 0 0 1 0 3 1 0 0 0 0 0 0 0 0 0 0 0 3 4 19 20 7 18 2 0 3 15 5 0 5 0 0 0 0 0 0
0 0 5 0 0 18 15 19 8 2 0 3 2 1 4 0 2 0 0 0 0 0 0 1 0 0 0 1 2 1 0 1 1 1 1 0 0 13 6 0 2 0 0 0 0 0 10
0 3 16 7 4 27 25 25 15 2 0 0 2 1 5 0 0 0 0 0 0 0 1 1 0 8 1 0 0 5 1 0 0 1 5 0 1 1 1 0 0 0 0 0 0 4 2
0 10 10 4 11 29 27 22 10 15 0 0 0 4 7 3 0 0 0 0 0 1 0 0 0 5 0 2 5 1 32 16 1 0 5 11 5 4 8 0 0 0 0 0 0 11 2
26 16 0 0 10 20 21 26 19 15 2 2 8 6 1 2 0 0 0 0 0 2 0 0 0 0 8 7 2 2 12 5 0 0 7 0 2 12 1 0 0 23 0 0 0 1 2
28 17 3 6 5 18 22 26 24 26 18 6 8 0 3 2 0 0 4 4 5 5 2 1 0 0 1 7 3 1 0 6 6 1 0 15 30 12 13 5 2 0 0 0 0 0 3
19 22 22 17 19 21 15 8 11 11 16 2 9 1 6 4 1 0 0 0 4 6 6 4 0 5 1 6 4 1 0 25 26 6 9 3 4 1 5 4 1 0 1 0 0 3 2
8 14 19 11 20 14 14 3 2 7 6 5 15 5 16 9 2 0 0 0 0 0 2 3 1 5 6 4 2 2 5 11 28 27 11 7 46 35 32 17 1 2 2 5 3 4 5

GFSGBSN_con_mlcape_081.txt.gz
CAPE
11 8 2 3 0 0 0 0 0 0 0 0 0 0 0 0 1 1 0 0 0 0 0 0 0 1 0 0 0 0 0 0 0 0 0 0 0 0 0 0 0 0 0 0 0 0 0
6 7 4 2 0 0 0 1 0 0 0 0 0 0 0 0 0 0 0 0 0 0 0 0 0 1 0 0 0 0 0 0 0 0 0 0 0 0 0 0 0 0 0 0 0 0 0
5 6 7 2 1 0 6 0 0 0 0 0 0 0 0 0 0 0 0 0 0 0 0 0 0 0 0 0 0 0 0 0 0 0 0 0 0 0 0 0 0 0 0 0 0 0 0
8 18 10 7 11 10 4 0 0 0 0 0 0 0 0 0 0 0 0 0 0 0 0 0 0 0 0 0 0 0 0 0 0 0 0 0 0 0 0 0 0 0 0 0 0 0 0
8 10 15 22 35 9 8 3 0 0 0 0 0 0 0 0 0 0 0 0 0 0 0 0 0 0 0 0 0 0 0 0 0 0 0 0 0 0 0 0 0 0 0 0 0 0 0
14 13 35 46 28 5 0 1 0 0 0 0 0 0 0 0 0 0 0 0 0 0 0 0 0 0 0 0 0 0 0 0 0 0 0 0 0 0 0 0 0 0 0 0 0 0 0
14 25 45 30 24 25 13 5 0 0 0 0 0 0 0 0 0 0 0 0 0 0 0 0 0 0 0 0 0 0 0 0 0 0 0 0 0 0 0 0 0 0 0 0 0 0 0
16 17 13 21 30 43 15 5 10 2 0 0 0 0 0 0 0 0 0 0 0 0 0 0 0 0 0 0 0 0 0 0 0 0 0 0 0 0 0 0 0 0 0 0 0 0 0
6 25 37 30 46 48 29 20 5 0 0 0 0 0 0 0 0 0 0 0 0 0 0 0 0 0 0 0 0 0 0 0 0 0 0 0 0 0 0 0 0 0 0 0 0 3 0
25 21 15 39 27 21 13 8 2 0 0 0 0 0 0 0 0 0 0 0 0 0 0 0 0 0 0 0 0 0 0 0 0 0 0 0 0 0 0 0 0 0 0 3 2 0 0
19 16 10 37 26 7 3 0 0 0 0 0 0 0 0 0 0 0 0 0 0 0 0 0 0 0 0 0 0 0 0 0 0 0 0 0 0 0 0 0 0 0 7 7 4 0 0
20 11 19 22 19 9 2 4 0 0 0 0 0 0 0 0 0 0 0 0 0 0 0 0 0 0 0 0 0 0 0 0 0 0 0 0 0 0 0 0 0 0 4 2 0 0 0
5 8 13 5 0 7 12 16 1 0 0 0 0 0 0 0 0 0 0 0 0 0 0 0 0 0 0 0 0 0 0 1 0 5 4 22 9 1 0 0 0 2 13 0 0 5 0
14 10 8 8 0 3 10 14 0 0 0 0 0 0 0 0 0 0 0 0 0 0 0 0 0 0 0 0 0 0 0 0 0 3 1 0 11 1 0 0 1 0 0 0 1 1 6
16 16 6 7 11 19 11 1 0 0 0 0 0 0 0 0 0 0 0 0 0 0 0 0 0 0 0 0 0 0 0 0 0 25 11 6 17 1 5 0 0 17 0 0 0 0 0
18 7 15 12 27 13 6 0 0 0 0 0 0 0 0 0 0 0 0 0 0 0 0 0 0 0 0 0 0 0 0 4 32 32 24 0 13 23 42 12 0 0 36 15 5 1 8
11 2 7 18 16 0 0 0 0 0 0 0 0 0 0 0 0 0 0 0 0 0 0 0 0 0 0 0 0 0 0 4 58 28 48 70 27 3 40 50 32 27 3 14 23 36 15
1 0 12 16 8 8 10 0 0 0 0 0 0 0 0 0 0 0 0 0 0 0 0 0 0 0 0 0 0 0 0 0 2 21 10 43 74 14 11 35 55 39 43 18 18 1 20
0 0 0 3 19 14 6 0 0 0 0 0 0 0 0 0 0 0 0 0 0 0 0 0 0 1 2 6 3 0 0 0 0 0 8 0 16 20 26 44 39 16 10 55 31 15 0
0 0 0 9 13 6 1 0 0 0 0 0 0 0 0 0 0 0 0 0 0 2 4 1 3 3 7 8 13 9 17 11 14 58 7 6 0 6 6 2 23 18 33 62 36 3 8
8 1 3 0 13 3 0 0 0 0 0 0 1 0 0 0 0 0 0 0 0 0 0 2 0 1 0 1 0 4 11 14 18 1 0 32 4 0 7 3 17 1 3 41 27 6 0
11 2 3 0 0 6 0 0 0 0 0 3 0 0 0 0 0 0 0 0 0 0 0 4 0 2 1 1 4 0 13 15 15 46 54 43 0 7 0 36 15 0 8 0 2 0 0
3 0 0 0 0 0 1 0 0 0 0 3 0 0 1 0 0 0 0 0 0 0 0 0 5 3 3 11 14 1 0 0 3 7 0 8 12 3 0 59 13 0 0 0 1 4 8
0 5 7 10 2 0 1 0 0 0 0 6 4 1 5 1 0 0 0 0 0 0 0 1 3 3 0 11 0 0 2 14 41 7 2 3 4 3 0 20 14 0 0 2 3 24 23
0 0 2 14 13 12 5 0 0 0 0 8 0 9 6 2 0 0 0 0 0 0 0 3 4 7 0 1 7 5 6 17 45 18 9 4 3 0 1 4 0 0 6 32 14 23 2
0 5 9 5 5 21 20 9 0 6 0 10 13 16 11 12 0 0 0 0 0 3 7 10 9 1 5 12 9 3 2 0 25 21 0 4 17 0 0 0 1 43 12 1 0 9 2
1 12 19 5 14 18 26 16 6 5 0 5 8 9 13 4 4 0 5 4 1 5 4 16 8 7 10 5 5 14 0 8 18 3 0 17 9 0 4 10 15 2 0 0 0 1 7
2 14 12 10 8 3 12 19 15 16 8 1 17 14 9 4 6 1 0 0 4 6 5 14 3 12 6 8 14 1 0 54 35 46 29 20 5 5 2 18 18 0 13 7 3 1 2
4 11 13 3 0 1 11 6 1 11 5 0 13 15 8 7 2 0 0 0 0 0 7 8 8 6 10 4 5 3 6 16 34 26 55 12 6 19 7 3 3 3 1 4 2 5 4

GFSGBSN_con_mlcape_084.txt.gz
CAPE
1 1 7 6 1 2 2 1 0 0 0 0 0 0 1 1 2 1 0 0 0 0 0 0 0 1 0 0 0 0 0 0 0 0 0 0 0 0 0 0 0 0 0 0 0 0 0
2 0 6 1 0 6 4 1 2 2 0 0 0 0 0 0 0 0 0 0 0 0 0 0 0 2 0 0 0 0 0 0 0 0 0 0 0 0 0 0 0 0 0 0 0 0 0
3 0 7 3 2 3 1 4 6 0 0 2 0 0 0 0 0 0 0 0 0 0 0 0 0 0 0 0 0 0 0 0 0 0 0 0 0 0 0 0 0 0 0 0 0 0 0
5 6 6 3 4 8 12 13 0 0 0 0 0 0 0 0 0 0 0 0 0 0 0 0 0 0 0 0 0 0 0 0 0 0 0 0 0 0 0 0 0 0 0 0 0 0 0
5 4 6 8 11 2 6 15 1 7 0 0 0 0 0 0 0 0 0 0 0 0 0 0 0 0 0 0 0 0 0 0 0 0 0 0 0 0 0 0 0 0 0 0 0 0 0
6 5 9 7 2 5 24 15 18 4 0 0 0 0 0 0 0 0 0 0 0 0 0 0 0 0 0 0 0 0 0 0 0 0 0 0 0 0 0 0 0 0 0 0 0 0 0
8 8 7 2 3 33 23 17 17 1 4 0 0 0 0 0 0 0 0 0 0 0 0 0 0 0 0 0 0 0 0 0 0 0 0 0 0 0 0 0 0 0 0 0 0 0 0
7 6 4 24 21 15 15 32 29 9 0 0 0 0 0 0 0 0 0 0 0 0 0 0 0 0 0 0 0 0 0 0 0 0 0 0 0 0 0 0 0 0 0 0 0 0 0
3 10 19 5 1 4 13 37 41 18 0 0 0 0 0 0 0 0 0 0 0 0 0 0 0 0 0 0 0 0 0 0 0 0 0 0 0 0 0 0 0 0 0 0 0 0 0
11 9 2 11 18 23 32 53 13 0 2 0 0 0 0 0 0 0 0 0 0 0 0 0 0 0 0 0 0 0 0 0 0 0 0 0 0 0 0 0 0 0 0 0 19 6 0
9 38 37 30 36 19 16 18 17 4 0 0 0 0 0 0 0 0 0 0 0 0 0 0 0 0 0 0 0 0 0 0 0 0 0 0 0 0 0 0 0 0 0 7 9 11 10
8 14 23 30 19 14 10 8 0 0 0 0 0 0 0 0 0 0 0 0 0 0 0 0 0 0 0 0 0 0 0 0 0 0 0 0 0 0 0 0 0 0 0 0 3 3 1
25 26 13 3 4 5 11 1 2 6 0 0 0 0 0 0 0 0 0 0 8 0 0 0 0 0 0 0 0 0 0 1 0 0 0 6 1 0 0 0 0 0 0 0 0 0 0
12 11 8 10 9 4 1 0 2 5 0 0 0 0 0 0 0 0 0 0 0 0 0 0 0 0 0 0 0 0 0 0 0 0 0 0 0 23 34 1 0 0 0 3 0 0 0
8 8 7 4 2 6 0 9 11 3 0 0 0 0 0 0 0 0 0 0 0 0 0 0 0 0 0 0 0 0 0 0 0 0 0 22 17 26 15 3 0 2 0 0 3 0 0
12 12 19 9 14 3 3 11 2 0 0 0 0 0 0 0 0 0 0 0 0 0 0 0 0 0 0 0 0 0 0 0 0 25 28 11 1 0 8 15 12 0 6 15 1 1 0
3 1 1 12 9 3 2 1 0 0 0 0 0 0 0 0 0 0 0 0 0 0 0 0 0 0 0 0 0 0 0 0 0 0 0 0 8 6 75 57 77 16 6 0 28 11 6
7 10 0 4 4 0 0 0 0 0 0 0 0 0 0 0 0 0 0 0 0 0 0 0 0 0 0 0 0 0 0 0 0 0 0 2 0 0 22 44 74 77 29 51 7 0 13
5 0 7 14 13 7 3 0 0 0 0 0 0 0 0 0 0 0 0 0 0 0 0 0 0 0 0 0 0 0 0 0 0 0 10 34 4 6 0 0 3 13 26 46 77 14 0
0 0 0 0 14 0 0 0 0 0 0 0 0 0 0 0 0 0 0 0 0 0 0 0 0 0 0 1 0 0 0 11 8 16 8 13 1 3 0 8 0 0 29 34 51 22 2
0 0 0 3 2 0 0 0 0 0 0 0 1 1 0 0 0 0 0 0 0 0 0 0 0 0 0 1 4 4 10 7 7 7 2 17 0 1 0 2 0 0 1 0 1 5 6
0 0 0 0 1 0 0 0 0 0 0 0 0 6 0 0 0 0 0 0 0 0 0 1 0 0 1 1 1 5 13 6 0 0 2 17 1 0 0 0 1 11 0 0 0 0 1
12 2 1 0 0 0 0 0 0 0 0 5 0 0 0 0 0 0 0 0 0 0 0 0 0 0 0 0 1 4 0 0 0 0 0 1 6 1 0 0 0 0 0 5 7 1 0
8 2 0 0 0 0 0 0 0 0 0 0 0 0 0 0 0 0 0 0 0 0 0 0 1 3 0 2 0 0 0 0 0 0 1 0 0 7 2 1 0 0 0 1 12 60 6
8 4 6 12 0 4 0 0 0 0 0 0 0 0 2 0 0 0 0 0 0 0 0 0 3 3 0 0 2 1 0 0 0 0 5 26 0 4 7 2 0 0 24 4 11 1 0
0 0 2 15 10 16 6 0 0 0 0 0 2 0 0 12 0 0 0 0 0 1 3 5 4 8 0 8 6 3 2 0 1 6 27 13 5 3 0 0 0 0 5 0 0 0 0
0 0 0 9 11 21 16 2 0 0 0 0 10 4 8 1 0 0 3 3 0 3 1 19 4 1 21 2 2 1 0 1 0 10 0 2 2 0 0 0 0 1 0 0 0 0 2
1 1 7 4 7 14 11 12 0 0 0 0 28 15 12 2 4 1 0 0 3 3 9 10 0 0 2 7 9 1 0 0 5 1 0 0 8 6 0 1 0 0 0 0 1 2 1
0 1 6 0 8 0 0 13 10 0 0 0 31 10 2 2 1 0 0 0 0 0 0 2 2 6 4 4 2 4 3 2 1 3 7 0 0 0 0 0 3 3 4 3 1 4 3

GFSGBSN_con_mlcape_087.txt.gz
CAPE
3 2 2 0 0 0 0 0 2 0 0 0 0 0 0 1 0 0 0 0 0 0 0 0 0 1 0 0 0 0 0 0 0 0 0 0 0 0 0 0 0 0 0 0 0 0 0
3 2 2 1 1 3 0 0 2 0 0 0 0 0 0 0 0 0 0 0 0 0 0 0 0 2 0 0 0 0 0 0 0 0 0 0 0 0 0 0 0 0 0 0 0 0 0
1 2 3 2 4 7 0 0 3 0 0 0 0 0 0 0 0 0 0 0 0 0 0 0 0 2 0 0 0 0 0 0 0 0 0 0 0 0 0 0 0 0 0 0 0 0 0
12 2 2 3 6 3 1 0 4 13 3 0 6 0 0 0 0 0 0 0 0 0 0 0 2 0 0 0 0 0 0 0 0 0 0 0 0 0 0 0 0 0 0 0 0 0 0
15 3 3 3 5 3 4 4 4 15 10 12 0 0 0 0 0 0 0 0 0 0 0 0 0 0 0 0 0 0 0 0 0 0 0 0 0 0 0 0 0 0 0 0 0 0 0
19 14 6 4 3 3 4 2 4 7 15 14 1 0 0 0 0 0 0 0 0 0 0 0 0 0 0 0 0 0 0 0 0 0 0 0 0 0 0 0 0 0 0 0 0 0 0
34 29 3 3 4 6 3 1 9 9 4 3 11 0 0 0 0 0 0 0 0 0 0 0 0 0 0 0 0 0 0 0 0 0 0 0 0 0 0 0 0 0 0 0 0 0 0
64 66 2 6 8 4 2 17 6 0 3 15 9 0 0 0 0 0 0 0 0 0 0 0 0 0 0 0 0 0 0 0 0 0 0 0 0 0 0 0 0 0 0 0 0 0 0
148 1 4 10 4 7 19 6 4 7 34 13 0 0 0 0 0 0 0 0 0 0 0 0 0 0 0 0 0 0 0 0 0 0 0 0 0 0 0 0 0 0 0 0 0 0 0
2 3 17 14 10 5 9 11 6 18 14 0 0 0 0 0 0 0 0 0 0 0 0 0 0 0 0 0 0 0 0 0 0 0 0 0 0 0 0 0 0 0 0 0 0 0 0
5 7 7 6 3 2 7 17 17 4 0 0 0 0 0 0 0 0 0 0 0 0 0 0 0 0 0 0 0 0 0 0 0 0 0 0 0 0 0 0 0 0 0 0 0 0 0
13 5 1 3 15 16 7 1 3 4 0 0 0 0 0 0 0 0 0 0 0 0 0 0 0 0 0 0 0 0 0 0 0 0 0 0 0 0 0 0 0 0 0 0 0 0 0
8 20 35 21 13 6 3 8 7 0 0 0 0 0 0 0 0 0 0 0 0 0 0 0 0 0 0 0 0 0 0 0 0 0 0 0 0 0 0 0 0 0 0 0 0 0 0
19 7 4 8 10 8 4 2 0 1 0 0 0 0 0 0 0 0 0 0 0 0 0 0 0 0 0 0 0 0 0 0 0 1 0 0 0 0 0 0 0 0 0 0 0 0 0
8 2 0 0 2 0 0 13 0 0 0 0 0 0 0 0 0 0 0 0 0 0 0 0 0 0 0 0 0 0 0 0 0 0 0 0 0 0 5 12 0 0 0 0 5 0 0
7 6 5 5 5 5 15 6 0 0 0 0 0 0 0 0 0 0 0 0 0 0 0 0 0 0 0 0 0 0 0 0 0 0 0 0 0 0 4 0 3 0 6 11 6 3 0
6 10 7 19 24 10 1 0 3 0 0 0 0 0 0 0 0 0 0 0 0 0 0 0 0 0 0 0 0 0 0 0 0 0 0 0 0 0 0 1 7 22 38 37 29 18 1
4 5 3 9 0 0 0 0 0 0 0 0 0 0 0 0 0 0 0 0 0 0 0 0 0 0 0 0 0 0 0 0 0 0 0 0 0 0 0 0 0 0 62 56 15 2 6
3 8 21 19 1 1 4 1 0 0 0 0 0 0 0 0 0 0 0 0 0 0 0 0 0 0 0 0 0 0 0 0 0 0 0 0 0 0 0 0 6 0 0 0 0 0 0
1 5 7 11 6 5 5 0 0 0 0 0 0 0 0 0 0 0 0 0 0 0 0 0 0 0 0 0 0 0 0 0 0 0 0 0 0 0 0 0 0 0 0 0 0 0 0
0 0 0 14 8 0 0 0 0 0 0 0 0 0 0 0 0 0 0 0 0 0 0 0 0 0 0 0 0 0 0 0 0 0 0 3 0 0 0 0 0 1 0 0 0 0 0
0 0 0 0 3 1 0 0 0 0 0 0 0 0 0 0 0 0 0 0 0 0 0 0 0 0 0 0 0 0 0 0 0 0 0 0 0 0 0 0 0 0 0 0 1 0 1
0 0 0 0 4 2 0 0 0 0 0 0 0 0 0 0 0 0 0 0 0 0 0 0 0 0 0 0 0 0 0 0 0 0 0 0 0 0 0 0 1 0 0 0 2 10 2
3 0 0 0 0 2 0 0 0 0 0 0 0 0 0 0 0 0 0 0 0 0 0 0 0 0 0 0 0 0 0 0 0 0 0 0 0 2 0 0 0 0 14 21 25 1 3
9 9 1 0 0 0 0 0 0 0 0 0 0 0 0 0 0 0 0 0 0 0 0 0 0 0 0 0 0 0 0 0 0 0 0 0 0 1 0 0 0 0 1 2 6 1 0
15 16 15 13 6 7 0 0 0 0 0 0 0 0 0 0 0 0 0 0 0 0 0 0 0 0 0 0 0 0 0 0 0 0 0 0 0 0 0 0 0 0 0 0 0 1 0
2 6 6 13 7 6 0 0 0 0 0 0 0 0 0 0 0 0 0 0 0 0 0 0 0 0 0 0 0 0 0 0 0 0 2 0 0 0 0 0 0 0 0 0 0 0 0
1 0 0 3 2 9 5 0 0 0 0 0 0 0 0 0 0 0 0 0 0 0 0 0 0 0 0 0 1 0 0 0 0 2 13 2 1 0 0 0 0 1 0 0 0 2 0
0 0 0 0 0 1 1 0 0 0 0 0 0 0 0 0 0 0 0 0 0 0 0 0 0 1 0 0 0 0 0 0 0 0 0 2 0 0 0 0 1 2 1 1 1 3 3

GFSGBSN_con_mlcape_090.txt.gz
CAPE
17 2 1 2 0 0 0 0 0 0 0 0 0 0 0 0 0 0 0 0 0 0 0 0 0 2 0 0 0 0 0 0 0 0 0 0 0 0 0 0 0 0 0 0 0 0 0
11 25 9 2 2 1 1 2 0 0 0 0 0 0 0 0 0 0 0 0 0 0 0 0 0 1 0 0 0 0 0 0 0 0 0 0 0 0 0 0 0 0 0 0 0 0 0
2 11 16 13 1 2 2 4 4 0 0 1 0 0 0 0 0 0 0 0 0 0 0 0 1 0 0 0 0 0 0 0 0 0 0 0 0 0 0 0 0 0 0 0 0 0 0
0 4 14 21 1 1 2 4 2 3 2 5 6 5 3 0 0 0 0 0 0 0 0 0 0 1 0 0 0 0 0 0 0 0 0 0 0 0 0 0 0 0 0 0 0 0 0
1 0 6 20 14 5 2 3 3 3 2 2 5 10 0 0 0 0 0 0 0 0 0 0 3 1 0 0 0 0 0 0 0 0 0 0 0 0 0 0 0 0 0 0 0 0 0
1 4 2 9 29 15 2 2 3 3 4 6 4 1 0 0 0 0 0 0 0 0 0 5 0 0 0 0 0 0 0 0 0 0 0 0 0 0 0 0 0 0 0 0 0 0 0
2 3 9 3 20 4 3 5 3 1 1 6 4 0 0 0 0 0 0 0 0 0 0 0 0 0 0 0 0 0 0 0 0 0 0 0 0 0 0 0 0 0 0 0 0 0 0
1 3 6 19 42 2 3 5 4 4 6 0 0 0 0 0 0 0 0 0 0 0 0 0 0 0 0 0 0 0 0 0 0 0 0 0 0 0 0 0 0 0 0 0 0 0 0
59 61 98 43 87 2 8 11 9 4 0 0 2 6 0 0 0 0 0 0 0 0 0 0 0 0 0 0 0 0 0 0 0 0 0 0 0 0 0 0 0 0 0 0 0 0 0
11 192 187 57 3 7 21 10 3 0 1 4 0 0 0 0 0 0 0 0 0 0 0 0 0 0 0 0 0 0 0 0 0 0 0 0 0 0 0 0 0 0 0 0 0 0 0
0 1 4 16 23 16 8 12 14 21 0 0 0 0 0 0 0 0 0 0 0 0 0 0 0 0 0 0 0 0 0 0 0 0 0 0 0 0 0 0 0 0 0 0 0 0 0
0 0 13 23 13 18 23 23 5 0 0 0 0 0 0 0 0 0 0 0 0 0 0 0 0 0 0 0 0 0 0 0 0 0 0 0 0 0 0 0 0 0 0 0 0 0 0
4 6 6 2 3 8 14 10 4 0 0 0 0 0 0 0 0 0 0 0 0 4 0 0 0 0 0 0 0 0 0 0 0 0 0 0 0 0 0 0 0 0 0 0 0 0 0
8 7 9 10 12 10 3 0 0 0 0 0 0 0 0 0 0 0 0 0 1 0 0 0 0 0 0 0 0 0 0 0 0 0 0 0 0 0 0 0 0 0 0 0 0 0 0
9 5 3 3 3 2 3 3 0 0 0 0 0 0 0 0 0 0 0 1 0 0 0 0 0 0 0 0 0 0 0 0 0 0 0 0 0 0 0 0 0 0 0 2 1 0 0
3 1 0 0 0 0 2 0 0 0 0 0 0 0 0 0 0 0 3 13 0 0 0 0 0 0 0 0 0 0 0 0 0 0 0 0 0 0 0 0 0 0 0 5 1 0 0
6 4 9 9 7 10 12 0 0 0 0 0 0 0 0 0 0 3 0 0 0 0 0 0 0 0 0 0 0 0 0 0 0 0 0 0 0 0 0 0 0 0 0 0 0 11 5
6 7 21 27 16 11 0 0 0 0 0 0 0 0 0 0 0 2 0 0 0 0 0 0 0 0 0 0 0 0 0 0 0 0 0 0 0 0 0 0 0 0 0 18 9 0 1
2 8 0 7 4 4 0 0 0 0 0 0 0 0 0 0 0 0 0 0 0 0 0 0 0 0 0 0 0 0 0 0 0 0 0 0 0 0 0 0 0 0 0 0 1 1 2
5 8 10 10 13 2 0 0 0 0 0 0 0 0 0 0 0 0 0 0 0 0 0 0 0 0 0 0 0 0 0 0 0 0 0 0 0 0 0 0 0 0 0 0 0 0 0
0 7 14 16 6 0 0 0 0 0 0 0 0 0 0 0 0 0 0 0 0 0 0 0 0 0 0 0 0 0 0 0 0 0 0 0 0 0 0 0 0 0 0 0 0 0 1
0 0 14 10 1 0 0 0 0 0 0 0 0 0 0 0 0 0 0 0 0 0 0 0 0 0 0 0 0 0 0 0 0 0 0 0 0 0 0 0 0 0 0 0 0 0 0
0 0 1 20 10 0 0 0 0 0 0 0 0 0 0 0 0 0 0 0 0 0 0 0 0 0 0 0 0 0 0 0 0 0 0 0 0 0 0 0 0 0 4 0 0 13 1
0 0 0 0 2 0 0 0 0 0 0 0 0 0 0 0 0 0 0 0 0 0 0 0 0 0 0 0 0 0 0 0 0 0 0 0 0 0 0 0 0 2 6 22 22 1 1
0 3 2 0 0 0 0 0 0 0 0 0 0 0 0 0 0 0 0 0 0 0 0 0 0 0 0 0 0 0 0 0 0 0 0 0 0 0 0 0 0 0 1 0 0 0 0
13 15 3 2 0 0 0 0 0 0 0 0 0 0 0 0 0 0 0 0 0 0 0 0 0 0 0 0 0 0 0 0 0 0 0 0 0 0 0 0 0 0 2 2 0 0 0
8 13 9 10 0 3 0 0 0 0 0 0 0 0 0 0 0 0 0 0 0 0 0 0 0 0 0 0 0 0 0 0 0 0 0 0 1 0 0 0 0 0 0 1 0 0 1
1 8 1 1 0 0 0 0 0 0 0 0 0 0 0 0 0 0 0 0 0 0 0 0 0 0 0 0 0 0 0 0 0 0 0 0 0 0 0 0 0 0 0 0 0 1 1
8 6 1 7 1 0 0 0 0 0 0 0 0 0 0 0 0 0 0 0 0 0 0 0 0 0 0 0 0 0 0 0 0 0 0 0 0 0 0 0 0 0 0 0 0 2 1

GFSGBSN_con_mlcape_093.txt.gz
CAPE
0 0 2 14 12 0 1 1 0 0 0 0 0 0 0 0 0 0 0 0 0 0 0 0 0 1 0 0 0 0 0 0 0 0 0 0 0 0 0 0 0 0 0 0 0 0 0
0 0 0 1 15 19 3 2 2 0 0 0 0 0 0 0 0 0 0 0 0 0 0 0 0 2 0 0 0 0 0 0 0 0 0 0 0 0 0 0 0 0 0 0 0 0 0
0 0 0 0 1 12 17 4 2 2 1 0 0 0 0 0 0 0 0 0 0 0 0 0 0 2 0 0 0 0 0 0 0 0 0 0 0 0 0 0 0 0 0 0 0 0 0
0 0 0 0 2 2 3 5 1 2 2 2 3 1 1 7 0 0 0 0 0 0 0 0 0 5 0 0 0 0 0 0 0 0 0 0 0 0 0 0 0 0 0 0 0 0 0
0 0 0 2 2 6 6 11 2 2 2 2 3 3 1 3 0 0 0 0 0 0 0 0 0 1 0 0 0 0 0 0 0 0 0 0 0 0 0 0 0 0 0 0 0 0 0
0 0 0 2 2 5 11 10 11 2 2 3 4 0 2 1 0 0 0 0 0 0 0 1 4 0 0 0 0 0 0 0 0 0 0 0 0 0 0 0 0 0 0 0 0 0 0
0 0 3 1 1 4 22 22 10 2 2 3 2 3 0 0 0 0 0 0 0 0 0 0 0 0 0 0 0 0 0 0 0 0 0 0 0 0 0 0 0 0 0 0 0 0 0
0 0 3 2 4 8 11 34 10 2 3 4 4 1 0 0 0 0 1 0 0 0 0 0 0 0 0 0 0 0 0 0 0 0 0 0 0 0 0 0 0 0 0 0 0 0 0
0 0 0 5 6 20 24 65 1 3 3 4 2 0 0 0 0 0 0 0 0 0 0 0 0 0 0 0 0 0 0 0 0 0 0 0 0 0 0 0 0 0 0 0 0 0 0
0 0 0 50 71 82 121 3 3 5 5 4 4 6 0 0 0 0 0 0 0 0 0 0 0 0 0 0 0 0 0 0 0 0 0 0 0 0 0 0 0 0 0 0 0 0 0
0 0 2 4 1 1 3 6 7 5 4 11 1 0 0 0 0 0 0 0 0 0 0 0 0 0 0 0 0 0 0 0 0 0 0 0 0 0 0 0 0 0 0 0 0 0 0
0 0 0 0 0 4 12 13 12 7 3 1 0 0 0 0 0 0 0 0 0 0 0 0 0 0 0 0 0 0 0 0 0 0 0 0 0 0 0 0 0 0 0 0 0 0 0
1 2 2 0 0 0 0 0 1 2 1 2 0 0 0 0 0 0 0 0 0 0 0 0 0 0 0 0 0 0 0 0 0 0 0 0 0 0 0 0 0 0 0 0 0 0 0
12 9 6 4 4 3 3 1 0 0 0 0 0 0 0 0 0 0 0 0 0 0 0 0 0 0 4 0 0 3 1 0 0 0 0 0 0 0 0 0 0 0 0 0 0 0 0
16 16 15 11 6 4 2 1 0 0 0 0 0 0 0 0 0 0 4 0 0 0 0 0 0 0 0 0 0 0 0 0 0 0 0 0 0 0 0 0 0 0 0 0 0 0 0
11 8 4 2 2 3 2 0 0 0 0 0 0 0 0 0 0 1 22 2 4 0 0 0 0 0 0 0 0 0 0 0 0 0 0 0 0 0 0 0 0 0 0 1 0 0 0
12 10 7 2 2 10 1 0 0 0 0 0 0 0 2 2 0 26 2 4 0 0 0 0 0 0 0 0 0 0 0 0 0 0 0 0 0 0 0 0 0 0 0 0 0 0 1
16 16 16 14 9 17 9 7 0 0 0 0 0 0 0 0 0 22 27 0 0 0 0 0 0 0 0 0 0 0 0 0 0 0 0 0 0 0 0 0 0 0 0 0 0 0 0
7 15 29 23 19 2 1 2 0 0 0 0 0 0 0 0 7 0 0 0 0 0 0 0 0 0 0 0 0 0 0 0 0 0 0 0 0 0 0 0 0 0 0 0 0 0 0
3 10 7 3 1 0 2 0 0 0 0 0 0 0 0 0 1 0 0 0 0 0 0 0 0 0 0 0 0 0 0 0 0 0 0 0 0 0 0 0 0 0 0 0 0 0 0
3 7 11 15 20 1 0 0 0 0 0 0 0 0 0 0 0 0 0 0 0 0 0 0 0 0 0 0 0 0 0 0 0 0 0 0 0 0 0 0 0 0 0 0 0 0 0
12 17 24 21 15 0 0 0 0 0 0 0 0 0 0 0 0 0 0 0 0 0 0 0 0 0 0 0 0 0 0 0 0 0 0 0 0 0 0 0 0 0 0 0 0 0 0
0 1 23 8 1 0 0 0 0 0 0 0 0 0 0 0 0 0 0 0 0 0 0 0 0 0 0 0 0 0 0 0 0 0 0 0 0 0 0 0 0 0 0 2 0 0 0
0 6 21 21 10 0 0 0 0 0 0 0 0 0 0 0 0 0 0 0 0 0 0 0 0 0 0 0 0 0 0 0 0 0 0 0 0 0 0 0 0 0 0 0 10 0 1
0 1 10 0 1 0 0 0 0 0 0 0 0 0 0 0 0 0 0 0 0 0 0 0 0 0 0 0 0 0 0 0 0 0 0 0 0 0 0 0 0 0 0 0 0 0 1
2 0 5 0 2 0 0 0 0 0 0 0 0 0 0 0 0 0 0 0 0 0 0 0 0 0 0 0 0 0 0 0 0 0 0 0 0 0 0 0 0 0 2 2 0 0 1
7 11 7 0 0 0 0 0 0 0 0 0 0 0 0 0 0 0 0 0 0 0 0 0 0 0 0 0 0 0 0 0 0 0 0 0 1 0 0 0 0 2 0 0 0 0 1
6 15 3 0 3 0 0 0 0 0 0 0 0 0 0 0 0 0 0 0 0 0 0 0 0 0 0 0 0 0 0 0 0 0 0 0 0 0 0 0 0 0 0 0 0 1 1
2 13 6 2 6 0 0 0 0 0 0 0 0 0 0 0 0 0 0 0 0 0 0 0 0 0 0 0 0 0 0 0 0 0 0 0 0 0 0 0 0 0 0 0 0 0 2

GFSGBSN_con_mlcape_096.txt.gz
CAPE
1 0 0 0 0 0 0 26 11 1 0 1 0 0 0 0 1 0 0 0 0 0 0 0 0 0 0 0 0 0 0 0 0 0 0 0 0 0 0 0 0 0 0 0 0 0 0
4 2 0 0 0 0 0 0 17 11 3 1 1 1 0 2 0 0 1 0 0 0 0 0 0 0 0 0 0 0 0 0 0 0 0 0 0 0 0 0 0 0 0 0 0 0 0
4 2 0 0 0 0 0 0 0 8 7 4 1 2 2 1 0 0 0 0 0 0 0 0 0 2 0 0 0 0 0 0 0 0 0 0 0 0 0 0 0 0 0 0 0 0 0
9 3 0 0 0 4 3 2 3 6 14 11 1 2 2 1 0 0 0 0 0 0 0 0 1 4 0 0 0 0 0 0 0 0 0 0 0 0 0 0 0 0 0 0 0 0 0
16 6 0 2 3 1 1 1 2 11 12 10 5 2 2 1 0 0 0 0 0 0 0 0 7 2 0 0 0 0 0 0 0 0 0 0 0 0 0 0 0 0 0 0 0 0 0
14 5 0 0 0 0 2 1 2 6 18 19 4 2 2 1 0 0 0 0 0 0 0 0 15 1 0 0 0 0 0 0 0 0 0 0 0 0 0 0 0 0 0 0 0 0 0
16 4 0 0 0 0 4 2 1 9 19 23 3 2 3 1 2 0 0 0 0 0 7 0 0 0 0 0 0 0 0 0 0 0 0 0 0 0 0 0 0 0 0 0 0 0 0
18 3 0 0 0 0 4 4 5 14 17 15 2 3 3 3 0 0 0 0 0 0 0 0 0 0 0 0 0 0 0 0 0 0 0 0 0 0 0 0 0 0 0 0 0 0 0
12 8 0 0 0 1 7 4 12 17 24 5 2 4 5 2 2 3 0 0 0 0 0 0 0 0 0 0 0 0 0 0 0 0 0 0 0 0 0 0 0 0 0 0 0 0 0
10 9 2 0 1 1 0 8 13 10 3 2 3 5 4 4 0 0 0 0 0 0 0 0 0 0 0 0 0 0 0 0 0 0 0 0 0 0 0 0 0 0 0 0 0 0 0
8 15 6 0 0 0 0 18 2 1 3 4 7 3 1 0 0 0 0 0 0 2 0 0 0 0 0 0 0 0 0 0 0 0 0 0 0 0 0 0 0 0 0 0 0 0 0
9 7 3 2 0 3 2 1 5 6 6 5 5 5 1 0 0 0 0 13 35 0 0 0 0 0 0 0 0 0 0 0 0 0 0 0 0 0 0 0 0 0 0 0 0 0 0
11 2 4 1 0 0 0 0 0 0 0 1 1 0 0 0 0 0 2 13 0 0 0 0 0 0 0 0 0 0 0 0 0 0 0 0 0 0 0 0 0 0 0 0 0 0 0
24 20 3 4 3 3 2 3 2 1 1 1 0 0 2 0 0 0 16 3 0 0 0 0 0 0 0 0 0 1 0 0 0 0 0 0 0 0 0 0 0 0 0 0 0 0 0
20 15 15 8 7 6 4 2 1 0 0 0 0 0 0 0 0 1 3 0 0 0 0 0 0 0 0 0 0 0 0 0 0 0 0 0 0 0 0 0 0 0 0 0 0 0 0
20 15 17 13 5 5 1 1 1 1 0 0 0 0 0 0 6 14 0 0 0 0 0 0 0 0 0 0 0 0 0 0 0 0 0 0 0 0 0 0 0 0 0 0 0 0 0
20 15 18 17 19 10 2 0 0 0 0 0 0 0 0 6 3 3 0 0 0 0 0 0 0 0 0 0 0 0 0 0 0 0 0 0 0 0 0 0 0 0 0 0 0 0 1
12 19 21 15 12 19 1 0 0 0 10 0 1 0 14 8 11 25 0 2 0 0 0 0 0 0 0 0 0 0 0 0 0 0 0 0 0 0 0 0 0 0 0 0 0 0 0
8 13 14 17 15 24 13 3 2 0 0 0 4 1 0 1 4 2 4 0 0 0 0 0 0 0 0 0 0 0 0 0 0 0 0 0 0 0 0 0 0 0 0 0 0 0 0
13 11 24 32 27 7 9 5 0 0 0 0 0 0 2 1 0 0 0 0 0 0 0 0 0 0 0 0 0 0 0 0 0 0 0 0 0 0 0 0 0 0 0 0 0 0 0
3 4 12 9 3 2 8 1 0 0 0 0 0 0 0 0 0 0 0 0 0 0 0 0 0 0 0 0 0 0 0 0 0 0 0 0 0 0 0 0 0 0 0 0 0 0 0
0 0 15 11 10 9 0 0 0 0 0 0 0 0 0 0 0 0 0 0 0 0 0 0 0 0 0 0 0 0 0 0 0 0 0 0 0 0 0 0 0 0 0 0 0 0 0
0 8 12 18 8 0 0 0 0 0 0 0 0 0 0 0 0 0 0 0 0 0 0 0 0 0 0 0 0 0 0 0 0 0 0 0 0 0 0 0 0 0 0 0 0 0 0
2 3 18 12 0 0 0 0 0 0 0 0 0 0 0 0 0 0 0 0 0 0 0 0 0 0 0 0 0 0 0 0 0 0 0 0 0 0 0 0 0 0 0 0 0 0 0
0 17 21 13 8 0 0 0 0 0 0 0 0 0 0 0 0 0 0 0 0 0 0 0 0 0 0 0 0 0 0 0 0 0 0 0 0 0 0 0 0 0 0 1 0 0 0
1 16 21 0 7 0 0 0 0 0 0 0 0 0 0 0 0 0 0 0 0 0 0 0 0 0 0 0 0 0 0 0 0 0 0 0 0 0 0 0 0 0 0 2 1 0 0
1 0 1 2 0 0 0 0 0 0 0 0 0 0 0 0 0 0 0 0 0 0 0 0 0 0 0 0 0 0 0 0 0 0 0 0 1 0 0 0 0 0 1 0 0 0 0
7 8 0 0 0 0 0 0 0 0 0 0 0 0 0 0 0 0 0 0 0 0 0 0 0 0 0 0 0 0 0 0 0 0 0 0 0 0 0 0 0 0 0 0 0 0 0
20 9 1 8 0 0 0 0 0 0 0 0 0 0 0 0 0 0 0 0 0 0 0 0 0 0 0 0 0 0 0 0 0 0 0 0 0 0 0 0 0 0 0 0 0 0 0

GFSGBSN_con_mlcape_099.txt.gz
CAPE
1 1 2 2 0 0 0 0 0 0 2 8 3 0 1 1 1 0 0 0 0 0 0 0 0 0 0 0 0 0 0 0 0 0 0 0 0 0 0 0 0 0 0 0 0 0 0
3 1 1 1 0 0 0 0 0 1 0 0 13 1 2 2 2 2 0 0 0 0 0 0 0 0 0 0 0 0 0 0 0 0 0 0 0 0 0 0 0 0 0 0 0 0 0
2 5 3 2 0 0 0 0 0 2 2 4 7 12 3 6 2 1 0 0 0 0 0 0 0 2 0 0 0 0 0 0 0 0 0 0 0 0 0 0 0 0 0 0 0 0 0
6 6 3 5 0 0 0 0 0 0 3 2 7 15 4 8 2 1 0 0 0 0 0 0 0 0 0 0 0 0 0 0 0 0 0 0 0 0 0 0 0 0 0 0 0 0 0
4 5 8 4 1 0 0 0 0 0 2 3 4 23 17 8 1 2 0 0 0 0 0 0 0 0 0 0 0 0 0 0 0 0 0 0 0 0 0 0 0 0 0 0 0 0 0
2 6 11 6 0 0 0 0 2 1 1 0 2 26 14 1 2 1 0 0 0 0 0 1 2 1 0 0 0 0 0 0 0 0 0 0 0 0 0 0 0 0 0 0 0 0 0
5 4 17 5 0 0 1 0 2 1 1 0 5 23 5 1 2 1 0 0 0 1 3 0 0 0 0 0 0 0 0 0 0 0 0 0 0 0 0 0 0 0 0 0 0 0 0
3 15 11 1 0 2 2 1 0 7 3 2 12 19 1 2 5 1 0 0 0 0 0 0 0 0 0 0 0 0 0 0 0 0 0 0 0 0 0 0 0 0 0 0 0 0 0
16 13 11 1 2 0 1 1 8 3 5 15 19 6 2 3 4 0 0 0 0 0 0 0 0 0 0 0 0 0 0 0 0 0 0 0 0 0 0 0 0 0 0 0 0 0 0
9 10 15 10 4 0 0 0 0 8 12 26 29 1 2 5 0 1 0 0 0 0 0 0 0 0 0 0 0 0 0 0 0 0 0 0 0 0 0 0 0 0 0 0 0 0 0
7 15 26 13 11 0 0 0 8 6 11 7 2 4 5 0 0 0 0 0 0 0 0 0 0 0 0 0 0 0 0 0 0 0 0 0 0 0 0 0 0 0 0 0 0 0 0
19 17 15 21 5 2 1 2 2 3 4 4 4 3 0 0 0 0 0 0 0 0 0 0 0 0 0 0 0 0 0 0 0 0 0 0 0 0 0 0 0 0 0 0 0 0 0
31 20 8 9 6 1 0 0 0 1 1 1 0 0 0 0 0 1 0 1 0 0 0 0 0 0 0 0 0 0 0 0 0 0 0 0 0 0 0 0 0 0 0 0 0 0 0
17 32 17 0 2 2 4 3 3 2 2 2 1 0 1 0 1 0 0 0 0 0 0 0 0 0 0 0 0 0 0 0 0 0 0 0 0 0 0 0 0 0 0 0 0 0 0
17 19 26 13 4 4 4 4 4 3 3 0 0 0 0 0 0 4 0 0 0 0 0 0 0 0 0 0 0 0 0 0 0 0 3 0 0 0 0 0 0 0 0 0 0 0 0
27 21 20 11 10 4 3 4 4 2 1 0 0 0 0 0 0 1 0 0 0 0 0 0 0 0 0 0 0 0 0 0 0 0 0 0 0 0 0 0 0 0 0 0 0 0 0
55 26 16 15 16 9 4 3 5 2 0 0 0 0 0 0 4 0 0 0 0 0 0 0 0 0 0 0 0 0 0 0 0 0 0 0 0 0 0 0 0 0 0 0 0 0 0
92 38 19 15 31 18 9 2 0 2 0 0 0 0 0 0 0 0 0 0 0 0 0 0 0 0 0 0 0 0 0 0 0 0 0 0 0 0 0 0 0 0 0 0 0 0 0
125 39 12 8 21 28 7 1 0 6 0 0 1 2 1 2 0 0 0 0 0 0 0 0 0 0 0 0 0 0 0 0 0 0 0 0 0 0 0 0 0 0 0 0 0 0 0
132 2 30 0 13 27 18 8 2 10 0 0 0 0 6 12 0 0 0 0 0 0 0 0 0 0 0 0 0 0 0 0 0 0 0 0 0 0 0 0 0 0 0 0 0 0 0
116 21 10 17 30 21 4 12 3 2 0 0 0 0 0 0 0 0 0 0 0 0 0 0 0 0 0 0 0 0 0 0 0 0 0 0 0 0 0 0 0 0 0 0 0 0 0
16 8 6 24 1 1 0 11 2 0 0 0 4 0 0 0 0 0 0 0 0 0 0 0 0 0 0 0 0 0 0 0 0 0 0 0 0 0 0 0 0 0 0 0 0 0 0
21 16 16 13 15 12 2 0 0 0 0 0 0 0 0 0 0 0 0 0 0 0 0 0 0 0 0 0 0 0 0 0 0 0 0 0 0 0 0 0 0 0 0 0 0 0 1
1 20 36 26 19 12 6 2 0 0 0 0 0 0 0 0 0 0 0 0 0 0 0 0 0 0 0 0 0 0 0 0 0 0 0 0 0 0 0 0 0 0 0 0 1 0 0
5 22 19 17 10 1 0 0 0 0 2 0 0 0 0 0 0 0 0 0 0 0 0 0 0 0 0 0 0 0 0 0 0 0 0 0 0 0 0 0 0 1 0 0 2 0 0
10 14 13 17 2 0 0 0 0 0 0 0 0 0 0 0 0 0 0 0 0 0 0 0 0 0 0 0 0 0 0 0 0 0 0 0 0 0 0 0 0 0 0 0 1 0 2
4 14 8 12 0 0 0 0 0 0 0 0 0 0 0 0 0 0 0 0 0 0 0 0 0 0 0 0 0 0 0 0 0 0 0 0 1 0 0 0 0 0 0 0 0 0 2
3 8 1 4 0 0 0 0 0 0 0 0 0 0 0 0 0 0 0 0 0 0 0 0 0 0 0 0 0 0 0 0 0 0 0 0 0 0 0 0 0 0 0 0 0 1 0
3 0 1 0 0 0 0 0 0 0 0 0 0 0 0 0 0 0 0 0 0 0 0 0 0 0 0 0 0 0 0 0 0 0 0 0 0 0 0 0 1 1 1 0 0 0 0

GFSGBSN_con_mlcape_102.txt.gz
CAPE
3 1 1 2 1 1 0 0 0 0 0 0 0 0 1 3 3 1 1 0 0 0 0 0 0 0 0 0 0 0 0 0 0 0 0 0 0 0 0 0 0 0 0 0 0 0 0
2 2 2 2 1 0 2 0 0 0 0 0 0 1 5 8 9 3 1 0 0 0 0 0 0 0 0 0 0 0 0 0 0 0 0 0 0 0 0 0 0 0 0 0 0 0 0
3 2 2 2 0 0 1 0 0 0 0 1 2 1 1 13 8 1 0 0 0 0 0 0 0 0 0 0 0 0 0 0 0 0 0 0 0 0 0 0 0 0 0 0 0 0 0
2 2 1 2 0 1 0 0 0 0 0 4 2 4 1 8 11 9 1 0 0 0 0 0 0 0 1 0 0 0 0 0 0 0 0 0 0 0 0 0 0 0 0 0 0 0 0
2 1 0 2 0 5 1 0 0 0 2 2 3 4 1 7 18 7 1 0 0 0 0 0 0 0 0 0 0 0 0 0 0 0 0 0 0 0 0 0 0 0 0 0 0 0 0
2 4 2 0 0 2 0 0 0 0 1 1 3 5 0 2 14 2 2 0 0 0 0 0 0 0 0 0 0 0 0 0 0 0 0 0 0 0 0 0 0 0 0 0 0 0 0
8 0 1 2 3 0 0 0 0 2 1 1 0 2 0 10 3 2 2 0 0 1 3 0 0 0 0 0 0 0 0 0 0 0 0 0 0 0 0 0 0 0 0 0 0 0 0
0 0 7 4 0 0 0 1 0 2 0 0 6 4 2 3 1 0 0 0 0 0 0 0 0 0 0 0 0 0 0 0 0 0 0 0 0 0 0 0 0 0 0 0 0 0 0
2 2 2 1 0 0 2 0 0 1 0 3 5 4 4 3 4 1 0 0 0 0 0 0 0 0 0 0 0 0 0 0 0 0 0 0 0 0 0 0 0 0 0 0 0 0 0
3 5 5 8 3 3 4 0 0 0 0 0 3 8 1 3 1 0 0 0 0 0 0 0 0 0 0 0 0 0 0 0 0 0 0 0 0 0 0 0 0 0 0 0 0 0 0
10 6 8 22 19 5 4 0 0 0 0 0 6 2 3 0 0 1 0 0 0 0 6 0 0 0 0 0 0 0 0 0 0 0 0 0 0 0 0 0 0 0 0 0 0 0 0
11 0 19 26 23 1 3 1 1 1 1 2 2 3 0 0 0 1 0 0 0 1 0 0 0 0 0 0 0 0 0 0 0 1 2 1 0 0 0 0 0 1 12 8 0 0 0
6 0 28 31 20 3 2 2 3 4 6 5 3 0 0 0 1 0 0 0 0 0 0 0 0 0 0 0 0 0 3 0 0 0 0 1 0 0 1 1 0 6 7 11 5 2 0
10 6 39 28 15 6 4 4 1 1 0 0 1 0 3 0 0 0 0 0 0 0 0 0 0 0 0 0 0 0 12 7 2 0 0 0 0 0 2 0 0 0 1 0 0 0 0
8 9 30 40 25 8 5 2 4 3 0 0 0 0 2 3 6 3 3 0 0 0 0 0 0 0 1 0 0 0 4 14 0 0 0 2 0 0 0 0 0 4 14 6 0 0 1
23 11 47 67 17 4 2 3 5 2 0 0 0 0 2 0 1 6 0 0 0 0 0 0 0 0 5 0 0 2 1 0 0 0 0 0 0 0 0 0 0 51 16 13 21 5 6
67 9 55 76 19 1 7 6 5 2 0 0 0 0 1 0 1 1 2 2 0 0 0 0 3 0 0 0 0 0 0 0 0 0 0 0 0 0 0 0 1 0 27 42 29 9 11
9 5 40 50 29 6 11 20 7 6 0 0 3 1 5 5 0 0 9 0 0 0 0 0 0 0 0 0 0 0 0 0 0 0 0 0 0 0 0 0 0 0 0 0 0 1 0
28 3 12 54 27 15 11 18 17 0 0 1 7 2 1 3 3 7 5 0 0 0 0 4 1 0 0 0 0 1 0 0 0 0 0 0 0 0 0 0 0 0 0 0 0 0 0
9 11 10 65 58 25 13 3 14 11 0 3 5 1 1 1 0 7 4 2 1 0 2 5 5 0 0 0 0 0 0 0 0 0 0 0 0 0 0 0 0 0 0 0 0 0 0
0 3 5 34 19 19 11 1 3 28 0 4 2 5 0 2 6 5 2 2 5 2 7 0 1 0 1 0 0 0 0 0 0 0 0 0 0 0 0 0 0 0 0 0 0 0 0
2 5 0 20 5 21 20 8 8 15 10 7 6 2 0 0 2 6 3 1 7 2 0 0 1 0 0 0 0 0 0 0 0 0 0 0 0 0 0 0 0 0 0 0 0 0 0
0 8 0 27 19 21 15 9 22 22 4 5 7 0 0 0 0 6 3 0 3 0 0 0 0 0 0 0 0 0 0 0 0 0 0 0 0 0 0 0 0 0 0 0 0 0 3
8 5 7 22 4 4 10 12 18 14 1 14 0 1 15 4 0 0 0 6 0 0 0 0 0 0 0 0 0 0 0 0 0 0 0 0 0 0 0 0 0 0 4 1 1 0 1
2 7 16 16 8 16 5 2 5 5 3 6 0 0 4 11 0 0 2 0 0 0 0 0 0 0 0 0 0 0 0 0 2 0 0 0 0 0 0 0 0 1 0 0 0 1 3
9 12 20 21 1 12 12 0 0 4 6 7 1 0 0 0 0 0 0 0 0 0 0 0 0 0 0 0 0 0 0 0 2 3 0 0 0 0 0 2 0 0 0 1 1 0 1
13 14 5 1 13 4 2 0 4 16 22 3 0 0 0 0 0 0 0 0 0 0 0 0 0 0 0 0 0 0 0 0 1 4 2 0 1 0 3 5 1 1 0 0 0 1 1
17 3 5 10 0 0 5 7 12 3 0 0 0 0 0 0 0 0 0 0 0 0 0 0 0 0 0 0 0 0 2 4 1 0 8 4 1 0 3 1 1 0 0 0 1 3 2
4 0 7 5 0 0 1 15 4 0 0 0 0 0 0 0 0 0 0 0 0 0 0 0 0 0 0 0 0 0 3 1 2 0 1 1 1 1 1 2 1 2 3 2 2 2 1

GFSGBSN_con_mlcape_105.txt.gz
CAPE
3 4 3 3 1 2 1 1 0 0 0 0 0 0 0 0 1 12 1 0 0 0 0 0 0 0 0 0 0 0 0 0 0 0 0 0 0 0 0 0 0 0 0 0 0 0 0
2 3 2 2 2 1 0 1 0 0 0 0 0 0 0 0 0 12 11 0 0 0 0 0 0 0 0 0 0 0 0 0 0 0 0 0 0 0 0 0 0 0 0 0 0 0 0
5 3 1 0 0 0 0 0 0 0 0 0 0 0 1 0 1 0 19 0 0 0 0 0 0 0 0 0 0 0 0 0 0 0 0 0 0 0 0 0 0 0 0 0 0 0 0
3 4 2 1 0 0 0 0 2 0 0 0 0 1 2 1 0 1 22 0 0 0 0 0 0 0 0 0 0 0 0 0 0 0 0 0 0 0 0 0 0 0 0 0 0 0 0
7 7 2 2 0 0 0 0 0 0 0 0 3 1 1 2 3 3 14 2 0 0 0 0 0 0 0 0 0 0 0 0 0 0 0 0 0 0 0 0 0 0 0 0 0 0 0
0 2 4 0 0 0 2 0 0 0 0 0 2 1 1 1 2 1 1 2 1 0 0 0 0 0 0 0 0 0 0 0 0 0 0 0 0 0 0 0 0 0 0 0 0 0 0
6 5 0 0 0 0 0 0 0 0 0 0 0 0 1 0 0 1 3 0 0 0 1 0 0 0 0 0 0 0 0 0 0 0 0 0 0 0 0 0 0 0 0 0 0 0 0
0 0 0 2 1 0 0 0 0 0 0 0 0 0 0 3 1 0 0 0 4 1 0 0 0 0 0 0 0 0 0 0 0 0 0 0 0 0 0 0 0 0 0 0 0 0 0
0 0 1 0 0 0 0 0 0 0 0 0 0 0 9 5 0 1 0 5 0 0 0 0 0 0 0 0 0 0 2 0 0 0 0 8 0 0 0 0 0 0 0 0 0 0 0
0 0 0 0 0 0 0 0 0 0 0 0 0 0 6 0 2 0 1 0 0 0 0 0 0 0 0 0 0 0 0 0 7 2 10 2 0 3 0 0 0 0 0 0 0 1 0
9 0 0 0 0 0 0 0 2 0 0 0 0 0 0 0 0 1 0 0 0 1 6 0 0 0 0 0 0 0 0 0 1 2 0 0 0 0 0 0 0 1 0 0 2 0 0
13 11 1 2 0 6 1 2 1 0 0 0 0 0 1 0 0 0 0 0 0 1 0 9 0 0 0 0 0 0 0 8 1 0 0 2 8 0 0 0 0 0 1 0 3 5 1
12 15 7 5 11 10 4 1 2 0 1 1 3 2 0 0 0 0 0 0 0 1 0 1 0 0 0 0 0 0 2 6 1 1 0 6 6 0 1 11 0 2 3 0 0 1 4
19 10 2 1 27 16 1 4 2 3 3 4 2 0 0 0 0 0 0 0 0 0 0 0 0 0 0 0 0 0 0 10 3 10 12 6 3 7 0 0 0 1 0 0 0 0 0
26 17 4 1 2 20 14 7 2 2 0 0 0 0 2 3 0 0 0 0 1 1 0 0 0 0 0 0 1 1 2 11 4 11 6 3 4 0 0 0 0 1 0 0 0 0 2
55 48 17 2 8 25 33 12 2 2 1 0 0 1 2 4 6 2 0 1 7 0 0 0 0 0 1 3 8 0 2 7 28 1 8 0 1 0 0 0 1 2 1 0 0 6 9
51 63 43 10 7 48 20 13 6 1 0 0 1 2 2 0 4 1 1 5 1 0 0 0 0 5 1 0 1 2 1 0 1 0 0 0 0 0 0 2 0 3 5 2 1 2 8
45 51 25 11 0 90 13 3 1 0 0 0 5 0 1 2 0 0 3 0 0 0 0 0 0 2 2 8 0 10 14 0 0 0 0 1 2 1 0 0 0 0 0 0 1 2 0
20 46 63 27 26 15 18 8 0 3 0 8 5 2 1 2 1 3 1 2 0 0 0 4 3 7 3 11 0 0 0 0 0 0 5 0 0 0 0 0 0 0 0 0 0 0 0
20 35 50 27 19 51 44 21 4 9 0 0 9 0 0 1 0 9 3 3 2 3 6 17 8 6 7 13 3 8 5 0 0 0 0 0 0 0 0 1 0 0 0 0 0 0 0
2 26 53 20 12 5 54 26 9 0 0 1 10 6 0 0 0 4 7 1 6 10 4 9 11 6 7 6 3 2 1 0 0 0 0 0 0 0 0 0 0 0 0 0 0 0 0
19 27 12 14 0 0 62 19 8 18 6 2 5 9 6 7 3 3 7 10 7 7 7 10 6 4 9 11 0 1 0 0 0 0 0 0 0 0 0 0 0 0 0 0 0 0 0
24 35 3 1 8 1 29 7 1 10 3 1 7 13 6 2 6 15 16 3 9 11 5 6 1 3 14 0 0 0 0 0 0 0 0 0 0 0 0 0 0 0 0 0 0 0 0
36 6 0 0 7 0 23 1 0 18 4 15 13 15 12 8 2 5 3 8 6 1 1 0 1 4 0 0 0 0 0 0 0 0 0 0 0 0 0 0 0 0 0 0 0 0 0
2 0 0 3 0 9 14 2 5 10 6 5 1 16 16 9 0 5 9 4 0 0 0 3 0 1 0 0 0 0 0 0 0 0 0 0 0 0 0 0 1 0 1 0 0 1 0
0 2 15 0 0 17 5 5 14 16 9 7 2 9 12 5 4 23 10 6 0 0 0 0 0 0 0 0 3 0 0 0 0 1 0 0 0 0 2 8 4 1 1 1 3 0 2
0 17 14 4 1 6 1 1 6 4 12 13 2 20 10 3 0 3 4 2 0 3 1 1 0 0 0 0 5 6 1 2 0 3 4 3 6 4 3 8 0 0 0 0 0 0 1
1 16 9 4 0 0 0 0 12 26 39 27 3 2 8 8 0 0 0 0 0 10 11 2 0 0 0 0 5 0 4 2 5 1 11 1 2 0 10 7 4 0 0 0 1 2 0
17 0 0 0 0 0 0 2 29 39 22 9 14 0 0 1 0 0 0 0 0 0 2 0 2 0 5 7 4 14 11 2 5 5 0 0 0 1 0 2 1 3 2 1 0 2 2

GFSGBSN_con_mlcape_108.txt.gz
CAPE
4 4 4 3 3 2 2 2 0 0 0 0 0 0 0 0 0 0 0 7 4 0 0 0 0 0 0 0 0 0 0 0 0 0 0 0 0 0 0 0 0 0 0 0 0 0 0
3 4 3 5 5 1 0 0 0 0 0 0 0 0 0 0 0 1 0 3 2 0 0 0 0 0 0 0 0 0 0 0 0 0 0 0 0 0 0 0 0 0 0 0 0 0 0
8 9 7 3 0 1 0 0 0 0 2 0 0 0 0 0 2 1 0 0 2 0 0 0 0 0 0 0 0 0 0 0 0 0 0 0 0 0 0 0 0 0 0 0 0 0 0
8 9 4 4 1 0 0 0 0 0 0 0 0 0 0 0 2 1 5 2 1 1 0 0 0 0 0 0 0 0 0 0 0 0 0 0 0 0 0 0 0 0 0 0 0 0 0
9 5 5 1 2 0 0 0 0 0 0 0 0 0 0 1 2 2 4 4 2 2 0 0 0 0 0 0 0 0 0 0 0 0 0 0 0 0 0 0 0 0 0 0 0 0 0
1 6 3 7 0 0 0 0 0 0 0 0 0 0 0 2 0 2 9 2 2 0 0 0 0 0 0 0 0 0 0 0 0 0 0 0 0 0 0 0 0 0 0 0 0 0 3
0 0 1 2 0 0 3 1 0 0 0 0 0 0 0 1 1 1 1 0 0 0 0 0 0 0 0 0 0 0 0 0 0 0 0 0 0 0 0 0 0 10 9 15 5 0 1
0 0 0 1 0 0 0 0 0 0 0 0 0 0 0 0 2 0 0 5 2 1 0 0 0 0 0 0 0 0 0 0 0 0 0 0 0 0 0 0 2 25 20 0 20 0 1
0 0 0 0 0 0 0 0 0 0 0 0 0 0 0 6 0 1 0 6 0 3 3 0 0 0 0 0 0 0 0 0 0 0 0 0 0 0 0 0 0 0 21 0 11 0 0
15 7 0 0 0 0 0 0 0 0 0 0 0 0 0 5 2 2 2 0 0 6 0 0 0 0 0 0 0 0 0 0 0 0 0 0 0 1 0 0 5 11 8 26 5 0 0
13 15 5 0 0 0 0 0 0 0 0 0 0 1 0 0 0 2 0 0 0 0 0 0 0 0 0 0 0 0 0 0 0 0 7 0 0 2 0 0 8 0 0 1 4 1 4
8 5 4 4 8 0 0 0 0 0 0 0 0 1 0 0 0 0 0 0 0 2 0 0 0 0 0 0 0 0 0 0 0 0 5 0 0 0 1 0 0 0 1 1 3 1 0
10 12 3 12 7 0 0 0 1 1 1 0 0 1 2 0 0 0 0 0 10 0 0 0 0 0 0 0 0 0 0 1 7 0 0 0 0 0 0 0 0 0 0 0 0 0 0
22 11 4 6 1 0 5 0 0 2 1 2 1 0 1 0 0 0 0 0 4 0 0 0 0 0 0 0 0 4 2 0 11 0 3 3 5 0 1 0 3 0 0 0 0 1 3
37 39 18 3 0 0 9 8 0 2 0 0 0 0 1 0 1 0 0 4 0 0 16 13 12 0 0 2 3 16 8 1 2 3 0 16 12 0 0 0 3 1 1 0 1 0 0
32 23 11 3 0 0 0 27 4 0 0 0 0 0 2 1 1 1 0 0 2 7 16 3 2 0 0 0 4 5 9 0 0 10 5 9 1 0 5 2 0 0 1 6 0 1 0
28 33 32 36 11 0 0 14 29 3 0 0 1 0 0 2 0 0 0 0 2 13 2 0 0 0 0 0 3 23 0 0 1 27 0 1 0 0 0 0 1 3 3 5 0 1 3
31 21 43 48 31 9 0 4 60 22 2 0 2 0 1 2 0 0 1 2 4 11 0 0 0 0 4 9 6 6 0 0 4 5 0 0 4 6 1 0 0 0 3 3 5 0 0
25 18 21 33 60 17 0 0 41 23 1 0 4 1 1 3 0 1 0 0 1 0 0 0 0 0 1 4 5 0 16 0 0 0 0 0 0 1 1 0 0 0 0 0 0 0 0
9 1 9 26 28 26 11 0 5 25 0 0 2 0 0 1 1 2 3 1 5 0 0 0 1 10 7 9 5 9 13 0 0 0 0 0 0 0 3 0 0 0 0 0 0 0 0
1 3 1 8 23 33 15 17 7 39 0 0 0 3 0 0 0 1 9 0 5 3 0 4 8 11 5 2 5 8 17 0 0 0 0 0 0 0 0 0 0 0 0 0 0 0 0
1 0 10 2 19 17 22 0 7 46 27 2 1 1 23 12 0 2 1 5 11 4 1 2 15 9 5 5 9 4 15 2 0 0 0 0 0 0 0 0 0 0 0 0 0 0 0
12 6 4 13 39 43 48 12 1 50 2 0 4 13 19 27 5 5 0 1 4 6 14 7 15 15 6 4 1 0 0 5 0 0 0 0 0 0 0 0 0 0 0 0 0 0 1
7 5 7 30 47 9 23 1 1 22 3 1 20 69 21 10 21 3 2 4 0 5 4 11 17 3 0 0 0 0 0 0 0 0 0 0 0 0 0 0 0 0 0 0 0 0 0
6 19 40 56 44 20 1 4 25 18 8 7 6 5 21 15 15 5 7 3 8 9 0 0 0 0 0 0 0 0 0 0 0 0 0 0 0 0 0 0 0 0 0 0 0 0 0
0 1 12 16 12 8 8 5 17 10 13 6 1 2 3 0 0 10 7 11 1 0 0 0 0 0 0 0 0 0 0 0 0 0 0 0 0 0 0 0 1 0 0 0 0 0 0
17 4 3 6 4 0 5 19 9 1 17 8 3 9 14 0 0 1 1 0 0 0 0 0 0 0 0 0 5 0 0 0 0 0 0 0 0 0 0 3 0 0 0 0 0 0 0
3 1 1 10 11 9 9 7 5 4 28 6 3 3 6 0 0 0 0 0 4 6 0 0 0 0 0 1 1 7 0 0 1 0 0 0 0 0 0 4 2 0 0 0 1 1 0
2 13 7 7 3 0 2 5 3 0 8 12 3 13 13 2 0 0 0 0 0 0 0 0 0 0 0 0 0 2 8 0 5 3 2 5 0 1 0 1 0 2 3 1 3 0 0

GFSGBSN_con_mlcape_111.txt.gz
CAPE
1 1 2 2 2 1 1 0 0 0 0 0 0 0 0 0 0 0 0 0 0 8 2 0 0 0 0 0 0 0 0 0 0 0 0 0 0 0 0 0 0 0 0 0 0 0 0
0 0 1 2 1 1 0 0 0 0 0 0 0 0 0 0 0 0 0 0 0 7 1 0 0 0 0 0 0 0 0 0 0 0 0 0 0 0 0 0 0 0 0 0 0 0 0
0 3 3 1 0 0 0 0 0 0 0 0 0 0 0 0 0 3 2 0 1 7 0 0 0 0 0 0 0 0 0 0 0 0 0 0 0 0 0 0 0 0 0 0 0 0 0
2 3 6 4 2 1 0 1 0 0 0 0 0 0 0 0 0 1 1 0 6 2 0 0 0 0 0 0 0 0 0 0 0 0 0 0 0 0 0 0 0 0 0 0 0 0 0
5 6 3 3 0 2 0 0 0 0 0 0 0 0 0 0 0 2 1 5 7 4 0 0 0 0 0 0 0 0 0 0 0 0 0 0 0 0 0 0 0 0 0 0 0 0 0
4 3 4 5 4 1 0 0 0 1 0 0 0 0 0 0 0 2 7 2 2 0 0 0 0 0 0 0 0 0 0 0 0 0 0 0 0 0 0 0 0 0 0 0 0 0 0
0 1 1 3 4 3 1 4 1 0 0 0 0 0 0 0 0 0 0 0 0 0 0 0 0 0 0 0 0 0 0 0 0 0 0 0 0 0 0 0 0 0 0 0 0 0 0
3 2 0 0 0 1 3 1 0 0 0 0 0 0 0 0 1 0 0 0 0 0 0 0 0 0 0 0 0 0 0 0 0 0 0 0 0 0 0 0 0 0 0 0 0 0 2
15 12 2 0 0 0 2 0 0 0 0 0 0 0 0 0 0 1 0 0 0 1 0 0 0 0 0 0 0 0 0 0 0 0 0 0 0 0 0 0 0 0 1 0 0 0 0
18 12 8 11 4 0 0 0 0 0 0 0 0 0 0 1 1 0 1 2 4 3 0 0 0 0 0 0 0 0 0 0 0 0 0 0 0 0 0 0 0 0 0 0 0 0 0
11 2 2 1 10 2 0 0 0 0 0 0 0 0 0 1 1 1 0 0 2 4 0 0 0 0 0 0 0 0 0 0 0 0 0 0 0 0 0 0 0 0 0 0 0 0 0
12 14 9 3 0 2 2 0 0 0 0 0 0 0 0 3 1 0 0 0 2 6 0 0 0 0 0 0 0 0 0 0 0 0 0 0 0 0 0 0 0 0 0 0 0 0 0
12 14 13 5 4 2 0 0 0 0 0 2 0 0 0 0 0 0 0 9 16 0 0 0 0 0 0 0 0 0 0 0 0 0 0 0 0 0 0 0 0 0 0 0 0 0 0
25 22 26 16 6 3 0 0 0 0 0 0 0 7 0 0 0 0 3 22 2 0 0 0 0 0 0 0 0 0 0 0 0 0 0 0 0 0 0 0 0 0 0 0 0 0 0
34 29 32 20 14 0 0 0 0 0 0 0 0 0 0 0 0 0 24 27 4 0 0 0 0 0 0 0 0 0 3 0 0 0 0 0 0 0 0 0 0 0 0 0 0 0 0
51 43 35 11 9 0 0 0 6 3 0 0 0 0 0 0 0 0 40 2 0 0 0 24 10 0 0 0 1 18 6 0 0 1 0 0 0 0 2 1 0 0 0 0 0 0 0
53 14 33 33 3 0 0 0 1 28 3 0 0 6 0 2 0 0 9 0 1 0 1 24 13 18 0 0 0 3 6 0 0 0 0 0 0 0 0 0 0 0 3 8 6 2 0
52 45 41 34 51 40 1 2 0 25 42 4 5 3 0 1 1 0 0 0 0 0 3 26 3 1 0 0 0 1 8 1 0 2 0 0 0 0 0 0 0 0 0 3 3 0 1
55 40 59 49 45 42 17 21 0 25 68 0 4 0 2 1 0 0 0 0 15 4 7 2 1 0 0 0 0 0 0 0 0 0 3 0 0 0 0 0 0 0 0 14 15 0 0
50 52 40 41 37 33 30 34 2 0 16 1 0 0 1 0 0 0 0 0 4 0 1 1 0 0 0 0 0 0 0 0 0 0 0 0 0 0 0 0 0 0 0 0 2 0 0
28 49 17 17 1 28 34 26 24 5 13 7 1 0 0 0 0 0 5 3 0 27 0 0 1 0 0 0 0 0 3 0 0 0 0 0 0 0 0 0 0 0 0 0 0 0 0
42 35 23 12 17 4 2 17 4 36 66 1 0 4 6 0 0 1 0 50 5 3 16 0 0 0 1 0 0 0 8 0 0 0 0 0 0 0 0 0 0 0 0 0 0 0 0
12 7 1 1 0 12 2 14 11 22 35 0 0 9 1 0 0 1 1 0 20 26 49 3 0 0 4 0 0 0 0 0 0 0 0 0 0 0 0 0 0 0 0 0 0 0 0
17 13 10 6 6 11 29 46 43 35 26 1 1 4 1 0 0 0 0 0 6 46 30 23 9 2 0 0 0 0 0 0 0 0 0 0 0 0 0 0 0 0 0 0 0 0 0
1 1 4 8 14 3 16 33 38 20 24 5 2 8 6 1 0 1 15 14 11 12 11 20 9 1 0 0 0 0 0 0 0 0 0 0 0 0 0 0 0 0 0 0 0 0 0
24 25 23 23 7 3 15 22 23 27 21 9 2 0 1 1 0 8 11 41 8 0 0 0 0 0 0 0 0 0 0 0 0 0 0 0 0 0 0 0 0 0 0 0 0 0 0
12 10 13 30 31 40 25 15 0 0 23 8 1 0 4 1 0 2 7 0 2 0 0 0 0 0 0 0 0 0 0 0 0 0 0 0 0 0 0 0 0 0 0 0 0 0 0
5 8 10 16 17 6 3 4 2 13 10 1 0 0 11 0 0 1 0 1 1 0 0 0 0 0 0 0 0 0 0 0 0 0 0 0 0 0 0 0 0 0 0 0 0 0 0
4 6 1 0 2 3 8 13 11 13 15 0 3 2 5 0 1 1 0 0 0 0 0 0 0 0 0 0 0 0 0 0 0 0 0 0 0 0 0 0 0 0 0 1 0 0 0

GFSGBSN_con_mlcape_114.txt.gz
CAPE
0 3 0 0 0 0 0 0 0 0 0 0 0 0 0 0 0 0 0 0 0 0 3 2 0 0 0 0 0 0 0 0 0 0 0 0 0 0 0 0 0 0 0 0 0 0 0
3 0 0 0 0 1 2 0 0 0 0 0 0 0 0 0 0 0 0 0 0 0 2 1 0 0 0 0 0 0 0 0 0 0 0 0 0 0 0 0 0 0 0 0 0 0 0
1 0 0 0 0 0 0 0 0 0 0 0 0 0 0 0 0 0 1 0 0 2 4 7 0 0 0 0 0 0 0 0 0 0 0 0 0 0 0 0 0 0 0 0 0 0 0
0 0 0 0 0 0 0 0 0 0 0 0 0 0 0 0 0 0 2 0 1 2 3 1 0 0 0 0 0 0 0 0 0 0 0 0 0 0 0 0 0 0 0 0 0 0 0
10 4 1 0 0 0 0 0 0 0 0 0 0 0 0 0 0 0 3 3 4 4 8 0 0 0 0 0 0 0 0 0 0 0 0 0 0 0 0 0 0 0 0 0 0 0 0
5 8 4 3 2 1 2 1 0 0 0 0 0 0 0 0 0 1 7 4 1 0 0 0 0 0 0 0 0 0 0 0 0 0 0 0 0 0 0 0 0 0 0 0 0 0 0
9 8 10 1 3 3 6 5 2 4 0 0 0 0 0 0 0 3 0 0 0 0 0 0 0 0 0 0 0 0 0 0 0 0 0 0 0 0 0 0 0 0 0 0 0 0 0
21 10 13 7 0 0 0 3 2 0 0 0 0 0 0 0 1 0 0 0 0 0 0 0 0 0 0 0 0 0 0 0 0 0 0 0 0 0 0 0 0 0 0 0 0 0 0
26 18 26 19 8 0 0 1 1 0 0 0 0 0 0 0 4 1 0 0 0 0 0 0 0 0 0 0 0 0 0 0 0 0 0 0 0 0 0 0 0 0 0 0 0 0 0
23 19 26 35 21 11 0 0 0 0 0 0 0 0 0 0 4 2 2 0 0 0 0 0 0 0 0 0 0 0 0 0 0 0 0 0 0 0 0 0 0 0 0 0 0 0 0
31 27 21 18 16 13 9 0 0 0 0 0 0 0 0 12 0 4 0 0 1 1 0 0 0 0 0 0 0 0 0 0 0 0 0 0 0 0 0 0 0 0 0 0 0 0 0
19 18 9 8 11 14 7 1 0 0 0 0 0 0 0 3 3 0 5 0 0 0 0 0 0 0 0 0 0 0 0 0 0 0 0 0 0 0 0 0 0 0 0 0 0 0 0
21 16 13 9 5 11 8 3 0 0 0 0 0 0 3 3 1 0 5 12 5 0 0 0 0 0 0 0 0 0 0 0 0 0 0 0 0 0 0 0 0 0 0 0 0 0 0
29 27 19 24 20 8 6 4 0 0 0 0 0 0 1 4 0 3 13 41 0 0 0 0 0 0 0 0 0 0 0 0 0 0 0 0 0 0 0 0 0 0 0 0 0 0 0
32 32 33 30 25 17 13 5 0 0 0 0 0 0 0 0 0 6 29 18 0 0 0 0 0 0 0 0 0 0 0 0 0 0 0 0 0 0 0 0 0 0 0 0 0 0 0
54 41 43 29 33 23 16 13 0 3 0 0 0 1 0 0 0 16 57 0 0 0 0 0 0 0 0 0 0 0 0 0 0 0 0 0 0 0 0 0 0 0 0 0 0 0 0
39 45 59 51 31 11 12 0 0 13 14 1 0 2 0 1 0 31 5 0 0 0 0 0 0 3 0 0 0 6 11 0 0 0 0 0 0 0 0 0 0 0 0 1 0 0 0
21 61 72 41 16 3 4 0 0 16 47 15 12 8 0 0 2 0 0 0 0 0 0 0 3 12 0 0 0 4 22 19 0 0 7 0 2 0 0 0 0 0 0 7 0 0 0
43 60 67 61 50 45 18 6 3 1 62 4 2 1 0 0 2 0 0 0 2 1 2 0 10 7 0 0 1 0 0 0 0 0 25 0 4 0 0 0 0 0 0 0 0 0 0
61 64 72 37 69 70 67 28 29 9 49 22 0 0 0 0 0 0 0 1 3 1 1 12 1 27 0 0 0 0 0 0 0 0 0 1 0 0 0 0 0 0 0 0 10 0 0
64 63 66 69 63 68 65 56 8 30 12 32 0 0 0 0 0 0 0 0 0 1 8 0 27 5 0 0 0 3 0 0 0 0 0 0 0 0 0 0 0 0 0 0 0 0 0
45 60 28 11 15 50 39 48 28 6 17 28 1 3 0 0 0 1 2 3 0 0 1 4 0 0 0 0 0 0 0 0 0 0 0 0 0 0 0 0 0 0 0 0 0 0 0
37 40 51 12 43 69 60 36 23 26 26 1 0 0 4 0 0 0 0 1 0 7 15 29 3 8 15 0 0 0 0 0 0 0 0 0 0 0 0 0 0 0 0 0 0 0 0
46 41 33 31 43 38 23 37 45 43 32 0 1 10 3 0 0 0 0 0 0 0 13 24 55 11 2 0 0 0 0 0 0 0 0 0 0 0 0 0 0 0 0 0 0 0 0
12 16 23 34 31 22 27 44 50 58 23 0 7 13 4 0 0 0 0 0 0 0 0 56 94 26 0 0 0 0 0 0 0 0 0 0 0 0 0 0 0 0 0 0 0 0 0
1 3 1 2 2 12 10 11 16 53 41 0 5 0 3 2 0 0 1 0 0 0 2 4 0 0 0 0 0 0 0 0 0 0 0 0 0 0 0 0 0 0 0 0 0 0 0
1 13 4 2 14 6 2 5 4 28 66 7 1 10 2 1 0 0 1 0 0 2 0 0 0 0 0 0 0 0 0 0 0 0 0 0 0 0 0 0 0 0 0 0 0 0 0
16 25 28 26 14 17 4 2 15 16 48 18 0 3 5 0 1 2 1 4 5 0 0 0 0 0 0 0 0 0 0 0 0 0 0 0 0 0 0 0 0 0 0 0 0 0 0
15 10 12 8 13 17 26 22 29 28 10 12 2 1 5 0 0 1 1 0 0 0 0 0 0 0 0 0 0 0 0 0 0 0 0 0 0 0 0 0 0 0 0 0 0 0 0

GFSGBSN_con_mlcape_117.txt.gz
CAPE
1 0 0 0 0 0 0 0 0 0 0 0 0 0 0 0 0 0 0 0 0 0 0 0 0 0 0 0 0 0 0 0 0 0 0 0 0 0 0 0 0 0 0 0 0 0 0
0 2 2 0 0 0 1 1 0 0 0 0 0 0 0 0 0 0 0 1 0 0 0 3 0 0 0 0 0 0 0 0 0 0 0 0 0 0 0 0 0 0 0 0 0 0 0
5 2 2 0 0 0 0 0 0 0 0 0 0 0 0 0 0 0 2 0 1 2 0 8 0 0 0 0 0 0 0 0 0 0 0 0 0 0 0 0 0 0 0 0 0 0 0
10 6 5 0 0 0 0 0 0 0 0 0 0 0 0 0 0 0 2 0 1 2 1 13 0 0 0 0 0 0 0 0 0 0 0 0 0 0 0 0 0 0 0 0 0 0 0
7 10 9 2 1 2 2 1 0 0 0 0 0 0 0 0 0 0 4 3 1 3 12 1 0 0 0 0 0 0 0 0 0 0 0 0 0 0 0 0 0 0 0 0 0 0 0
12 17 13 10 0 0 1 2 2 0 0 0 0 0 0 0 0 0 6 7 1 2 2 0 0 0 0 0 0 0 0 0 0 0 0 0 0 0 0 0 0 0 0 0 0 0 0
14 10 12 14 2 4 3 8 4 1 2 0 0 0 0 0 0 1 1 0 0 0 0 0 0 0 0 0 0 0 0 0 0 0 0 0 0 0 0 0 0 0 0 0 0 0 0
12 13 17 14 7 5 5 6 3 1 1 0 0 0 0 0 0 0 0 0 0 0 0 0 0 0 0 0 0 0 0 0 0 0 0 0 0 0 0 0 0 0 0 0 0 0 0
9 9 15 16 18 9 0 1 0 1 0 0 0 0 0 0 1 6 1 0 0 0 0 0 0 0 0 0 0 0 0 0 0 0 0 0 0 0 0 0 0 0 0 0 0 0 0
14 8 12 22 20 26 11 0 0 0 0 0 0 0 0 0 2 8 2 0 0 0 0 0 0 0 0 0 0 0 0 0 0 0 0 0 0 0 0 0 0 0 0 0 0 0 0
0 19 4 2 24 22 19 16 0 0 0 0 0 0 0 5 0 0 0 0 0 0 0 0 0 0 0 0 0 0 0 0 0 0 0 0 0 0 0 0 0 0 0 0 0 0 0
28 35 18 23 20 18 15 10 7 3 0 0 0 0 1 1 10 0 0 0 1 0 0 0 0 0 0 0 0 0 0 0 0 0 0 0 0 0 0 0 0 0 0 0 0 0 0
13 10 7 28 20 1 8 13 10 4 0 0 0 0 2 6 0 0 0 10 0 0 0 0 0 0 0 0 0 0 0 0 0 0 0 0 0 0 0 0 0 0 1 2 0 0 0
16 15 17 29 13 0 7 17 11 1 0 0 0 0 0 0 2 0 22 19 0 0 0 0 0 0 0 0 0 0 0 0 0 0 0 0 0 0 0 0 0 0 0 2 0 0 0
78 51 39 24 6 3 3 2 12 18 2 0 0 0 0 7 11 12 40 10 0 0 0 0 0 0 0 0 0 0 0 0 0 0 0 0 0 0 0 0 0 0 0 0 0 0 0
69 42 40 29 1 0 5 31 44 22 14 3 0 0 0 1 5 37 90 0 0 0 0 0 0 0 0 0 0 0 0 0 0 0 0 0 0 0 0 0 0 0 0 0 0 0 0
21 49 27 13 8 2 0 8 21 20 29 13 0 4 0 3 6 92 32 0 0 0 0 0 0 0 0 0 0 0 0 3 0 0 1 1 6 0 0 0 0 0 0 0 0 0 0
21 17 18 19 8 3 0 4 16 8 18 25 22 14 0 7 13 0 5 0 0 0 0 0 0 0 0 0 0 0 0 12 7 23 25 3 5 7 0 0 0 3 0 0 0 0 0
46 9 19 36 33 32 28 4 15 3 33 11 12 0 0 2 15 1 0 0 5 0 2 4 0 0 0 0 13 0 0 0 0 8 15 4 2 4 0 0 0 1 0 0 0 0 0
79 21 8 20 62 68 40 8 5 4 22 26 0 2 0 0 0 0 0 1 6 3 2 22 3 9 7 0 0 3 0 0 0 0 19 17 2 3 0 0 0 0 0 0 0 0 0
65 42 60 55 62 70 77 30 19 8 7 27 0 0 0 0 0 0 2 0 0 3 9 4 3 1 1 8 0 1 0 0 0 0 4 1 1 0 1 0 0 0 0 0 0 0 0
35 21 33 77 71 69 83 85 52 5 11 26 0 0 1 0 0 1 0 2 3 0 3 10 1 0 9 15 0 0 6 2 0 0 0 0 0 0 0 0 0 0 0 0 0 0 0
31 59 64 77 54 42 27 40 71 37 31 4 0 1 6 0 0 1 0 0 0 3 0 0 0 10 4 0 1 0 3 4 0 0 0 0 0 0 0 0 0 0 0 0 0 0 0
50 53 59 51 59 44 28 45 66 22 17 0 1 1 0 0 0 0 0 0 0 0 0 6 12 5 0 4 0 2 0 0 0 0 0 0 0 0 0 0 0 0 0 0 0 0 0
9 21 41 49 43 32 69 83 66 54 31 0 3 2 2 0 0 0 0 0 0 0 0 0 0 6 0 9 0 0 0 0 0 0 0 0 0 0 0 0 0 0 0 0 0 0 0
8 13 18 30 55 57 66 57 61 78 72 18 0 2 2 0 0 1 0 0 0 0 0 0 0 34 0 0 0 0 0 0 0 0 0 0 0 0 0 0 0 0 0 0 0 0 0
7 2 2 2 4 22 37 64 72 74 79 21 2 8 33 6 0 0 0 0 1 0 0 0 15 3 0 0 0 0 0 0 0 0 0 0 0 0 0 0 0 0 0 0 0 0 0
0 2 3 4 3 1 2 4 31 37 35 29 2 19 11 0 0 1 0 0 10 5 0 0 0 1 0 0 0 0 0 0 0 0 0 0 0 0 0 0 0 0 0 0 0 0 0
30 21 14 4 9 3 0 0 0 8 21 40 20 10 9 0 0 0 0 0 0 0 0 0 0 0 0 0 0 0 0 0 0 0 0 0 0 0 0 0 0 0 0 0 0 0 0

GFSGBSN_con_mlcape_120.txt.gz
CAPE
3 3 3 1 0 0 0 0 0 0 0 0 0 0 0 0 0 0 0 0 0 0 0 0 0 0 0 0 0 0 0 0 0 0 0 0 0 0 0 0 0 0 0 0 0 0 0
0 0 2 2 2 0 0 0 0 0 0 0 0 0 0 0 0 0 0 0 0 0 0 0 0 0 0 0 0 0 0 0 0 0 0 0 0 0 0 0 0 0 0 0 0 0 0
12 1 0 3 0 0 0 0 0 0 0 0 0 0 0 0 0 0 0 3 1 0 0 0 1 0 0 0 0 0 0 0 0 0 0 0 0 0 0 0 0 0 0 0 0 0 0
18 28 0 1 1 0 0 0 0 0 0 0 0 0 0 0 0 0 0 0 2 1 1 5 1 0 0 0 0 0 0 0 0 0 0 0 0 0 0 0 0 0 0 0 0 0 0
12 11 9 1 2 0 0 0 0 0 0 0 1 0 0 0 0 0 0 0 1 2 8 2 0 0 0 0 0 0 0 0 0 0 0 0 0 0 0 0 0 0 0 0 0 0 0
9 6 0 1 0 1 0 2 3 3 0 0 2 0 0 0 0 0 0 2 5 3 1 0 0 0 0 0 0 0 0 0 0 0 0 0 0 0 0 0 0 0 0 0 0 0 0
1 5 5 8 11 7 5 4 4 5 0 5 0 0 0 0 0 0 0 0 0 0 2 0 0 0 0 0 0 0 0 0 0 0 0 0 0 0 0 0 0 0 0 0 0 0 0
2 0 0 5 12 13 11 13 13 3 7 4 0 0 0 0 0 0 0 0 0 0 0 0 0 0 0 0 0 0 0 0 0 0 0 0 0 0 0 0 0 0 0 0 0 0 0
5 6 1 4 23 10 7 13 8 6 4 2 0 0 0 0 0 5 1 0 0 1 0 0 0 0 0 0 0 0 0 0 0 0 0 0 0 0 0 0 0 0 0 0 0 0 0
30 5 6 3 3 8 9 12 0 0 4 0 0 0 0 0 1 0 1 0 0 1 0 0 0 0 0 0 0 0 0 0 0 0 0 0 0 0 0 0 0 0 0 0 0 0 0
31 4 18 5 4 15 17 9 11 0 0 0 0 0 0 4 0 1 0 0 0 0 0 0 0 0 0 0 0 0 0 0 0 0 0 0 0 0 0 0 0 0 0 0 0 0 0
31 56 25 37 29 30 24 20 8 6 3 0 0 0 0 0 1 0 0 0 3 0 0 0 0 0 0 0 0 0 0 0 0 0 0 0 0 0 0 0 0 0 0 0 0 0 0
14 45 50 31 17 4 3 32 15 2 11 10 0 0 0 0 0 0 0 25 0 0 0 0 0 0 0 0 0 0 0 0 0 0 0 0 0 0 0 0 0 0 0 1 0 0 0
32 19 37 53 55 24 17 10 7 0 6 8 12 1 0 0 0 0 4 30 0 0 0 0 0 0 0 0 0 0 0 0 0 0 0 0 0 0 0 0 0 0 0 3 0 0 0
30 58 20 16 41 35 22 4 1 0 12 8 16 0 2 0 0 5 20 4 0 0 0 0 0 0 0 0 0 0 0 0 0 0 0 0 0 0 0 0 0 0 0 0 2 0 0
24 63 37 14 8 50 9 1 0 0 7 18 0 0 1 0 0 25 28 0 0 0 0 0 0 0 0 0 0 0 0 0 0 0 0 0 0 0 0 0 0 0 0 0 0 5 0
29 27 27 52 20 27 16 9 2 0 0 11 1 1 0 1 38 33 12 0 0 0 0 0 0 0 0 0 0 0 0 0 0 0 0 1 2 0 0 0 0 0 0 0 0 0 0
54 0 5 62 92 29 1 1 0 6 25 11 6 3 0 10 67 19 8 0 0 0 0 0 0 0 0 0 0 2 0 0 0 0 2 0 33 1 0 0 0 0 0 0 5 0 0
47 2 0 49 26 3 1 0 1 19 53 10 10 7 0 1 23 8 4 2 0 0 0 1 0 0 0 0 0 0 0 0 1 11 18 3 0 5 0 0 0 0 0 5 1 0 0
59 1 8 38 25 5 12 0 0 12 63 17 0 3 0 1 21 0 0 0 0 10 17 20 8 10 3 0 0 0 0 0 0 0 13 1 1 2 0 0 0 0 1 6 9 4 0
80 2 40 17 14 23 29 0 0 11 51 13 1 0 0 0 1 1 4 0 1 1 12 10 7 3 9 18 0 0 0 0 0 0 1 3 12 1 2 3 2 0 0 0 1 0 0
9 33 4 62 79 90 44 1 0 1 43 39 0 0 1 0 1 2 2 1 0 0 6 12 0 0 9 7 0 0 0 0 1 0 0 0 1 0 0 0 10 0 0 0 0 0 0
47 1 59 45 83 82 68 49 0 9 11 2 2 1 0 0 0 0 0 0 0 0 0 0 0 6 4 0 3 0 0 0 3 0 0 0 0 0 0 0 0 0 0 0 0 0 0
6 11 5 39 62 60 36 30 4 1 4 0 2 1 0 0 0 0 0 0 0 0 0 0 0 0 0 0 0 1 0 0 0 0 0 0 0 0 0 0 0 0 0 0 0 0 0
8 6 14 17 41 29 12 38 10 2 34 1 0 0 0 0 0 1 1 0 0 0 0 0 0 5 0 7 9 14 1 1 0 0 0 0 0 0 0 0 0 0 0 0 0 0 0
12 11 29 32 31 25 22 22 4 5 39 5 2 1 1 0 0 0 0 0 0 0 0 0 0 0 0 7 24 1 1 0 0 0 0 0 0 1 0 0 0 0 0 0 0 0 0
0 0 0 5 13 32 23 20 11 14 33 15 1 5 2 5 0 0 0 5 1 0 0 1 0 7 10 4 2 2 1 0 0 0 0 0 0 0 0 0 0 0 0 0 0 0 0
8 7 1 1 0 6 25 57 49 59 71 33 2 0 2 2 0 0 0 0 0 1 3 0 3 0 3 2 1 0 0 0 0 0 0 0 0 0 0 0 0 0 0 0 0 0 0
6 1 3 7 0 1 4 25 66 80 72 41 8 1 0 8 0 0 0 0 2 4 1 0 0 0 0 0 0 0 0 0 0 0 0 0 0 0 0 0 0 0 0 0 0 0 0

GFSGBSN_con_mlcape_123.txt.gz
CAPE
11 2 1 0 0 0 0 0 0 0 0 0 0 0 0 0 0 0 0 0 0 0 0 0 0 0 0 0 0 0 0 0 0 0 0 0 0 0 0 0 0 0 0 0 0 0 0
1 2 2 3 3 2 1 0 0 0 0 0 0 0 0 0 0 0 0 0 0 0 0 0 0 0 0 0 0 0 0 0 0 0 0 0 0 0 0 0 0 0 0 0 0 0 0
0 2 1 1 0 2 3 0 0 0 0 0 0 0 0 0 0 0 0 0 0 0 0 0 0 0 0 0 0 0 0 0 0 0 0 0 0 0 0 0 0 0 0 0 0 0 0
0 3 1 6 8 7 0 0 0 0 0 0 0 0 0 0 0 0 0 0 0 0 0 0 0 0 0 0 0 0 0 0 0 0 0 0 0 0 0 0 0 0 0 0 0 0 0
17 0 0 1 2 7 4 0 0 0 1 1 0 0 0 0 0 0 0 0 0 0 2 0 0 0 0 0 0 0 0 0 0 0 0 0 0 0 0 0 0 0 0 0 0 0 0
31 10 0 8 0 0 6 3 0 0 4 2 1 3 0 0 0 0 0 3 6 1 0 0 0 0 0 0 0 0 0 0 0 0 0 0 0 0 0 0 0 0 0 0 0 0 0
71 49 26 5 28 10 0 11 0 0 2 0 5 0 0 0 0 0 0 0 0 0 1 0 0 0 0 0 0 0 0 0 0 0 0 0 0 0 0 0 0 0 0 0 0 0 0
14 68 42 8 3 20 33 11 0 0 4 4 5 0 0 0 0 1 0 0 0 0 0 0 0 0 0 0 0 0 0 0 0 0 0 0 0 0 0 0 0 0 0 0 0 0 0
0 71 8 8 12 12 32 7 5 7 10 11 3 0 0 0 0 6 1 0 0 0 0 0 0 0 0 0 0 0 0 0 0 0 0 0 0 0 0 0 0 0 0 0 0 0 0
11 5 54 12 9 12 19 10 5 15 9 9 3 0 0 0 0 0 0 0 0 0 0 0 0 0 0 0 0 0 0 0 0 0 0 0 0 0 0 0 0 0 0 0 0 0 0
25 24 8 36 10 7 6 13 8 12 22 9 0 0 0 0 0 1 0 0 0 0 0 0 0 0 0 0 0 0 0 0 0 0 0 0 0 0 0 0 0 0 0 0 0 0 0
18 24 17 43 19 16 3 9 1 3 9 24 0 0 0 0 1 0 0 0 0 0 0 0 0 0 0 0 0 0 0 0 0 0 0 0 0 0 0 0 0 0 0 0 0 0 0
12 15 30 27 51 16 18 25 24 9 0 0 13 1 0 0 0 0 1 22 0 0 0 0 0 0 0 0 0 0 0 0 0 0 0 0 0 0 0 0 0 0 0 0 0 0 0
14 4 6 54 14 61 15 28 48 13 1 2 1 16 2 0 0 0 21 7 0 0 0 0 0 0 0 0 0 0 0 0 0 0 0 0 0 0 0 0 0 0 0 0 0 0 0
13 29 20 2 10 80 61 26 32 29 19 9 10 1 0 0 0 2 39 0 0 0 0 0 0 0 0 0 0 0 0 0 0 0 0 0 0 0 0 0 0 0 0 0 1 0 0
7 4 22 18 24 8 62 40 24 31 22 21 0 1 2 0 4 3 25 0 0 0 0 0 0 0 0 0 0 0 0 0 0 0 0 0 0 0 0 0 0 0 0 0 2 0 0
16 46 46 5 0 17 2 52 42 20 18 5 0 2 0 4 42 9 30 0 0 0 0 0 0 0 0 0 0 0 0 0 0 0 0 0 0 0 0 0 0 0 0 0 0 0 0
26 28 27 1 5 12 31 12 34 10 10 15 2 0 0 42 4 7 3 0 0 0 0 0 0 0 0 0 0 0 0 0 0 0 8 2 24 17 0 0 0 1 6 0 10 1 0
31 38 12 8 0 5 0 12 24 13 31 6 2 0 0 42 5 3 0 0 1 0 0 0 0 0 0 0 0 0 1 0 4 9 30 20 5 19 11 0 0 0 1 8 0 0 0
35 62 41 71 27 4 4 29 31 14 19 2 0 0 1 2 20 9 0 0 0 0 0 0 2 3 0 0 0 0 2 5 5 14 44 25 3 0 0 0 0 2 10 29 27 14 2
38 56 56 31 69 61 78 31 12 13 13 0 0 0 0 0 19 1 10 0 0 0 9 1 0 0 0 0 0 0 0 0 0 0 5 9 2 18 0 0 6 10 0 7 9 4 3
12 6 22 45 2 5 15 30 4 11 24 7 0 0 0 0 3 1 0 0 0 0 4 9 2 0 0 0 0 0 3 5 0 0 4 0 0 0 0 0 8 1 0 0 0 0 6
15 22 29 17 0 15 2 28 21 14 52 0 1 0 0 0 1 18 4 0 0 0 2 7 6 8 4 0 5 17 6 2 7 0 0 0 1 0 0 0 2 2 0 0 0 0 0
37 15 75 67 0 1 39 18 10 13 44 0 1 0 0 0 0 0 0 0 0 0 0 3 1 0 0 0 1 0 0 0 0 0 1 0 1 0 0 3 1 0 0 0 0 0 0
6 7 7 2 3 5 63 28 40 36 3 0 1 0 0 0 0 0 0 0 0 0 0 0 0 5 21 19 2 1 0 0 0 0 0 0 4 3 7 3 0 0 0 0 0 0 0
2 6 4 1 7 24 25 23 25 25 16 0 0 0 0 0 0 0 0 0 0 0 0 0 0 0 0 5 9 1 1 0 0 0 2 0 0 6 0 1 0 0 0 0 0 0 0
10 10 5 7 7 9 20 22 14 1 17 0 2 0 0 7 0 1 0 0 0 0 0 0 0 0 1 0 1 1 0 1 0 0 0 0 0 0 0 0 0 0 0 0 0 0 0
6 4 8 9 13 13 19 33 22 13 25 1 0 0 0 0 0 9 9 5 1 0 0 0 5 6 4 2 1 0 0 0 0 0 0 0 0 0 0 0 0 0 0 0 0 0 0
5 5 3 0 0 0 6 12 8 10 9 3 0 0 0 11 0 0 0 0 1 1 2 0 0 0 0 0 0 3 0 0 0 0 0 1 0 0 0 0 0 0 0 0 0 0 0

GFSGBSN_con_mlcape_126.txt.gz
CAPE
30 64 63 23 26 5 0 0 0 0 0 0 0 0 0 0 0 0 0 0 0 0 0 0 0 0 0 0 0 0 0 0 0 0 0 0 0 0 0 0 0 0 0 0 0 0 0
0 1 14 13 1 0 1 1 0 0 0 0 0 0 0 0 0 0 0 0 0 0 0 0 0 0 0 0 0 0 0 0 0 0 0 0 0 0 0 0 0 0 0 0 0 0 0
1 0 0 0 2 2 2 1 1 0 0 0 0 0 0 0 0 0 0 0 0 0 0 0 0 0 0 0 0 0 0 0 0 0 0 0 0 0 0 0 0 0 0 0 0 0 0
0 0 3 1 0 0 2 1 1 0 0 0 0 0 0 0 0 0 0 0 0 0 0 0 0 0 0 0 0 0 0 0 0 0 0 0 0 0 0 0 0 0 0 0 0 0 0
35 36 19 3 1 1 0 0 0 0 0 0 0 0 0 0 0 0 0 0 0 0 0 0 0 0 0 0 0 0 0 0 0 0 0 0 0 0 0 0 0 0 0 0 0 0 0
5 51 24 5 11 0 0 0 0 0 0 0 0 0 0 0 0 0 0 0 3 0 0 0 0 0 0 0 0 0 0 0 0 0 0 0 0 0 0 0 0 0 0 0 0 0 0
5 9 63 2 0 9 18 2 0 0 0 0 0 0 0 0 0 0 1 0 0 0 0 0 0 0 0 0 0 0 0 0 0 0 0 0 0 0 0 0 0 0 0 0 0 0 0
17 3 2 35 17 10 20 19 0 4 1 0 0 0 0 0 0 0 7 0 0 0 0 0 0 0 0 0 0 0 0 0 0 0 0 0 0 0 0 0 0 0 0 0 0 0 0
5 13 3 9 99 22 7 13 10 0 1 12 0 0 0 0 0 7 1 0 0 0 0 0 0 0 0 0 0 0 0 0 0 0 0 0 0 0 0 0 0 0 0 0 0 0 0
0 1 9 2 16 11 4 2 20 7 0 0 17 2 0 0 1 1 0 0 1 0 0 0 0 0 0 0 0 0 0 0 0 0 0 0 0 0 0 0 0 0 0 0 0 0 0
0 0 1 9 16 51 19 2 13 10 4 0 0 1 2 0 0 0 0 0 0 0 0 0 0 0 0 0 0 0 0 0 0 0 0 0 0 0 0 0 0 0 0 0 0 0 0
0 0 0 0 11 32 21 19 9 26 16 4 0 0 4 22 16 4 0 0 0 0 0 0 0 0 0 0 0 0 0 0 0 0 0 0 0 0 0 0 0 0 0 0 0 0 0
0 0 0 0 0 1 34 24 14 22 12 8 1 0 0 6 0 11 36 48 0 0 0 0 0 0 0 0 0 0 0 0 0 0 0 0 0 0 0 0 0 0 0 0 0 0 0
0 13 0 8 0 0 2 43 21 16 12 7 10 3 0 0 1 16 75 32 0 0 0 0 0 0 0 0 0 0 0 0 0 0 0 0 0 0 0 0 0 0 0 0 0 0 0
15 8 28 15 10 0 1 18 46 20 19 10 24 9 15 8 9 44 63 12 0 0 0 0 0 0 0 0 0 0 0 0 0 0 0 0 0 0 0 0 0 0 0 0 0 0 0
14 13 10 27 8 5 4 0 6 42 45 17 31 18 16 9 3 4 51 2 0 0 0 0 0 0 0 0 0 0 0 0 0 0 0 0 0 0 0 0 0 0 0 0 8 1 7
12 10 3 3 28 3 0 0 4 40 88 13 11 2 8 34 1 23 26 0 0 1 0 0 0 0 0 0 0 0 0 0 0 0 0 0 0 1 0 0 2 0 2 5 27 12 13
8 7 8 1 2 29 13 32 0 7 0 15 6 0 23 11 0 20 5 0 1 0 0 0 0 0 0 2 0 3 0 1 0 8 6 0 14 2 2 14 26 49 36 38 7 3 0
4 9 6 3 4 2 0 3 0 12 19 3 0 1 40 0 0 1 0 0 17 4 0 0 0 0 11 11 3 20 30 14 23 41 79 55 35 5 10 27 26 16 14 31 22 23 2
2 7 3 5 22 47 46 1 0 0 28 2 1 0 1 14 0 0 0 0 0 10 10 8 8 3 7 3 6 12 26 50 47 64 39 50 13 8 8 3 12 3 9 24 22 25 5
2 7 4 9 10 11 50 16 9 0 6 0 0 0 1 0 3 0 1 0 0 13 8 14 19 16 18 9 13 16 20 23 38 29 4 4 0 1 1 12 15 18 11 15 14 18 12
6 8 3 8 5 8 28 49 51 4 12 2 0 0 0 4 3 0 6 9 4 1 10 2 0 0 0 2 1 3 24 19 27 31 37 48 0 0 0 0 3 9 0 0 9 12 31
9 8 6 10 22 36 67 22 0 58 12 0 1 1 0 6 14 22 5 0 0 14 16 13 14 19 13 20 38 27 26 24 23 17 14 23 6 7 0 1 5 4 0 0 0 11 10
6 12 10 22 12 24 18 10 0 73 8 0 2 0 7 3 9 0 0 0 0 0 2 2 20 19 22 22 15 5 37 31 25 13 17 14 9 18 1 7 2 0 0 0 1 0 0
3 15 6 11 18 41 4 16 1 15 6 0 1 0 0 8 19 13 4 2 9 16 11 16 11 29 27 12 3 2 2 2 0 0 1 8 8 8 10 2 0 2 0 0 0 0 0
6 13 4 4 4 53 12 5 2 23 30 2 5 0 0 7 7 31 13 8 20 12 12 7 11 17 6 6 7 2 10 6 5 4 0 0 2 10 4 13 9 0 0 0 0 0 0
2 2 3 3 0 14 14 10 11 16 12 5 0 3 2 1 5 0 0 6 8 6 7 8 13 17 20 7 5 4 6 16 10 5 13 1 14 0 1 5 4 0 0 0 0 0 0
6 16 9 4 4 2 7 9 4 9 9 2 5 13 0 7 5 8 3 0 14 27 9 31 46 29 16 7 3 3 0 8 18 1 1 15 8 3 2 6 9 0 0 0 0 0 0
0 4 24 9 2 7 5 16 8 30 0 1 5 7 0 8 11 6 0 0 13 50 22 32 15 43 34 17 5 14 3 14 3 0 9 1 0 2 19 13 0 0 0 0 0 0 0